Wetterdaten: Sonntag, 03.08.2025
Datum Zeit Temp. I. Temp. A. Feuchte I. Feuchte A. Luftdruck Regen Wind Richtung Richtung Sonnenschein Solar Taupunkt Windchill Windböen
03.08.2025 00:00 22,4 °C 16,1 °C 59 % 76 % 1013,5 hPa 0,0 l/m² 1,9 km/h (1 Bft) W 266 ° 0 min 0 W/m² 11,9 °C 16,1 °C 3,2 km/h (1 Bft)
03.08.2025 00:02 22,5 °C 16,1 °C 59 % 76 % 1013,4 hPa 0,0 l/m² 2,5 km/h (1 Bft) W 266 ° 0 min 0 W/m² 11,9 °C 16,1 °C 4,8 km/h (1 Bft)
03.08.2025 00:03 22,5 °C 16,1 °C 59 % 76 % 1013,5 hPa 0,0 l/m² 3,7 km/h (1 Bft) W 266 ° 0 min 0 W/m² 11,9 °C 16,1 °C 4,8 km/h (1 Bft)
03.08.2025 00:05 22,4 °C 15,9 °C 59 % 76 % 1013,5 hPa 0,0 l/m² 3,3 km/h (1 Bft) W 265 ° 0 min 0 W/m² 11,7 °C 15,9 °C 4,8 km/h (1 Bft)
03.08.2025 00:07 22,4 °C 15,9 °C 59 % 76 % 1013,4 hPa 0,0 l/m² 3,1 km/h (1 Bft) W 265 ° 0 min 0 W/m² 11,7 °C 15,9 °C 4,8 km/h (1 Bft)
03.08.2025 00:09 22,4 °C 15,9 °C 59 % 76 % 1013,5 hPa 0,0 l/m² 3,7 km/h (1 Bft) W-SW 252 ° 0 min 0 W/m² 11,7 °C 15,9 °C 4,8 km/h (1 Bft)
03.08.2025 00:11 22,4 °C 15,8 °C 59 % 76 % 1013,5 hPa 0,0 l/m² 2,9 km/h (1 Bft) W-SW 252 ° 0 min 0 W/m² 11,6 °C 15,8 °C 4,8 km/h (1 Bft)
03.08.2025 00:12 22,4 °C 15,8 °C 59 % 77 % 1013,5 hPa 0,0 l/m² 1,9 km/h (1 Bft) W-SW 252 ° 0 min 0 W/m² 11,8 °C 15,8 °C 3,2 km/h (1 Bft)
03.08.2025 00:13 22,4 °C 15,8 °C 59 % 76 % 1013,5 hPa 0,0 l/m² 1,2 km/h (1 Bft) W-SW 252 ° 0 min 0 W/m² 11,6 °C 15,8 °C 3,2 km/h (1 Bft)
03.08.2025 00:15 22,4 °C 15,7 °C 59 % 77 % 1013,5 hPa 0,0 l/m² 0,4 km/h (0 Bft) W-SW 252 ° 0 min 0 W/m² 11,7 °C 15,7 °C 1,6 km/h (1 Bft)
03.08.2025 00:17 22,4 °C 15,7 °C 59 % 77 % 1013,6 hPa 0,0 l/m² 0,6 km/h (0 Bft) W-SW 252 ° 0 min 0 W/m² 11,7 °C 15,7 °C 1,6 km/h (1 Bft)
03.08.2025 00:19 22,4 °C 15,6 °C 59 % 77 % 1013,6 hPa 0,0 l/m² 0,1 km/h (0 Bft) W-SW 252 ° 0 min 0 W/m² 11,6 °C 15,6 °C 1,6 km/h (1 Bft)
03.08.2025 00:21 22,4 °C 15,6 °C 59 % 78 % 1013,6 hPa 0,0 l/m² 0,0 km/h (0 Bft) W-SW 252 ° 0 min 0 W/m² 11,8 °C 15,6 °C 1,6 km/h (1 Bft)
03.08.2025 00:22 22,4 °C 15,6 °C 59 % 78 % 1013,6 hPa 0,0 l/m² 0,0 km/h (0 Bft) W-SW 252 ° 0 min 0 W/m² 11,8 °C 15,6 °C 0,0 km/h (0 Bft)
03.08.2025 00:23 22,4 °C 15,5 °C 59 % 78 % 1013,7 hPa 0,0 l/m² 0,2 km/h (0 Bft) W-SW 252 ° 0 min 0 W/m² 11,7 °C 15,5 °C 1,6 km/h (1 Bft)
03.08.2025 00:25 22,4 °C 15,4 °C 59 % 78 % 1013,6 hPa 0,0 l/m² 1,9 km/h (1 Bft) W-SW 252 ° 0 min 0 W/m² 11,6 °C 15,4 °C 3,2 km/h (1 Bft)
03.08.2025 00:27 22,4 °C 15,4 °C 59 % 78 % 1013,6 hPa 0,0 l/m² 1,0 km/h (0 Bft) W-SW 252 ° 0 min 0 W/m² 11,6 °C 15,4 °C 3,2 km/h (1 Bft)
03.08.2025 00:29 22,4 °C 15,4 °C 59 % 78 % 1013,7 hPa 0,0 l/m² 1,9 km/h (1 Bft) W-SW 258 ° 0 min 0 W/m² 11,6 °C 15,4 °C 4,8 km/h (1 Bft)
03.08.2025 00:31 22,4 °C 15,3 °C 59 % 79 % 1013,7 hPa 0,0 l/m² 0,4 km/h (0 Bft) W-SW 258 ° 0 min 0 W/m² 11,7 °C 15,3 °C 1,6 km/h (1 Bft)
03.08.2025 00:32 22,4 °C 15,3 °C 59 % 79 % 1013,7 hPa 0,0 l/m² 0,1 km/h (0 Bft) W-SW 258 ° 0 min 0 W/m² 11,7 °C 15,3 °C 1,6 km/h (1 Bft)
03.08.2025 00:33 22,4 °C 15,3 °C 59 % 79 % 1013,7 hPa 0,0 l/m² 2,1 km/h (1 Bft) W-SW 258 ° 0 min 0 W/m² 11,7 °C 15,3 °C 3,2 km/h (1 Bft)
03.08.2025 00:35 22,4 °C 15,3 °C 59 % 79 % 1013,6 hPa 0,0 l/m² 0,3 km/h (0 Bft) W-SW 258 ° 0 min 0 W/m² 11,7 °C 15,3 °C 1,6 km/h (1 Bft)
03.08.2025 00:37 22,4 °C 15,3 °C 59 % 79 % 1013,6 hPa 0,0 l/m² 2,1 km/h (1 Bft) W-SW 258 ° 0 min 0 W/m² 11,7 °C 15,3 °C 3,2 km/h (1 Bft)
03.08.2025 00:39 22,4 °C 15,2 °C 59 % 79 % 1013,7 hPa 0,0 l/m² 0,7 km/h (0 Bft) W-SW 258 ° 0 min 0 W/m² 11,6 °C 15,2 °C 3,2 km/h (1 Bft)
03.08.2025 00:41 22,4 °C 15,2 °C 59 % 79 % 1013,6 hPa 0,0 l/m² 0,6 km/h (0 Bft) W-SW 258 ° 0 min 0 W/m² 11,6 °C 15,2 °C 1,6 km/h (1 Bft)
03.08.2025 00:42 22,4 °C 15,2 °C 59 % 79 % 1013,6 hPa 0,0 l/m² 1,1 km/h (1 Bft) W-SW 258 ° 0 min 0 W/m² 11,6 °C 15,2 °C 1,6 km/h (1 Bft)
03.08.2025 00:43 22,4 °C 15,2 °C 59 % 79 % 1013,6 hPa 0,0 l/m² 0,7 km/h (0 Bft) W-SW 258 ° 0 min 0 W/m² 11,6 °C 15,2 °C 1,6 km/h (1 Bft)
03.08.2025 00:47 22,4 °C 15,1 °C 59 % 79 % 1013,6 hPa 0,0 l/m² 0,3 km/h (0 Bft) W-SW 258 ° 0 min 0 W/m² 11,5 °C 15,1 °C 1,6 km/h (1 Bft)
03.08.2025 00:49 22,4 °C 15,1 °C 59 % 79 % 1013,7 hPa 0,0 l/m² 0,1 km/h (0 Bft) W-SW 258 ° 0 min 0 W/m² 11,5 °C 15,1 °C 1,6 km/h (1 Bft)
03.08.2025 00:51 22,4 °C 15,1 °C 59 % 80 % 1013,7 hPa 0,0 l/m² 0,5 km/h (0 Bft) W-SW 258 ° 0 min 0 W/m² 11,7 °C 15,1 °C 1,6 km/h (1 Bft)
03.08.2025 00:52 22,4 °C 15,1 °C 59 % 80 % 1013,7 hPa 0,0 l/m² 0,0 km/h (0 Bft) W-SW 258 ° 0 min 0 W/m² 11,7 °C 15,1 °C 0,0 km/h (0 Bft)
03.08.2025 00:53 22,4 °C 15,1 °C 59 % 80 % 1013,6 hPa 0,0 l/m² 0,0 km/h (0 Bft) W-SW 258 ° 0 min 0 W/m² 11,7 °C 15,1 °C 0,0 km/h (0 Bft)
03.08.2025 00:55 22,4 °C 15,0 °C 60 % 80 % 1013,7 hPa 0,0 l/m² 0,0 km/h (0 Bft) W-SW 258 ° 0 min 0 W/m² 11,6 °C 15,0 °C 1,6 km/h (1 Bft)
03.08.2025 00:57 22,4 °C 14,9 °C 60 % 80 % 1013,6 hPa 0,0 l/m² 0,1 km/h (0 Bft) W-SW 258 ° 0 min 0 W/m² 11,5 °C 14,9 °C 1,6 km/h (1 Bft)
03.08.2025 00:59 22,4 °C 14,9 °C 60 % 80 % 1013,6 hPa 0,0 l/m² 0,0 km/h (0 Bft) W-SW 258 ° 0 min 0 W/m² 11,5 °C 14,9 °C 0,0 km/h (0 Bft)
03.08.2025 01:01 22,4 °C 14,9 °C 60 % 80 % 1013,7 hPa 0,0 l/m² 0,0 km/h (0 Bft) W-SW 258 ° 0 min 0 W/m² 11,5 °C 14,9 °C 0,0 km/h (0 Bft)
03.08.2025 01:02 22,4 °C 14,9 °C 60 % 80 % 1013,7 hPa 0,0 l/m² 0,0 km/h (0 Bft) W-SW 258 ° 0 min 0 W/m² 11,5 °C 14,9 °C 0,0 km/h (0 Bft)
03.08.2025 01:03 22,4 °C 14,9 °C 60 % 80 % 1013,7 hPa 0,0 l/m² 0,0 km/h (0 Bft) W-SW 258 ° 0 min 0 W/m² 11,5 °C 14,9 °C 0,0 km/h (0 Bft)
03.08.2025 01:05 22,4 °C 14,9 °C 59 % 80 % 1013,7 hPa 0,0 l/m² 0,0 km/h (0 Bft) W-SW 258 ° 0 min 0 W/m² 11,5 °C 14,9 °C 0,0 km/h (0 Bft)
03.08.2025 01:07 22,4 °C 14,9 °C 60 % 80 % 1013,8 hPa 0,0 l/m² 0,7 km/h (0 Bft) W-SW 252 ° 0 min 0 W/m² 11,5 °C 14,9 °C 3,2 km/h (1 Bft)
03.08.2025 01:09 22,4 °C 14,9 °C 60 % 81 % 1013,8 hPa 0,0 l/m² 1,9 km/h (1 Bft) W-SW 252 ° 0 min 0 W/m² 11,7 °C 14,9 °C 3,2 km/h (1 Bft)
03.08.2025 01:11 22,4 °C 14,9 °C 60 % 81 % 1013,7 hPa 0,0 l/m² 1,7 km/h (1 Bft) W-SW 252 ° 0 min 0 W/m² 11,7 °C 14,9 °C 3,2 km/h (1 Bft)
03.08.2025 01:12 22,4 °C 14,9 °C 60 % 81 % 1013,7 hPa 0,0 l/m² 1,2 km/h (1 Bft) W-SW 252 ° 0 min 0 W/m² 11,7 °C 14,9 °C 1,6 km/h (1 Bft)
03.08.2025 01:13 22,4 °C 14,9 °C 60 % 82 % 1013,8 hPa 0,0 l/m² 2,3 km/h (1 Bft) W-SW 252 ° 0 min 0 W/m² 11,9 °C 14,9 °C 3,2 km/h (1 Bft)
03.08.2025 01:15 22,4 °C 14,9 °C 60 % 82 % 1013,7 hPa 0,0 l/m² 3,4 km/h (1 Bft) W-SW 241 ° 0 min 0 W/m² 11,9 °C 14,9 °C 4,8 km/h (1 Bft)
03.08.2025 01:17 22,4 °C 14,9 °C 60 % 83 % 1013,7 hPa 0,0 l/m² 4,1 km/h (1 Bft) SW 215 ° 0 min 0 W/m² 12,0 °C 14,9 °C 6,4 km/h (2 Bft)
03.08.2025 01:19 22,4 °C 14,9 °C 60 % 83 % 1013,8 hPa 0,0 l/m² 2,8 km/h (1 Bft) SW 215 ° 0 min 0 W/m² 12,0 °C 14,9 °C 4,8 km/h (1 Bft)
03.08.2025 01:21 22,4 °C 14,9 °C 60 % 83 % 1013,7 hPa 0,0 l/m² 1,5 km/h (1 Bft) SW 223 ° 0 min 0 W/m² 12,0 °C 14,9 °C 4,8 km/h (1 Bft)
03.08.2025 01:22 22,4 °C 14,9 °C 60 % 83 % 1013,7 hPa 0,0 l/m² 0,1 km/h (0 Bft) SW 223 ° 0 min 0 W/m² 12,0 °C 14,9 °C 1,6 km/h (1 Bft)
03.08.2025 01:23 22,4 °C 14,9 °C 60 % 83 % 1013,7 hPa 0,0 l/m² 0,8 km/h (0 Bft) W-SW 254 ° 0 min 0 W/m² 12,0 °C 14,9 °C 1,6 km/h (1 Bft)
03.08.2025 01:25 22,4 °C 14,9 °C 60 % 84 % 1013,7 hPa 0,0 l/m² 1,5 km/h (1 Bft) W-SW 254 ° 0 min 0 W/m² 12,2 °C 14,9 °C 3,2 km/h (1 Bft)
03.08.2025 01:27 22,4 °C 15,0 °C 60 % 84 % 1013,7 hPa 0,0 l/m² 1,9 km/h (1 Bft) W-SW 254 ° 0 min 0 W/m² 12,3 °C 15,0 °C 3,2 km/h (1 Bft)
03.08.2025 01:29 22,4 °C 15,0 °C 60 % 84 % 1013,8 hPa 0,0 l/m² 2,8 km/h (1 Bft) W 259 ° 0 min 0 W/m² 12,3 °C 15,0 °C 6,4 km/h (2 Bft)
03.08.2025 01:31 22,4 °C 15,0 °C 60 % 84 % 1013,8 hPa 0,0 l/m² 0,2 km/h (0 Bft) W 259 ° 0 min 0 W/m² 12,3 °C 15,0 °C 1,6 km/h (1 Bft)
03.08.2025 01:32 22,4 °C 15,0 °C 60 % 84 % 1013,8 hPa 0,0 l/m² 0,0 km/h (0 Bft) W 259 ° 0 min 0 W/m² 12,3 °C 15,0 °C 0,0 km/h (0 Bft)
03.08.2025 01:33 22,4 °C 15,0 °C 60 % 84 % 1013,8 hPa 0,0 l/m² 0,8 km/h (0 Bft) W 259 ° 0 min 0 W/m² 12,3 °C 15,0 °C 3,2 km/h (1 Bft)
03.08.2025 01:35 22,4 °C 15,0 °C 60 % 84 % 1013,9 hPa 0,0 l/m² 1,9 km/h (1 Bft) W 259 ° 0 min 0 W/m² 12,3 °C 15,0 °C 3,2 km/h (1 Bft)
03.08.2025 01:37 22,4 °C 15,0 °C 60 % 84 % 1013,9 hPa 0,0 l/m² 0,2 km/h (0 Bft) W 259 ° 0 min 0 W/m² 12,3 °C 15,0 °C 1,6 km/h (1 Bft)
03.08.2025 01:39 22,4 °C 15,0 °C 60 % 84 % 1013,9 hPa 0,0 l/m² 0,4 km/h (0 Bft) W 259 ° 0 min 0 W/m² 12,3 °C 15,0 °C 3,2 km/h (1 Bft)
03.08.2025 01:41 22,4 °C 15,1 °C 60 % 84 % 1013,9 hPa 0,0 l/m² 1,1 km/h (1 Bft) W 260 ° 0 min 0 W/m² 12,4 °C 15,1 °C 3,2 km/h (1 Bft)
03.08.2025 01:42 22,4 °C 15,0 °C 60 % 84 % 1013,9 hPa 0,0 l/m² 1,8 km/h (1 Bft) W 260 ° 0 min 0 W/m² 12,3 °C 15,0 °C 3,2 km/h (1 Bft)
03.08.2025 01:43 22,4 °C 15,1 °C 60 % 85 % 1013,9 hPa 0,0 l/m² 2,6 km/h (1 Bft) W 267 ° 0 min 0 W/m² 12,6 °C 15,1 °C 4,8 km/h (1 Bft)
03.08.2025 01:45 22,4 °C 15,1 °C 60 % 85 % 1013,9 hPa 0,0 l/m² 3,5 km/h (1 Bft) W 269 ° 0 min 0 W/m² 12,6 °C 15,1 °C 9,7 km/h (2 Bft)
03.08.2025 01:47 22,4 °C 15,1 °C 60 % 85 % 1013,9 hPa 0,0 l/m² 2,1 km/h (1 Bft) W 267 ° 0 min 0 W/m² 12,6 °C 15,1 °C 4,8 km/h (1 Bft)
03.08.2025 01:49 22,4 °C 15,1 °C 60 % 85 % 1013,9 hPa 0,0 l/m² 2,7 km/h (1 Bft) W 264 ° 0 min 0 W/m² 12,6 °C 15,1 °C 6,4 km/h (2 Bft)
03.08.2025 01:51 22,3 °C 15,2 °C 60 % 85 % 1013,8 hPa 0,0 l/m² 2,2 km/h (1 Bft) W 276 ° 0 min 0 W/m² 12,7 °C 15,2 °C 6,4 km/h (2 Bft)
03.08.2025 01:52 22,4 °C 15,1 °C 60 % 85 % 1013,9 hPa 0,0 l/m² 2,7 km/h (1 Bft) W 273 ° 0 min 0 W/m² 12,6 °C 15,1 °C 4,8 km/h (1 Bft)
03.08.2025 01:53 22,4 °C 15,2 °C 60 % 85 % 1013,9 hPa 0,0 l/m² 1,5 km/h (1 Bft) W 275 ° 0 min 0 W/m² 12,7 °C 15,2 °C 3,2 km/h (1 Bft)
03.08.2025 01:55 22,4 °C 15,2 °C 60 % 85 % 1013,9 hPa 0,0 l/m² 0,8 km/h (0 Bft) W 263 ° 0 min 0 W/m² 12,7 °C 15,2 °C 4,8 km/h (1 Bft)
03.08.2025 01:57 22,3 °C 15,2 °C 60 % 86 % 1014,0 hPa 0,0 l/m² 2,7 km/h (1 Bft) W 265 ° 0 min 0 W/m² 12,9 °C 15,2 °C 9,7 km/h (2 Bft)
03.08.2025 01:59 22,4 °C 15,2 °C 60 % 86 % 1013,9 hPa 0,0 l/m² 3,5 km/h (1 Bft) W 262 ° 0 min 0 W/m² 12,9 °C 15,2 °C 9,7 km/h (2 Bft)
03.08.2025 02:01 22,4 °C 15,3 °C 60 % 86 % 1013,9 hPa 0,0 l/m² 2,0 km/h (1 Bft) W 265 ° 0 min 0 W/m² 13,0 °C 15,3 °C 4,8 km/h (1 Bft)
03.08.2025 02:02 22,4 °C 15,3 °C 60 % 86 % 1014,0 hPa 0,0 l/m² 2,2 km/h (1 Bft) W 273 ° 0 min 0 W/m² 13,0 °C 15,3 °C 4,8 km/h (1 Bft)
03.08.2025 02:03 22,3 °C 15,3 °C 60 % 86 % 1013,9 hPa 0,0 l/m² 2,4 km/h (1 Bft) W-SW 248 ° 0 min 0 W/m² 13,0 °C 15,3 °C 4,8 km/h (1 Bft)
03.08.2025 02:05 22,4 °C 15,3 °C 60 % 86 % 1013,9 hPa 0,0 l/m² 2,1 km/h (1 Bft) W 259 ° 0 min 0 W/m² 13,0 °C 15,3 °C 4,8 km/h (1 Bft)
03.08.2025 02:07 22,4 °C 15,4 °C 60 % 86 % 1014,0 hPa 0,0 l/m² 1,5 km/h (1 Bft) W 259 ° 0 min 0 W/m² 13,1 °C 15,4 °C 6,4 km/h (2 Bft)
03.08.2025 02:09 22,4 °C 15,4 °C 60 % 86 % 1014,0 hPa 0,0 l/m² 2,0 km/h (1 Bft) W 259 ° 0 min 0 W/m² 13,1 °C 15,4 °C 4,8 km/h (1 Bft)
03.08.2025 02:11 22,4 °C 15,4 °C 60 % 86 % 1014,0 hPa 0,0 l/m² 1,6 km/h (1 Bft) W 259 ° 0 min 0 W/m² 13,1 °C 15,4 °C 3,2 km/h (1 Bft)
03.08.2025 02:12 22,4 °C 15,4 °C 60 % 86 % 1014,0 hPa 0,0 l/m² 2,0 km/h (1 Bft) W 259 ° 0 min 0 W/m² 13,1 °C 15,4 °C 3,2 km/h (1 Bft)
03.08.2025 02:13 22,3 °C 15,4 °C 60 % 86 % 1013,9 hPa 0,0 l/m² 2,6 km/h (1 Bft) W 259 ° 0 min 0 W/m² 13,1 °C 15,4 °C 3,2 km/h (1 Bft)
03.08.2025 02:15 22,4 °C 15,4 °C 60 % 86 % 1014,0 hPa 0,0 l/m² 1,8 km/h (1 Bft) W 259 ° 0 min 0 W/m² 13,1 °C 15,4 °C 4,8 km/h (1 Bft)
03.08.2025 02:17 22,4 °C 15,6 °C 60 % 86 % 1014,1 hPa 0,0 l/m² 2,2 km/h (1 Bft) W 259 ° 0 min 0 W/m² 13,3 °C 15,6 °C 4,8 km/h (1 Bft)
03.08.2025 02:19 22,4 °C 15,6 °C 60 % 86 % 1014,1 hPa 0,0 l/m² 2,7 km/h (1 Bft) W-SW 250 ° 0 min 0 W/m² 13,3 °C 15,6 °C 6,4 km/h (2 Bft)
03.08.2025 02:21 22,3 °C 15,6 °C 60 % 86 % 1014,1 hPa 0,0 l/m² 3,0 km/h (1 Bft) W-SW 250 ° 0 min 0 W/m² 13,3 °C 15,6 °C 6,4 km/h (2 Bft)
03.08.2025 02:23 22,3 °C 15,6 °C 60 % 86 % 1014,1 hPa 0,0 l/m² 3,0 km/h (1 Bft) W-SW 252 ° 0 min 0 W/m² 13,3 °C 15,6 °C 4,8 km/h (1 Bft)
03.08.2025 02:25 22,4 °C 15,6 °C 60 % 86 % 1014,1 hPa 0,0 l/m² 3,6 km/h (1 Bft) W 276 ° 0 min 0 W/m² 13,3 °C 15,6 °C 9,7 km/h (2 Bft)
03.08.2025 02:26 22,4 °C 15,7 °C 60 % 86 % 1014,1 hPa 0,0 l/m² 2,6 km/h (1 Bft) W 273 ° 0 min 0 W/m² 13,4 °C 15,7 °C 4,8 km/h (1 Bft)
03.08.2025 02:28 22,4 °C 15,7 °C 60 % 86 % 1014,1 hPa 0,0 l/m² 2,0 km/h (1 Bft) W 261 ° 0 min 0 W/m² 13,4 °C 15,7 °C 4,8 km/h (1 Bft)
03.08.2025 02:30 22,4 °C 15,7 °C 60 % 86 % 1014,1 hPa 0,0 l/m² 2,7 km/h (1 Bft) W 275 ° 0 min 0 W/m² 13,4 °C 15,7 °C 6,4 km/h (2 Bft)
03.08.2025 02:32 22,4 °C 15,7 °C 60 % 86 % 1014,1 hPa 0,0 l/m² 3,2 km/h (1 Bft) W-SW 254 ° 0 min 0 W/m² 13,4 °C 15,7 °C 9,7 km/h (2 Bft)
03.08.2025 02:33 22,4 °C 15,7 °C 60 % 86 % 1014,1 hPa 0,0 l/m² 3,2 km/h (1 Bft) W-NW 295 ° 0 min 0 W/m² 13,4 °C 15,7 °C 6,4 km/h (2 Bft)
03.08.2025 02:34 22,4 °C 15,7 °C 60 % 86 % 1014,1 hPa 0,0 l/m² 0,9 km/h (0 Bft) W 269 ° 0 min 0 W/m² 13,4 °C 15,7 °C 3,2 km/h (1 Bft)
03.08.2025 02:36 22,4 °C 15,8 °C 60 % 86 % 1014,2 hPa 0,0 l/m² 3,1 km/h (1 Bft) W 261 ° 0 min 0 W/m² 13,5 °C 15,8 °C 6,4 km/h (2 Bft)
03.08.2025 02:38 22,4 °C 15,8 °C 60 % 86 % 1014,1 hPa 0,0 l/m² 3,1 km/h (1 Bft) W-SW 256 ° 0 min 0 W/m² 13,5 °C 15,8 °C 4,8 km/h (1 Bft)
03.08.2025 02:40 22,4 °C 15,8 °C 60 % 86 % 1014,1 hPa 0,0 l/m² 2,5 km/h (1 Bft) W 271 ° 0 min 0 W/m² 13,5 °C 15,8 °C 4,8 km/h (1 Bft)
03.08.2025 02:42 22,4 °C 15,8 °C 60 % 86 % 1014,1 hPa 0,0 l/m² 2,0 km/h (1 Bft) W-SW 243 ° 0 min 0 W/m² 13,5 °C 15,8 °C 3,2 km/h (1 Bft)
03.08.2025 02:43 22,3 °C 15,8 °C 60 % 86 % 1014,1 hPa 0,0 l/m² 1,6 km/h (1 Bft) W 271 ° 0 min 0 W/m² 13,5 °C 15,8 °C 4,8 km/h (1 Bft)
03.08.2025 02:44 22,4 °C 15,9 °C 60 % 86 % 1014,1 hPa 0,0 l/m² 2,0 km/h (1 Bft) W 261 ° 0 min 0 W/m² 13,6 °C 15,9 °C 4,8 km/h (1 Bft)
03.08.2025 02:46 22,4 °C 15,9 °C 60 % 86 % 1014,1 hPa 0,0 l/m² 2,2 km/h (1 Bft) W 271 ° 0 min 0 W/m² 13,6 °C 15,9 °C 3,2 km/h (1 Bft)
03.08.2025 02:48 22,4 °C 15,9 °C 60 % 86 % 1014,1 hPa 0,0 l/m² 2,7 km/h (1 Bft) W 271 ° 0 min 0 W/m² 13,6 °C 15,9 °C 6,4 km/h (2 Bft)
03.08.2025 02:50 22,4 °C 15,9 °C 60 % 86 % 1014,2 hPa 0,0 l/m² 1,7 km/h (1 Bft) W 270 ° 0 min 0 W/m² 13,6 °C 15,9 °C 4,8 km/h (1 Bft)
03.08.2025 02:52 22,4 °C 15,9 °C 60 % 86 % 1014,2 hPa 0,0 l/m² 2,2 km/h (1 Bft) W 269 ° 0 min 0 W/m² 13,6 °C 15,9 °C 6,4 km/h (2 Bft)
03.08.2025 02:53 22,4 °C 15,9 °C 60 % 86 % 1014,2 hPa 0,0 l/m² 1,9 km/h (1 Bft) W 260 ° 0 min 0 W/m² 13,6 °C 15,9 °C 3,2 km/h (1 Bft)
03.08.2025 02:54 22,4 °C 16,0 °C 60 % 86 % 1014,2 hPa 0,0 l/m² 1,0 km/h (0 Bft) W 261 ° 0 min 0 W/m² 13,7 °C 16,0 °C 3,2 km/h (1 Bft)
03.08.2025 02:56 22,3 °C 16,0 °C 60 % 85 % 1014,2 hPa 0,0 l/m² 1,8 km/h (1 Bft) W 265 ° 0 min 0 W/m² 13,5 °C 16,0 °C 6,4 km/h (2 Bft)
03.08.2025 02:58 22,4 °C 16,0 °C 60 % 85 % 1014,2 hPa 0,0 l/m² 1,4 km/h (1 Bft) W 265 ° 0 min 0 W/m² 13,5 °C 16,0 °C 4,8 km/h (1 Bft)
03.08.2025 03:00 22,3 °C 16,1 °C 60 % 85 % 1014,2 hPa 0,0 l/m² 1,3 km/h (1 Bft) W 265 ° 0 min 0 W/m² 13,6 °C 16,1 °C 3,2 km/h (1 Bft)
03.08.2025 03:02 22,3 °C 16,0 °C 60 % 86 % 1014,2 hPa 0,0 l/m² 1,6 km/h (1 Bft) W 265 ° 0 min 0 W/m² 13,7 °C 16,0 °C 3,2 km/h (1 Bft)
03.08.2025 03:03 22,4 °C 16,0 °C 60 % 86 % 1014,2 hPa 0,0 l/m² 1,9 km/h (1 Bft) W 265 ° 0 min 0 W/m² 13,7 °C 16,0 °C 3,2 km/h (1 Bft)
03.08.2025 03:05 22,4 °C 16,1 °C 60 % 85 % 1014,2 hPa 0,0 l/m² 2,5 km/h (1 Bft) W 265 ° 0 min 0 W/m² 13,6 °C 16,1 °C 3,2 km/h (1 Bft)
03.08.2025 03:06 22,4 °C 16,1 °C 60 % 85 % 1014,3 hPa 0,0 l/m² 4,1 km/h (1 Bft) SW 231 ° 0 min 0 W/m² 13,6 °C 16,1 °C 4,8 km/h (1 Bft)
03.08.2025 03:08 22,4 °C 16,1 °C 60 % 85 % 1014,2 hPa 0,0 l/m² 5,2 km/h (1 Bft) S-SW 204 ° 0 min 0 W/m² 13,6 °C 16,1 °C 8,0 km/h (2 Bft)
03.08.2025 03:09 22,4 °C 16,1 °C 60 % 85 % 1014,3 hPa 0,0 l/m² 7,1 km/h (2 Bft) S-SW 202 ° 0 min 0 W/m² 13,6 °C 15,7 °C 8,0 km/h (2 Bft)
03.08.2025 03:11 22,4 °C 16,1 °C 60 % 85 % 1014,2 hPa 0,0 l/m² 5,9 km/h (2 Bft) S-SW 202 ° 0 min 0 W/m² 13,6 °C 16,1 °C 8,0 km/h (2 Bft)
03.08.2025 03:12 22,4 °C 16,1 °C 60 % 85 % 1014,2 hPa 0,0 l/m² 4,8 km/h (1 Bft) S-SW 202 ° 0 min 0 W/m² 13,6 °C 16,1 °C 6,4 km/h (2 Bft)
03.08.2025 03:13 22,4 °C 16,1 °C 60 % 85 % 1014,2 hPa 0,0 l/m² 3,5 km/h (1 Bft) S-SW 202 ° 0 min 0 W/m² 13,6 °C 16,1 °C 4,8 km/h (1 Bft)
03.08.2025 03:14 22,4 °C 16,1 °C 60 % 85 % 1014,2 hPa 0,0 l/m² 5,6 km/h (2 Bft) S-SW 208 ° 0 min 0 W/m² 13,6 °C 16,1 °C 8,0 km/h (2 Bft)
03.08.2025 03:15 22,4 °C 16,1 °C 60 % 85 % 1014,2 hPa 0,0 l/m² 4,9 km/h (1 Bft) SW 218 ° 0 min 0 W/m² 13,6 °C 16,1 °C 6,4 km/h (2 Bft)
03.08.2025 03:16 22,4 °C 16,1 °C 60 % 85 % 1014,2 hPa 0,0 l/m² 4,6 km/h (1 Bft) SW 218 ° 0 min 0 W/m² 13,6 °C 16,1 °C 6,4 km/h (2 Bft)
03.08.2025 03:17 22,4 °C 16,1 °C 60 % 85 % 1014,3 hPa 0,0 l/m² 4,5 km/h (1 Bft) SW 219 ° 0 min 0 W/m² 13,6 °C 16,1 °C 6,4 km/h (2 Bft)
03.08.2025 03:18 22,4 °C 16,1 °C 60 % 85 % 1014,2 hPa 0,0 l/m² 4,7 km/h (1 Bft) SW 219 ° 0 min 0 W/m² 13,6 °C 16,1 °C 6,4 km/h (2 Bft)
03.08.2025 03:19 22,4 °C 16,1 °C 60 % 85 % 1014,2 hPa 0,0 l/m² 3,6 km/h (1 Bft) SW 219 ° 0 min 0 W/m² 13,6 °C 16,1 °C 6,4 km/h (2 Bft)
03.08.2025 03:21 22,4 °C 16,1 °C 60 % 85 % 1014,3 hPa 0,0 l/m² 4,5 km/h (1 Bft) SW 215 ° 0 min 0 W/m² 13,6 °C 16,1 °C 8,0 km/h (2 Bft)
03.08.2025 03:22 22,3 °C 16,1 °C 60 % 85 % 1014,2 hPa 0,0 l/m² 5,0 km/h (1 Bft) SW 218 ° 0 min 0 W/m² 13,6 °C 16,1 °C 6,4 km/h (2 Bft)
03.08.2025 03:23 22,4 °C 16,1 °C 60 % 85 % 1014,3 hPa 0,0 l/m² 6,1 km/h (2 Bft) SW 218 ° 0 min 0 W/m² 13,6 °C 16,1 °C 6,4 km/h (2 Bft)
03.08.2025 03:24 22,3 °C 16,1 °C 60 % 85 % 1014,2 hPa 0,0 l/m² 7,3 km/h (2 Bft) SW 217 ° 0 min 0 W/m² 13,6 °C 15,6 °C 8,0 km/h (2 Bft)
03.08.2025 03:25 22,3 °C 16,1 °C 60 % 85 % 1014,2 hPa 0,0 l/m² 6,4 km/h (2 Bft) SW 217 ° 0 min 0 W/m² 13,6 °C 16,1 °C 9,7 km/h (2 Bft)
03.08.2025 03:26 22,4 °C 16,1 °C 60 % 85 % 1014,3 hPa 0,0 l/m² 5,0 km/h (1 Bft) SW 218 ° 0 min 0 W/m² 13,6 °C 16,1 °C 6,4 km/h (2 Bft)
03.08.2025 03:27 22,4 °C 16,1 °C 60 % 85 % 1014,3 hPa 0,0 l/m² 5,2 km/h (1 Bft) SW 223 ° 0 min 0 W/m² 13,6 °C 16,1 °C 6,4 km/h (2 Bft)
03.08.2025 03:28 22,3 °C 16,1 °C 60 % 85 % 1014,2 hPa 0,0 l/m² 5,3 km/h (1 Bft) SW 230 ° 0 min 0 W/m² 13,6 °C 16,1 °C 8,0 km/h (2 Bft)
03.08.2025 03:29 22,4 °C 16,0 °C 60 % 85 % 1014,4 hPa 0,0 l/m² 5,8 km/h (2 Bft) SW 231 ° 0 min 0 W/m² 13,5 °C 16,0 °C 6,4 km/h (2 Bft)
03.08.2025 03:31 22,3 °C 16,1 °C 60 % 85 % 1014,3 hPa 0,0 l/m² 4,1 km/h (1 Bft) SW 232 ° 0 min 0 W/m² 13,6 °C 16,1 °C 6,4 km/h (2 Bft)
03.08.2025 03:32 22,4 °C 16,0 °C 60 % 85 % 1014,3 hPa 0,0 l/m² 1,8 km/h (1 Bft) SW 232 ° 0 min 0 W/m² 13,5 °C 16,0 °C 3,2 km/h (1 Bft)
03.08.2025 03:33 22,3 °C 16,1 °C 60 % 85 % 1014,4 hPa 0,0 l/m² 1,2 km/h (1 Bft) SW 232 ° 0 min 0 W/m² 13,6 °C 16,1 °C 3,2 km/h (1 Bft)
03.08.2025 03:35 22,4 °C 16,0 °C 60 % 85 % 1014,4 hPa 0,0 l/m² 2,9 km/h (1 Bft) SW 232 ° 0 min 0 W/m² 13,5 °C 16,0 °C 4,8 km/h (1 Bft)
03.08.2025 03:36 22,3 °C 16,0 °C 60 % 85 % 1014,4 hPa 0,0 l/m² 4,0 km/h (1 Bft) SW 232 ° 0 min 0 W/m² 13,5 °C 16,0 °C 4,8 km/h (1 Bft)
03.08.2025 03:37 22,4 °C 16,0 °C 60 % 85 % 1014,4 hPa 0,0 l/m² 3,6 km/h (1 Bft) SW 232 ° 0 min 0 W/m² 13,5 °C 16,0 °C 4,8 km/h (1 Bft)
03.08.2025 03:38 22,3 °C 16,0 °C 60 % 85 % 1014,4 hPa 0,0 l/m² 3,1 km/h (1 Bft) SW 232 ° 0 min 0 W/m² 13,5 °C 16,0 °C 4,8 km/h (1 Bft)
03.08.2025 03:39 22,3 °C 15,9 °C 60 % 85 % 1014,4 hPa 0,0 l/m² 3,1 km/h (1 Bft) SW 232 ° 0 min 0 W/m² 13,4 °C 15,9 °C 4,8 km/h (1 Bft)
03.08.2025 03:41 22,4 °C 15,9 °C 60 % 85 % 1014,4 hPa 0,0 l/m² 3,0 km/h (1 Bft) SW 232 ° 0 min 0 W/m² 13,4 °C 15,9 °C 4,8 km/h (1 Bft)
03.08.2025 03:42 22,4 °C 15,9 °C 60 % 85 % 1014,5 hPa 0,0 l/m² 3,2 km/h (1 Bft) SW 232 ° 0 min 0 W/m² 13,4 °C 15,9 °C 4,8 km/h (1 Bft)
03.08.2025 03:43 22,3 °C 15,9 °C 60 % 85 % 1014,4 hPa 0,0 l/m² 3,1 km/h (1 Bft) SW 232 ° 0 min 0 W/m² 13,4 °C 15,9 °C 4,8 km/h (1 Bft)
03.08.2025 03:44 22,3 °C 15,9 °C 60 % 85 % 1014,5 hPa 0,0 l/m² 4,7 km/h (1 Bft) SW 232 ° 0 min 0 W/m² 13,4 °C 15,9 °C 6,4 km/h (2 Bft)
03.08.2025 03:46 22,4 °C 15,9 °C 60 % 84 % 1014,5 hPa 0,0 l/m² 3,9 km/h (1 Bft) SW 232 ° 0 min 0 W/m² 13,2 °C 15,9 °C 6,4 km/h (2 Bft)
03.08.2025 03:47 22,4 °C 15,9 °C 60 % 84 % 1014,5 hPa 0,0 l/m² 4,1 km/h (1 Bft) SW 232 ° 0 min 0 W/m² 13,2 °C 15,9 °C 6,4 km/h (2 Bft)
03.08.2025 03:48 22,3 °C 15,9 °C 60 % 85 % 1014,5 hPa 0,0 l/m² 3,4 km/h (1 Bft) SW 232 ° 0 min 0 W/m² 13,4 °C 15,9 °C 4,8 km/h (1 Bft)
03.08.2025 03:49 22,4 °C 15,9 °C 60 % 84 % 1014,5 hPa 0,0 l/m² 4,5 km/h (1 Bft) SW 232 ° 0 min 0 W/m² 13,2 °C 15,9 °C 6,4 km/h (2 Bft)
03.08.2025 03:51 22,3 °C 15,9 °C 60 % 84 % 1014,5 hPa 0,0 l/m² 3,1 km/h (1 Bft) SW 232 ° 0 min 0 W/m² 13,2 °C 15,9 °C 4,8 km/h (1 Bft)
03.08.2025 03:52 22,3 °C 15,9 °C 60 % 84 % 1014,5 hPa 0,0 l/m² 3,3 km/h (1 Bft) SW 232 ° 0 min 0 W/m² 13,2 °C 15,9 °C 4,8 km/h (1 Bft)
03.08.2025 03:53 22,3 °C 15,9 °C 60 % 85 % 1014,5 hPa 0,0 l/m² 3,5 km/h (1 Bft) SW 232 ° 0 min 0 W/m² 13,4 °C 15,9 °C 4,8 km/h (1 Bft)
03.08.2025 03:54 22,3 °C 15,8 °C 60 % 85 % 1014,5 hPa 0,0 l/m² 4,8 km/h (1 Bft) SW 232 ° 0 min 0 W/m² 13,3 °C 15,8 °C 6,4 km/h (2 Bft)
03.08.2025 03:55 22,3 °C 15,8 °C 60 % 85 % 1014,5 hPa 0,0 l/m² 4,5 km/h (1 Bft) SW 232 ° 0 min 0 W/m² 13,3 °C 15,8 °C 4,8 km/h (1 Bft)
03.08.2025 03:56 22,3 °C 15,8 °C 60 % 85 % 1014,6 hPa 0,0 l/m² 4,7 km/h (1 Bft) SW 232 ° 0 min 0 W/m² 13,3 °C 15,8 °C 4,8 km/h (1 Bft)
03.08.2025 03:57 22,3 °C 15,8 °C 60 % 85 % 1014,5 hPa 0,0 l/m² 4,8 km/h (1 Bft) SW 232 ° 0 min 0 W/m² 13,3 °C 15,8 °C 6,4 km/h (2 Bft)
03.08.2025 03:58 22,4 °C 15,8 °C 60 % 85 % 1014,6 hPa 0,0 l/m² 3,3 km/h (1 Bft) SW 232 ° 0 min 0 W/m² 13,3 °C 15,8 °C 4,8 km/h (1 Bft)
03.08.2025 03:59 22,4 °C 15,8 °C 60 % 85 % 1014,6 hPa 0,0 l/m² 2,0 km/h (1 Bft) SW 232 ° 0 min 0 W/m² 13,3 °C 15,8 °C 3,2 km/h (1 Bft)
03.08.2025 04:01 22,3 °C 15,8 °C 60 % 85 % 1014,6 hPa 0,0 l/m² 3,7 km/h (1 Bft) SW 232 ° 0 min 0 W/m² 13,3 °C 15,8 °C 4,8 km/h (1 Bft)
03.08.2025 04:02 22,3 °C 15,8 °C 60 % 85 % 1014,5 hPa 0,0 l/m² 2,3 km/h (1 Bft) SW 232 ° 0 min 0 W/m² 13,3 °C 15,8 °C 4,8 km/h (1 Bft)
03.08.2025 04:03 22,4 °C 15,8 °C 60 % 85 % 1014,5 hPa 0,0 l/m² 3,7 km/h (1 Bft) SW 227 ° 0 min 0 W/m² 13,3 °C 15,8 °C 4,8 km/h (1 Bft)
03.08.2025 04:04 22,4 °C 15,8 °C 60 % 85 % 1014,6 hPa 0,0 l/m² 3,8 km/h (1 Bft) SW 225 ° 0 min 0 W/m² 13,3 °C 15,8 °C 4,8 km/h (1 Bft)
03.08.2025 04:05 22,4 °C 15,8 °C 60 % 85 % 1014,6 hPa 0,0 l/m² 4,1 km/h (1 Bft) SW 225 ° 0 min 0 W/m² 13,3 °C 15,8 °C 4,8 km/h (1 Bft)
03.08.2025 04:06 22,3 °C 15,8 °C 60 % 85 % 1014,6 hPa 0,0 l/m² 5,0 km/h (1 Bft) SW 225 ° 0 min 0 W/m² 13,3 °C 15,8 °C 6,4 km/h (2 Bft)
03.08.2025 04:07 22,3 °C 15,7 °C 60 % 85 % 1014,6 hPa 0,0 l/m² 4,2 km/h (1 Bft) SW 225 ° 0 min 0 W/m² 13,2 °C 15,7 °C 4,8 km/h (1 Bft)
03.08.2025 04:08 22,3 °C 15,7 °C 60 % 85 % 1014,6 hPa 0,0 l/m² 4,0 km/h (1 Bft) SW 225 ° 0 min 0 W/m² 13,2 °C 15,7 °C 4,8 km/h (1 Bft)
03.08.2025 04:09 22,4 °C 15,7 °C 60 % 85 % 1014,6 hPa 0,0 l/m² 3,9 km/h (1 Bft) SW 225 ° 0 min 0 W/m² 13,2 °C 15,7 °C 4,8 km/h (1 Bft)
03.08.2025 04:11 22,3 °C 15,7 °C 60 % 85 % 1014,6 hPa 0,0 l/m² 3,4 km/h (1 Bft) SW 225 ° 0 min 0 W/m² 13,2 °C 15,7 °C 4,8 km/h (1 Bft)
03.08.2025 04:12 22,3 °C 15,7 °C 60 % 85 % 1014,6 hPa 0,0 l/m² 2,4 km/h (1 Bft) SW 225 ° 0 min 0 W/m² 13,2 °C 15,7 °C 3,2 km/h (1 Bft)
03.08.2025 04:13 22,3 °C 15,7 °C 60 % 85 % 1014,7 hPa 0,0 l/m² 2,5 km/h (1 Bft) SW 225 ° 0 min 0 W/m² 13,2 °C 15,7 °C 3,2 km/h (1 Bft)
03.08.2025 04:14 22,3 °C 15,7 °C 60 % 85 % 1014,6 hPa 0,0 l/m² 2,0 km/h (1 Bft) SW 225 ° 0 min 0 W/m² 13,2 °C 15,7 °C 3,2 km/h (1 Bft)
03.08.2025 04:15 22,3 °C 15,7 °C 60 % 85 % 1014,6 hPa 0,0 l/m² 2,8 km/h (1 Bft) SW 225 ° 0 min 0 W/m² 13,2 °C 15,7 °C 3,2 km/h (1 Bft)
03.08.2025 04:16 22,3 °C 15,7 °C 60 % 85 % 1014,6 hPa 0,0 l/m² 2,4 km/h (1 Bft) SW 225 ° 0 min 0 W/m² 13,2 °C 15,7 °C 3,2 km/h (1 Bft)
03.08.2025 04:17 22,4 °C 15,6 °C 60 % 85 % 1014,7 hPa 0,0 l/m² 1,9 km/h (1 Bft) SW 225 ° 0 min 0 W/m² 13,1 °C 15,6 °C 3,2 km/h (1 Bft)
03.08.2025 04:18 22,3 °C 15,6 °C 60 % 85 % 1014,6 hPa 0,0 l/m² 2,3 km/h (1 Bft) SW 225 ° 0 min 0 W/m² 13,1 °C 15,6 °C 3,2 km/h (1 Bft)
03.08.2025 04:19 22,3 °C 15,6 °C 60 % 85 % 1014,7 hPa 0,0 l/m² 1,4 km/h (1 Bft) SW 225 ° 0 min 0 W/m² 13,1 °C 15,6 °C 1,6 km/h (1 Bft)
03.08.2025 04:21 22,3 °C 15,6 °C 60 % 85 % 1014,7 hPa 0,0 l/m² 0,9 km/h (0 Bft) SW 225 ° 0 min 0 W/m² 13,1 °C 15,6 °C 1,6 km/h (1 Bft)
03.08.2025 04:22 22,3 °C 15,6 °C 60 % 85 % 1014,7 hPa 0,0 l/m² 1,0 km/h (0 Bft) SW 225 ° 0 min 0 W/m² 13,1 °C 15,6 °C 1,6 km/h (1 Bft)
03.08.2025 04:23 22,3 °C 15,6 °C 60 % 85 % 1014,7 hPa 0,0 l/m² 0,9 km/h (0 Bft) SW 225 ° 0 min 0 W/m² 13,1 °C 15,6 °C 1,6 km/h (1 Bft)
03.08.2025 04:25 22,3 °C 15,6 °C 60 % 85 % 1014,7 hPa 0,0 l/m² 1,2 km/h (1 Bft) SW 225 ° 0 min 0 W/m² 13,1 °C 15,6 °C 1,6 km/h (1 Bft)
03.08.2025 04:26 22,3 °C 15,6 °C 60 % 85 % 1014,7 hPa 0,0 l/m² 1,5 km/h (1 Bft) SW 225 ° 0 min 0 W/m² 13,1 °C 15,6 °C 3,2 km/h (1 Bft)
03.08.2025 04:27 22,3 °C 15,6 °C 60 % 85 % 1014,7 hPa 0,0 l/m² 2,3 km/h (1 Bft) SW 225 ° 0 min 0 W/m² 13,1 °C 15,6 °C 3,2 km/h (1 Bft)
03.08.2025 04:28 22,3 °C 15,6 °C 60 % 85 % 1014,7 hPa 0,0 l/m² 1,9 km/h (1 Bft) SW 225 ° 0 min 0 W/m² 13,1 °C 15,6 °C 3,2 km/h (1 Bft)
03.08.2025 04:29 22,4 °C 15,5 °C 60 % 85 % 1014,7 hPa 0,0 l/m² 2,1 km/h (1 Bft) SW 225 ° 0 min 0 W/m² 13,0 °C 15,5 °C 3,2 km/h (1 Bft)
03.08.2025 04:30 22,4 °C 15,5 °C 60 % 85 % 1014,7 hPa 0,0 l/m² 2,3 km/h (1 Bft) SW 225 ° 0 min 0 W/m² 13,0 °C 15,5 °C 3,2 km/h (1 Bft)
03.08.2025 04:33 22,3 °C 15,5 °C 60 % 85 % 1014,7 hPa 0,0 l/m² 3,1 km/h (1 Bft) SW 226 ° 0 min 0 W/m² 13,0 °C 15,5 °C 6,4 km/h (2 Bft)
03.08.2025 04:34 22,4 °C 15,5 °C 60 % 85 % 1014,8 hPa 0,0 l/m² 4,2 km/h (1 Bft) SW 227 ° 0 min 0 W/m² 13,0 °C 15,5 °C 4,8 km/h (1 Bft)
03.08.2025 04:35 22,3 °C 15,4 °C 60 % 85 % 1014,8 hPa 0,0 l/m² 4,5 km/h (1 Bft) SW 227 ° 0 min 0 W/m² 12,9 °C 15,4 °C 4,8 km/h (1 Bft)
03.08.2025 04:36 22,4 °C 15,4 °C 60 % 85 % 1014,8 hPa 0,0 l/m² 2,3 km/h (1 Bft) SW 227 ° 0 min 0 W/m² 12,9 °C 15,4 °C 4,8 km/h (1 Bft)
03.08.2025 04:37 22,3 °C 15,4 °C 60 % 85 % 1014,8 hPa 0,0 l/m² 1,4 km/h (1 Bft) SW 227 ° 0 min 0 W/m² 12,9 °C 15,4 °C 3,2 km/h (1 Bft)
03.08.2025 04:38 22,3 °C 15,4 °C 60 % 85 % 1014,8 hPa 0,0 l/m² 3,5 km/h (1 Bft) SW 227 ° 0 min 0 W/m² 12,9 °C 15,4 °C 4,8 km/h (1 Bft)
03.08.2025 04:39 22,3 °C 15,4 °C 60 % 85 % 1014,7 hPa 0,0 l/m² 1,6 km/h (1 Bft) SW 227 ° 0 min 0 W/m² 12,9 °C 15,4 °C 4,8 km/h (1 Bft)
03.08.2025 04:41 22,3 °C 15,4 °C 60 % 85 % 1014,8 hPa 0,0 l/m² 3,7 km/h (1 Bft) SW 227 ° 0 min 0 W/m² 12,9 °C 15,4 °C 6,4 km/h (2 Bft)
03.08.2025 04:42 22,4 °C 15,4 °C 60 % 85 % 1014,7 hPa 0,0 l/m² 5,4 km/h (2 Bft) SW 227 ° 0 min 0 W/m² 12,9 °C 15,4 °C 6,4 km/h (2 Bft)
03.08.2025 04:43 22,3 °C 15,4 °C 60 % 85 % 1014,7 hPa 0,0 l/m² 5,7 km/h (2 Bft) SW 227 ° 0 min 0 W/m² 12,9 °C 15,4 °C 6,4 km/h (2 Bft)
03.08.2025 04:44 22,3 °C 15,4 °C 60 % 86 % 1014,7 hPa 0,0 l/m² 5,6 km/h (2 Bft) SW 227 ° 0 min 0 W/m² 13,1 °C 15,4 °C 6,4 km/h (2 Bft)
03.08.2025 04:45 22,4 °C 15,4 °C 60 % 86 % 1014,8 hPa 0,0 l/m² 4,9 km/h (1 Bft) SW 227 ° 0 min 0 W/m² 13,1 °C 15,4 °C 6,4 km/h (2 Bft)
03.08.2025 04:46 22,3 °C 15,4 °C 60 % 86 % 1014,8 hPa 0,0 l/m² 5,8 km/h (2 Bft) SW 225 ° 0 min 0 W/m² 13,1 °C 15,4 °C 6,4 km/h (2 Bft)
03.08.2025 04:47 22,3 °C 15,4 °C 60 % 86 % 1014,7 hPa 0,0 l/m² 5,1 km/h (1 Bft) SW 229 ° 0 min 0 W/m² 13,1 °C 15,4 °C 6,4 km/h (2 Bft)
03.08.2025 04:48 22,3 °C 15,4 °C 60 % 86 % 1014,8 hPa 0,0 l/m² 3,6 km/h (1 Bft) SW 229 ° 0 min 0 W/m² 13,1 °C 15,4 °C 4,8 km/h (1 Bft)
03.08.2025 04:49 22,3 °C 15,4 °C 60 % 86 % 1014,7 hPa 0,0 l/m² 3,7 km/h (1 Bft) SW 229 ° 0 min 0 W/m² 13,1 °C 15,4 °C 4,8 km/h (1 Bft)
03.08.2025 04:51 22,3 °C 15,3 °C 60 % 86 % 1014,7 hPa 0,0 l/m² 3,1 km/h (1 Bft) SW 230 ° 0 min 0 W/m² 13,0 °C 15,3 °C 4,8 km/h (1 Bft)
03.08.2025 04:52 22,3 °C 15,4 °C 60 % 86 % 1014,7 hPa 0,0 l/m² 4,0 km/h (1 Bft) SW 230 ° 0 min 0 W/m² 13,1 °C 15,4 °C 6,4 km/h (2 Bft)
03.08.2025 04:53 22,3 °C 15,3 °C 60 % 86 % 1014,8 hPa 0,0 l/m² 4,4 km/h (1 Bft) SW 231 ° 0 min 0 W/m² 13,0 °C 15,3 °C 6,4 km/h (2 Bft)
03.08.2025 04:55 22,3 °C 15,3 °C 60 % 86 % 1014,8 hPa 0,0 l/m² 3,1 km/h (1 Bft) SW 231 ° 0 min 0 W/m² 13,0 °C 15,3 °C 4,8 km/h (1 Bft)
03.08.2025 04:56 22,3 °C 15,3 °C 60 % 86 % 1014,8 hPa 0,0 l/m² 1,6 km/h (1 Bft) SW 231 ° 0 min 0 W/m² 13,0 °C 15,3 °C 3,2 km/h (1 Bft)
03.08.2025 04:57 22,3 °C 15,3 °C 60 % 86 % 1014,8 hPa 0,0 l/m² 0,0 km/h (0 Bft) SW 231 ° 0 min 0 W/m² 13,0 °C 15,3 °C 0,0 km/h (0 Bft)
03.08.2025 04:58 22,3 °C 15,3 °C 60 % 86 % 1014,8 hPa 0,0 l/m² 0,0 km/h (0 Bft) SW 230 ° 0 min 0 W/m² 13,0 °C 15,3 °C 0,0 km/h (0 Bft)
03.08.2025 04:59 22,3 °C 15,3 °C 60 % 86 % 1014,8 hPa 0,0 l/m² 0,0 km/h (0 Bft) SW 231 ° 0 min 0 W/m² 13,0 °C 15,3 °C 0,0 km/h (0 Bft)
03.08.2025 05:01 22,3 °C 15,3 °C 60 % 86 % 1014,8 hPa 0,0 l/m² 0,9 km/h (0 Bft) SW 231 ° 0 min 0 W/m² 13,0 °C 15,3 °C 3,2 km/h (1 Bft)
03.08.2025 05:02 22,3 °C 15,3 °C 60 % 86 % 1014,8 hPa 0,0 l/m² 0,2 km/h (0 Bft) SW 231 ° 0 min 0 W/m² 13,0 °C 15,3 °C 1,6 km/h (1 Bft)
03.08.2025 05:03 22,3 °C 15,3 °C 60 % 86 % 1014,8 hPa 0,0 l/m² 0,1 km/h (0 Bft) SW 231 ° 0 min 0 W/m² 13,0 °C 15,3 °C 1,6 km/h (1 Bft)
03.08.2025 05:04 22,3 °C 15,3 °C 60 % 86 % 1014,7 hPa 0,0 l/m² 1,4 km/h (1 Bft) SW 231 ° 0 min 0 W/m² 13,0 °C 15,3 °C 3,2 km/h (1 Bft)
03.08.2025 05:05 22,3 °C 15,3 °C 60 % 86 % 1014,7 hPa 0,0 l/m² 0,3 km/h (0 Bft) SW 230 ° 0 min 0 W/m² 13,0 °C 15,3 °C 1,6 km/h (1 Bft)
03.08.2025 05:06 22,3 °C 15,3 °C 60 % 86 % 1014,7 hPa 0,0 l/m² 0,4 km/h (0 Bft) SW 231 ° 0 min 0 W/m² 13,0 °C 15,3 °C 1,6 km/h (1 Bft)
03.08.2025 05:08 22,3 °C 15,2 °C 60 % 86 % 1014,7 hPa 0,0 l/m² 0,0 km/h (0 Bft) SW 231 ° 0 min 0 W/m² 12,9 °C 15,2 °C 1,6 km/h (1 Bft)
03.08.2025 05:09 22,3 °C 15,2 °C 60 % 86 % 1014,7 hPa 0,0 l/m² 0,6 km/h (0 Bft) SW 231 ° 0 min 0 W/m² 12,9 °C 15,2 °C 1,6 km/h (1 Bft)
03.08.2025 05:11 22,3 °C 15,2 °C 60 % 86 % 1014,7 hPa 0,0 l/m² 0,3 km/h (0 Bft) SW 230 ° 0 min 0 W/m² 12,9 °C 15,2 °C 1,6 km/h (1 Bft)
03.08.2025 05:12 22,3 °C 15,2 °C 60 % 86 % 1014,7 hPa 0,0 l/m² 0,4 km/h (0 Bft) SW 231 ° 0 min 0 W/m² 12,9 °C 15,2 °C 1,6 km/h (1 Bft)
03.08.2025 05:13 22,3 °C 15,2 °C 60 % 86 % 1014,7 hPa 0,0 l/m² 0,0 km/h (0 Bft) SW 230 ° 0 min 0 W/m² 12,9 °C 15,2 °C 0,0 km/h (0 Bft)
03.08.2025 05:14 22,3 °C 15,2 °C 60 % 86 % 1014,7 hPa 0,0 l/m² 0,2 km/h (0 Bft) SW 231 ° 0 min 0 W/m² 12,9 °C 15,2 °C 1,6 km/h (1 Bft)
03.08.2025 05:15 22,3 °C 15,2 °C 60 % 86 % 1014,7 hPa 0,0 l/m² 1,2 km/h (1 Bft) SW 230 ° 0 min 0 W/m² 12,9 °C 15,2 °C 1,6 km/h (1 Bft)
03.08.2025 05:17 22,3 °C 15,2 °C 60 % 86 % 1014,8 hPa 0,0 l/m² 0,1 km/h (0 Bft) SW 231 ° 0 min 0 W/m² 12,9 °C 15,2 °C 1,6 km/h (1 Bft)
03.08.2025 05:18 22,3 °C 15,2 °C 60 % 86 % 1014,8 hPa 0,0 l/m² 1,2 km/h (1 Bft) SW 231 ° 0 min 0 W/m² 12,9 °C 15,2 °C 3,2 km/h (1 Bft)
03.08.2025 05:19 22,3 °C 15,2 °C 60 % 86 % 1014,8 hPa 0,0 l/m² 0,3 km/h (0 Bft) SW 231 ° 0 min 0 W/m² 12,9 °C 15,2 °C 1,6 km/h (1 Bft)
03.08.2025 05:21 22,3 °C 15,2 °C 60 % 86 % 1014,9 hPa 0,0 l/m² 0,9 km/h (0 Bft) SW 230 ° 0 min 0 W/m² 12,9 °C 15,2 °C 3,2 km/h (1 Bft)
03.08.2025 05:22 22,3 °C 15,1 °C 60 % 86 % 1014,8 hPa 0,0 l/m² 2,7 km/h (1 Bft) SW 231 ° 0 min 0 W/m² 12,8 °C 15,1 °C 4,8 km/h (1 Bft)
03.08.2025 05:23 22,3 °C 15,2 °C 60 % 86 % 1014,8 hPa 0,0 l/m² 3,6 km/h (1 Bft) SW 231 ° 0 min 0 W/m² 12,9 °C 15,2 °C 4,8 km/h (1 Bft)
03.08.2025 05:25 22,3 °C 15,2 °C 60 % 86 % 1014,9 hPa 0,0 l/m² 4,1 km/h (1 Bft) SW 231 ° 0 min 0 W/m² 12,9 °C 15,2 °C 6,4 km/h (2 Bft)
03.08.2025 05:26 22,3 °C 15,2 °C 60 % 86 % 1014,8 hPa 0,0 l/m² 5,3 km/h (1 Bft) W-SW 247 ° 0 min 0 W/m² 12,9 °C 15,2 °C 6,4 km/h (2 Bft)
03.08.2025 05:27 22,3 °C 15,1 °C 60 % 86 % 1014,8 hPa 0,0 l/m² 5,8 km/h (2 Bft) W-SW 248 ° 0 min 0 W/m² 12,8 °C 15,1 °C 6,4 km/h (2 Bft)
03.08.2025 05:28 22,3 °C 15,2 °C 60 % 86 % 1014,9 hPa 0,0 l/m² 6,0 km/h (2 Bft) W-SW 248 ° 0 min 0 W/m² 12,9 °C 15,2 °C 8,0 km/h (2 Bft)
03.08.2025 05:29 22,3 °C 15,1 °C 60 % 86 % 1014,9 hPa 0,0 l/m² 5,9 km/h (2 Bft) W-SW 248 ° 0 min 0 W/m² 12,8 °C 15,1 °C 8,0 km/h (2 Bft)
03.08.2025 05:31 22,3 °C 15,1 °C 60 % 86 % 1015,0 hPa 0,0 l/m² 5,9 km/h (2 Bft) W-SW 242 ° 0 min 0 W/m² 12,8 °C 15,1 °C 8,0 km/h (2 Bft)
03.08.2025 05:32 22,3 °C 15,2 °C 60 % 86 % 1014,9 hPa 0,0 l/m² 5,0 km/h (1 Bft) W-SW 242 ° 0 min 0 W/m² 12,9 °C 15,2 °C 6,4 km/h (2 Bft)
03.08.2025 05:33 22,3 °C 15,2 °C 60 % 86 % 1014,9 hPa 0,0 l/m² 5,6 km/h (2 Bft) W-SW 245 ° 0 min 0 W/m² 12,9 °C 15,2 °C 8,0 km/h (2 Bft)
03.08.2025 05:35 22,3 °C 15,1 °C 60 % 86 % 1014,8 hPa 0,0 l/m² 4,2 km/h (1 Bft) W-SW 247 ° 0 min 0 W/m² 12,8 °C 15,1 °C 6,4 km/h (2 Bft)
03.08.2025 05:36 22,3 °C 15,1 °C 60 % 86 % 1014,9 hPa 0,0 l/m² 4,6 km/h (1 Bft) W-SW 256 ° 0 min 0 W/m² 12,8 °C 15,1 °C 8,0 km/h (2 Bft)
03.08.2025 05:37 22,3 °C 15,1 °C 60 % 86 % 1014,8 hPa 0,0 l/m² 5,5 km/h (2 Bft) W-SW 258 ° 0 min 0 W/m² 12,8 °C 15,1 °C 6,4 km/h (2 Bft)
03.08.2025 05:38 22,3 °C 15,1 °C 60 % 86 % 1014,8 hPa 0,0 l/m² 3,1 km/h (1 Bft) W-SW 258 ° 0 min 0 W/m² 12,8 °C 15,1 °C 4,8 km/h (1 Bft)
03.08.2025 05:39 22,3 °C 15,1 °C 60 % 86 % 1014,9 hPa 0,0 l/m² 3,6 km/h (1 Bft) W-SW 258 ° 0 min 0 W/m² 12,8 °C 15,1 °C 4,8 km/h (1 Bft)
03.08.2025 05:41 22,3 °C 15,1 °C 60 % 86 % 1014,8 hPa 0,0 l/m² 3,0 km/h (1 Bft) W-SW 258 ° 0 min 0 W/m² 12,8 °C 15,1 °C 4,8 km/h (1 Bft)
03.08.2025 05:42 22,3 °C 15,1 °C 60 % 86 % 1014,8 hPa 0,0 l/m² 2,4 km/h (1 Bft) W 259 ° 0 min 0 W/m² 12,8 °C 15,1 °C 4,8 km/h (1 Bft)
03.08.2025 05:43 22,3 °C 15,0 °C 60 % 86 % 1014,7 hPa 0,0 l/m² 0,6 km/h (0 Bft) W 259 ° 0 min 0 W/m² 12,7 °C 15,0 °C 1,6 km/h (1 Bft)
03.08.2025 05:44 22,3 °C 15,1 °C 60 % 86 % 1014,7 hPa 0,0 l/m² 1,3 km/h (1 Bft) W 259 ° 0 min 0 W/m² 12,8 °C 15,1 °C 1,6 km/h (1 Bft)
03.08.2025 05:45 22,3 °C 15,1 °C 60 % 86 % 1014,8 hPa 0,0 l/m² 0,2 km/h (0 Bft) W 259 ° 0 min 0 W/m² 12,8 °C 15,1 °C 1,6 km/h (1 Bft)
03.08.2025 05:46 22,3 °C 15,0 °C 60 % 86 % 1014,7 hPa 0,0 l/m² 0,8 km/h (0 Bft) W 259 ° 0 min 0 W/m² 12,7 °C 15,0 °C 1,6 km/h (1 Bft)
03.08.2025 05:47 22,3 °C 15,0 °C 60 % 86 % 1014,7 hPa 0,0 l/m² 0,4 km/h (0 Bft) W 259 ° 0 min 5 W/m² 12,7 °C 15,0 °C 1,6 km/h (1 Bft)
03.08.2025 05:48 22,3 °C 15,0 °C 60 % 86 % 1014,8 hPa 0,0 l/m² 1,4 km/h (1 Bft) W 259 ° 0 min 5 W/m² 12,7 °C 15,0 °C 3,2 km/h (1 Bft)
03.08.2025 05:49 22,3 °C 14,9 °C 60 % 86 % 1014,8 hPa 0,0 l/m² 0,0 km/h (0 Bft) W 259 ° 0 min 5 W/m² 12,6 °C 14,9 °C 0,0 km/h (0 Bft)
03.08.2025 05:51 22,3 °C 15,0 °C 60 % 86 % 1014,8 hPa 0,0 l/m² 0,0 km/h (0 Bft) W 259 ° 0 min 5 W/m² 12,7 °C 15,0 °C 1,6 km/h (1 Bft)
03.08.2025 05:52 22,3 °C 15,0 °C 60 % 86 % 1014,8 hPa 0,0 l/m² 0,5 km/h (0 Bft) W 259 ° 0 min 5 W/m² 12,7 °C 15,0 °C 1,6 km/h (1 Bft)
03.08.2025 05:53 22,3 °C 14,9 °C 60 % 86 % 1014,7 hPa 0,0 l/m² 0,4 km/h (0 Bft) W 259 ° 0 min 5 W/m² 12,6 °C 14,9 °C 1,6 km/h (1 Bft)
03.08.2025 05:54 22,3 °C 14,9 °C 60 % 86 % 1014,7 hPa 0,0 l/m² 0,9 km/h (0 Bft) W 259 ° 0 min 5 W/m² 12,6 °C 14,9 °C 3,2 km/h (1 Bft)
03.08.2025 05:55 22,3 °C 14,9 °C 60 % 86 % 1014,8 hPa 0,0 l/m² 0,2 km/h (0 Bft) W 259 ° 0 min 5 W/m² 12,6 °C 14,9 °C 1,6 km/h (1 Bft)
03.08.2025 05:56 22,3 °C 14,9 °C 60 % 86 % 1014,7 hPa 0,0 l/m² 0,7 km/h (0 Bft) W 259 ° 0 min 5 W/m² 12,6 °C 14,9 °C 1,6 km/h (1 Bft)
03.08.2025 05:57 22,3 °C 14,9 °C 60 % 86 % 1014,8 hPa 0,0 l/m² 0,4 km/h (0 Bft) W 259 ° 0 min 7 W/m² 12,6 °C 14,9 °C 1,6 km/h (1 Bft)
03.08.2025 05:58 22,3 °C 14,9 °C 60 % 86 % 1014,8 hPa 0,0 l/m² 1,0 km/h (0 Bft) W 259 ° 0 min 7 W/m² 12,6 °C 14,9 °C 1,6 km/h (1 Bft)
03.08.2025 05:59 22,3 °C 14,9 °C 60 % 86 % 1014,8 hPa 0,0 l/m² 1,9 km/h (1 Bft) W 259 ° 0 min 7 W/m² 12,6 °C 14,9 °C 3,2 km/h (1 Bft)
03.08.2025 06:01 22,3 °C 14,8 °C 60 % 86 % 1014,9 hPa 0,0 l/m² 0,3 km/h (0 Bft) W 259 ° 0 min 7 W/m² 12,5 °C 14,8 °C 3,2 km/h (1 Bft)
03.08.2025 06:02 22,3 °C 14,8 °C 60 % 86 % 1014,8 hPa 0,0 l/m² 0,1 km/h (0 Bft) W 259 ° 0 min 9 W/m² 12,5 °C 14,8 °C 1,6 km/h (1 Bft)
03.08.2025 06:03 22,3 °C 14,8 °C 60 % 86 % 1014,9 hPa 0,0 l/m² 0,3 km/h (0 Bft) W 259 ° 0 min 9 W/m² 12,5 °C 14,8 °C 1,6 km/h (1 Bft)
03.08.2025 06:05 22,3 °C 14,8 °C 60 % 86 % 1014,9 hPa 0,0 l/m² 0,9 km/h (0 Bft) W 259 ° 0 min 9 W/m² 12,5 °C 14,8 °C 3,2 km/h (1 Bft)
03.08.2025 06:06 22,3 °C 14,8 °C 60 % 86 % 1014,8 hPa 0,0 l/m² 1,0 km/h (0 Bft) W 259 ° 0 min 9 W/m² 12,5 °C 14,8 °C 3,2 km/h (1 Bft)
03.08.2025 06:07 22,3 °C 14,8 °C 60 % 86 % 1014,8 hPa 0,0 l/m² 0,5 km/h (0 Bft) W 259 ° 0 min 9 W/m² 12,5 °C 14,8 °C 1,6 km/h (1 Bft)
03.08.2025 06:08 22,3 °C 14,8 °C 60 % 86 % 1014,9 hPa 0,0 l/m² 1,0 km/h (0 Bft) W 259 ° 0 min 11 W/m² 12,5 °C 14,8 °C 3,2 km/h (1 Bft)
03.08.2025 06:09 22,3 °C 14,7 °C 60 % 86 % 1014,9 hPa 0,0 l/m² 1,4 km/h (1 Bft) W 259 ° 0 min 11 W/m² 12,4 °C 14,7 °C 3,2 km/h (1 Bft)
03.08.2025 06:11 22,3 °C 14,7 °C 60 % 86 % 1014,9 hPa 0,0 l/m² 2,2 km/h (1 Bft) W 259 ° 0 min 12 W/m² 12,4 °C 14,7 °C 3,2 km/h (1 Bft)
03.08.2025 06:12 22,3 °C 14,7 °C 60 % 86 % 1014,9 hPa 0,0 l/m² 2,0 km/h (1 Bft) W 259 ° 0 min 12 W/m² 12,4 °C 14,7 °C 3,2 km/h (1 Bft)
03.08.2025 06:13 22,3 °C 14,7 °C 60 % 86 % 1014,9 hPa 0,0 l/m² 2,7 km/h (1 Bft) W 259 ° 0 min 12 W/m² 12,4 °C 14,7 °C 3,2 km/h (1 Bft)
03.08.2025 06:15 22,3 °C 14,7 °C 60 % 86 % 1014,9 hPa 0,0 l/m² 3,7 km/h (1 Bft) W-NW 300 ° 0 min 14 W/m² 12,4 °C 14,7 °C 6,4 km/h (2 Bft)
03.08.2025 06:16 22,3 °C 14,6 °C 60 % 86 % 1014,8 hPa 0,0 l/m² 3,9 km/h (1 Bft) NW 304 ° 0 min 16 W/m² 12,3 °C 14,6 °C 4,8 km/h (1 Bft)
03.08.2025 06:17 22,3 °C 14,6 °C 60 % 86 % 1014,9 hPa 0,0 l/m² 4,4 km/h (1 Bft) NW 306 ° 0 min 16 W/m² 12,3 °C 14,6 °C 6,4 km/h (2 Bft)
03.08.2025 06:18 22,3 °C 14,6 °C 60 % 86 % 1014,9 hPa 0,0 l/m² 4,7 km/h (1 Bft) NW 315 ° 0 min 18 W/m² 12,3 °C 14,6 °C 6,4 km/h (2 Bft)
03.08.2025 06:19 22,3 °C 14,6 °C 60 % 86 % 1014,9 hPa 0,0 l/m² 3,5 km/h (1 Bft) NW 315 ° 0 min 18 W/m² 12,3 °C 14,6 °C 6,4 km/h (2 Bft)
03.08.2025 06:21 22,3 °C 14,5 °C 60 % 86 % 1014,9 hPa 0,0 l/m² 3,6 km/h (1 Bft) NW 314 ° 0 min 19 W/m² 12,2 °C 14,5 °C 6,4 km/h (2 Bft)
03.08.2025 06:22 22,3 °C 14,6 °C 60 % 86 % 1015,0 hPa 0,0 l/m² 2,8 km/h (1 Bft) NW 314 ° 0 min 21 W/m² 12,3 °C 14,6 °C 6,4 km/h (2 Bft)
03.08.2025 06:23 22,3 °C 14,5 °C 60 % 86 % 1014,9 hPa 0,0 l/m² 0,3 km/h (0 Bft) NW 314 ° 0 min 23 W/m² 12,2 °C 14,5 °C 1,6 km/h (1 Bft)
03.08.2025 06:24 22,3 °C 14,5 °C 60 % 86 % 1014,9 hPa 0,0 l/m² 2,2 km/h (1 Bft) NW 313 ° 0 min 28 W/m² 12,2 °C 14,5 °C 3,2 km/h (1 Bft)
03.08.2025 06:25 22,3 °C 14,5 °C 60 % 86 % 1015,0 hPa 0,0 l/m² 0,6 km/h (0 Bft) NW 313 ° 0 min 28 W/m² 12,2 °C 14,5 °C 1,6 km/h (1 Bft)
03.08.2025 06:26 22,3 °C 14,5 °C 60 % 86 % 1015,0 hPa 0,0 l/m² 0,6 km/h (0 Bft) NW 313 ° 0 min 30 W/m² 12,2 °C 14,5 °C 1,6 km/h (1 Bft)
03.08.2025 06:27 22,3 °C 14,4 °C 60 % 86 % 1015,0 hPa 0,0 l/m² 0,1 km/h (0 Bft) NW 313 ° 0 min 26 W/m² 12,1 °C 14,4 °C 1,6 km/h (1 Bft)
03.08.2025 06:28 22,3 °C 14,4 °C 60 % 86 % 1015,0 hPa 0,0 l/m² 0,5 km/h (0 Bft) NW 314 ° 0 min 26 W/m² 12,1 °C 14,4 °C 1,6 km/h (1 Bft)
03.08.2025 06:29 22,3 °C 14,4 °C 60 % 86 % 1015,0 hPa 0,0 l/m² 2,5 km/h (1 Bft) NW 313 ° 0 min 32 W/m² 12,1 °C 14,4 °C 3,2 km/h (1 Bft)
03.08.2025 06:31 22,3 °C 14,4 °C 60 % 86 % 1015,0 hPa 0,0 l/m² 0,3 km/h (0 Bft) NW 313 ° 0 min 40 W/m² 12,1 °C 14,4 °C 1,6 km/h (1 Bft)
03.08.2025 06:32 22,3 °C 14,4 °C 60 % 86 % 1015,1 hPa 0,0 l/m² 0,0 km/h (0 Bft) NW 313 ° 0 min 40 W/m² 12,1 °C 14,4 °C 0,0 km/h (0 Bft)
03.08.2025 06:33 22,3 °C 14,4 °C 60 % 86 % 1015,1 hPa 0,0 l/m² 0,0 km/h (0 Bft) NW 313 ° 0 min 40 W/m² 12,1 °C 14,4 °C 0,0 km/h (0 Bft)
03.08.2025 06:34 22,3 °C 14,4 °C 60 % 86 % 1015,0 hPa 0,0 l/m² 0,0 km/h (0 Bft) NW 313 ° 0 min 40 W/m² 12,1 °C 14,4 °C 0,0 km/h (0 Bft)
03.08.2025 06:35 22,3 °C 14,4 °C 60 % 86 % 1015,1 hPa 0,0 l/m² 0,0 km/h (0 Bft) NW 313 ° 0 min 44 W/m² 12,1 °C 14,4 °C 0,0 km/h (0 Bft)
03.08.2025 06:36 22,3 °C 14,4 °C 60 % 86 % 1015,2 hPa 0,0 l/m² 0,0 km/h (0 Bft) NW 312 ° 0 min 49 W/m² 12,1 °C 14,4 °C 0,0 km/h (0 Bft)
03.08.2025 06:37 22,3 °C 14,3 °C 60 % 86 % 1015,2 hPa 0,0 l/m² 0,0 km/h (0 Bft) NW 310 ° 0 min 47 W/m² 12,0 °C 14,3 °C 0,0 km/h (0 Bft)
03.08.2025 06:38 22,3 °C 14,3 °C 60 % 86 % 1015,2 hPa 0,0 l/m² 0,0 km/h (0 Bft) NW 310 ° 0 min 39 W/m² 12,0 °C 14,3 °C 0,0 km/h (0 Bft)
03.08.2025 06:39 22,3 °C 14,4 °C 60 % 86 % 1015,1 hPa 0,0 l/m² 0,0 km/h (0 Bft) NW 308 ° 0 min 46 W/m² 12,1 °C 14,4 °C 0,0 km/h (0 Bft)
03.08.2025 06:41 22,3 °C 14,3 °C 60 % 86 % 1015,2 hPa 0,0 l/m² 0,0 km/h (0 Bft) NW 308 ° 0 min 49 W/m² 12,0 °C 14,3 °C 0,0 km/h (0 Bft)
03.08.2025 06:42 22,3 °C 14,3 °C 60 % 86 % 1015,2 hPa 0,0 l/m² 0,0 km/h (0 Bft) NW 308 ° 0 min 42 W/m² 12,0 °C 14,3 °C 0,0 km/h (0 Bft)
03.08.2025 06:43 22,3 °C 14,3 °C 60 % 86 % 1015,2 hPa 0,0 l/m² 0,0 km/h (0 Bft) NW 308 ° 0 min 44 W/m² 12,0 °C 14,3 °C 0,0 km/h (0 Bft)
03.08.2025 06:44 22,3 °C 14,3 °C 60 % 86 % 1015,1 hPa 0,0 l/m² 0,0 km/h (0 Bft) NW 308 ° 1 min 62 W/m² 12,0 °C 14,3 °C 0,0 km/h (0 Bft)
03.08.2025 06:46 22,3 °C 14,3 °C 60 % 86 % 1015,2 hPa 0,0 l/m² 0,0 km/h (0 Bft) NW 308 ° 2 min 63 W/m² 12,0 °C 14,3 °C 0,0 km/h (0 Bft)
03.08.2025 06:47 22,3 °C 14,3 °C 60 % 87 % 1015,2 hPa 0,0 l/m² 0,0 km/h (0 Bft) NW 308 ° 1 min 63 W/m² 12,2 °C 14,3 °C 0,0 km/h (0 Bft)
03.08.2025 06:48 22,3 °C 14,3 °C 60 % 86 % 1015,2 hPa 0,0 l/m² 0,0 km/h (0 Bft) NW 308 ° 1 min 67 W/m² 12,0 °C 14,3 °C 0,0 km/h (0 Bft)
03.08.2025 06:49 22,3 °C 14,3 °C 60 % 87 % 1015,2 hPa 0,0 l/m² 0,0 km/h (0 Bft) NW 308 ° 1 min 76 W/m² 12,2 °C 14,3 °C 0,0 km/h (0 Bft)
03.08.2025 06:51 22,3 °C 14,3 °C 60 % 86 % 1015,2 hPa 0,0 l/m² 0,0 km/h (0 Bft) NW 308 ° 2 min 88 W/m² 12,0 °C 14,3 °C 0,0 km/h (0 Bft)
03.08.2025 06:52 22,3 °C 14,3 °C 60 % 87 % 1015,2 hPa 0,0 l/m² 0,0 km/h (0 Bft) NW 308 ° 1 min 88 W/m² 12,2 °C 14,3 °C 0,0 km/h (0 Bft)
03.08.2025 06:53 22,3 °C 14,3 °C 60 % 87 % 1015,2 hPa 0,0 l/m² 0,0 km/h (0 Bft) NW 308 ° 1 min 77 W/m² 12,2 °C 14,3 °C 0,0 km/h (0 Bft)
03.08.2025 06:54 22,3 °C 14,3 °C 60 % 87 % 1015,3 hPa 0,0 l/m² 0,0 km/h (0 Bft) NW 308 ° 1 min 58 W/m² 12,2 °C 14,3 °C 0,0 km/h (0 Bft)
03.08.2025 06:55 22,3 °C 14,3 °C 60 % 87 % 1015,3 hPa 0,0 l/m² 0,0 km/h (0 Bft) NW 308 ° 0 min 47 W/m² 12,2 °C 14,3 °C 0,0 km/h (0 Bft)
03.08.2025 06:56 22,3 °C 14,3 °C 60 % 87 % 1015,3 hPa 0,0 l/m² 0,0 km/h (0 Bft) NW 308 ° 0 min 49 W/m² 12,2 °C 14,3 °C 0,0 km/h (0 Bft)
03.08.2025 06:57 22,3 °C 14,3 °C 60 % 87 % 1015,3 hPa 0,0 l/m² 0,0 km/h (0 Bft) NW 308 ° 0 min 51 W/m² 12,2 °C 14,3 °C 0,0 km/h (0 Bft)
03.08.2025 06:58 22,3 °C 14,3 °C 60 % 87 % 1015,3 hPa 0,0 l/m² 0,0 km/h (0 Bft) NW 308 ° 1 min 53 W/m² 12,2 °C 14,3 °C 0,0 km/h (0 Bft)
03.08.2025 06:59 22,3 °C 14,3 °C 60 % 87 % 1015,3 hPa 0,0 l/m² 0,0 km/h (0 Bft) NW 308 ° 1 min 54 W/m² 12,2 °C 14,3 °C 0,0 km/h (0 Bft)
03.08.2025 07:01 22,3 °C 14,3 °C 60 % 87 % 1015,4 hPa 0,0 l/m² 0,0 km/h (0 Bft) W 281 ° 2 min 65 W/m² 12,2 °C 14,3 °C 0,0 km/h (0 Bft)
03.08.2025 07:02 22,3 °C 14,4 °C 60 % 87 % 1015,4 hPa 0,0 l/m² 0,0 km/h (0 Bft) W 281 ° 1 min 72 W/m² 12,3 °C 14,4 °C 0,0 km/h (0 Bft)
03.08.2025 07:03 22,3 °C 14,4 °C 60 % 87 % 1015,4 hPa 0,0 l/m² 0,0 km/h (0 Bft) W 281 ° 1 min 84 W/m² 12,3 °C 14,4 °C 0,0 km/h (0 Bft)
03.08.2025 07:05 22,3 °C 14,4 °C 60 % 87 % 1015,3 hPa 0,0 l/m² 1,4 km/h (1 Bft) W-NW 285 ° 2 min 139 W/m² 12,3 °C 14,4 °C 4,8 km/h (1 Bft)
03.08.2025 07:06 22,3 °C 14,4 °C 60 % 87 % 1015,4 hPa 0,0 l/m² 1,8 km/h (1 Bft) SW 227 ° 1 min 151 W/m² 12,3 °C 14,4 °C 4,8 km/h (1 Bft)
03.08.2025 07:08 22,3 °C 14,5 °C 60 % 87 % 1015,4 hPa 0,0 l/m² 3,8 km/h (1 Bft) W-SW 243 ° 2 min 132 W/m² 12,4 °C 14,5 °C 9,7 km/h (2 Bft)
03.08.2025 07:09 22,3 °C 14,6 °C 60 % 88 % 1015,4 hPa 0,0 l/m² 1,9 km/h (1 Bft) W-SW 242 ° 1 min 142 W/m² 12,6 °C 14,6 °C 3,2 km/h (1 Bft)
03.08.2025 07:11 22,3 °C 14,6 °C 60 % 88 % 1015,5 hPa 0,0 l/m² 5,7 km/h (2 Bft) S-SW 213 ° 2 min 167 W/m² 12,6 °C 14,6 °C 11,3 km/h (2 Bft)
03.08.2025 07:12 22,3 °C 14,7 °C 60 % 88 % 1015,5 hPa 0,0 l/m² 9,4 km/h (2 Bft) W-SW 238 ° 1 min 165 W/m² 12,7 °C 13,1 °C 11,3 km/h (2 Bft)
03.08.2025 07:13 22,3 °C 14,7 °C 60 % 88 % 1015,5 hPa 0,0 l/m² 8,0 km/h (2 Bft) W-SW 238 ° 1 min 116 W/m² 12,7 °C 13,8 °C 12,9 km/h (3 Bft)
03.08.2025 07:15 22,3 °C 14,8 °C 60 % 88 % 1015,6 hPa 0,0 l/m² 6,2 km/h (2 Bft) SW 225 ° 2 min 97 W/m² 12,8 °C 14,8 °C 11,3 km/h (2 Bft)
03.08.2025 07:16 22,3 °C 14,8 °C 60 % 88 % 1015,6 hPa 0,0 l/m² 5,4 km/h (2 Bft) W-SW 243 ° 1 min 76 W/m² 12,8 °C 14,8 °C 8,0 km/h (2 Bft)
03.08.2025 07:17 22,3 °C 14,9 °C 60 % 88 % 1015,6 hPa 0,0 l/m² 4,8 km/h (1 Bft) W-SW 252 ° 1 min 63 W/m² 12,9 °C 14,9 °C 6,4 km/h (2 Bft)
03.08.2025 07:18 22,3 °C 14,9 °C 60 % 88 % 1015,5 hPa 0,0 l/m² 8,7 km/h (2 Bft) SW 236 ° 1 min 62 W/m² 12,9 °C 13,6 °C 11,3 km/h (2 Bft)
03.08.2025 07:19 22,3 °C 14,9 °C 60 % 88 % 1015,6 hPa 0,0 l/m² 6,5 km/h (2 Bft) W-SW 240 ° 1 min 54 W/m² 12,9 °C 14,9 °C 8,0 km/h (2 Bft)
03.08.2025 07:21 22,3 °C 15,1 °C 60 % 88 % 1015,5 hPa 0,0 l/m² 7,7 km/h (2 Bft) W-SW 238 ° 0 min 46 W/m² 13,1 °C 14,4 °C 9,7 km/h (2 Bft)
03.08.2025 07:22 22,3 °C 15,1 °C 60 % 88 % 1015,6 hPa 0,0 l/m² 9,5 km/h (2 Bft) W-SW 257 ° 0 min 46 W/m² 13,1 °C 13,5 °C 12,9 km/h (3 Bft)
03.08.2025 07:23 22,3 °C 15,1 °C 60 % 88 % 1015,6 hPa 0,0 l/m² 7,5 km/h (2 Bft) W-SW 241 ° 0 min 47 W/m² 13,1 °C 14,5 °C 12,9 km/h (3 Bft)
03.08.2025 07:25 22,3 °C 15,1 °C 60 % 88 % 1015,6 hPa 0,0 l/m² 6,6 km/h (2 Bft) W-SW 243 ° 2 min 56 W/m² 13,1 °C 15,0 °C 9,7 km/h (2 Bft)
03.08.2025 07:26 22,3 °C 15,2 °C 60 % 88 % 1015,7 hPa 0,0 l/m² 8,2 km/h (2 Bft) W-SW 247 ° 1 min 60 W/m² 13,2 °C 14,2 °C 12,9 km/h (3 Bft)
03.08.2025 07:27 22,3 °C 15,2 °C 60 % 88 % 1015,7 hPa 0,0 l/m² 9,5 km/h (2 Bft) W-SW 252 ° 1 min 63 W/m² 13,2 °C 13,6 °C 14,5 km/h (3 Bft)
03.08.2025 07:28 22,3 °C 15,2 °C 60 % 88 % 1015,6 hPa 0,0 l/m² 7,9 km/h (2 Bft) W-SW 253 ° 1 min 69 W/m² 13,2 °C 14,4 °C 11,3 km/h (2 Bft)
03.08.2025 07:29 22,3 °C 15,2 °C 60 % 88 % 1015,7 hPa 0,0 l/m² 7,0 km/h (2 Bft) W-SW 255 ° 1 min 81 W/m² 13,2 °C 14,9 °C 9,7 km/h (2 Bft)
03.08.2025 07:31 22,3 °C 15,2 °C 60 % 88 % 1015,7 hPa 0,0 l/m² 8,2 km/h (2 Bft) W-SW 252 ° 2 min 128 W/m² 13,2 °C 14,2 °C 14,5 km/h (3 Bft)
03.08.2025 07:32 22,3 °C 15,3 °C 60 % 87 % 1015,7 hPa 0,0 l/m² 7,3 km/h (2 Bft) W-SW 244 ° 1 min 178 W/m² 13,1 °C 14,8 °C 11,3 km/h (2 Bft)
03.08.2025 07:33 22,3 °C 15,3 °C 60 % 87 % 1015,7 hPa 0,0 l/m² 7,2 km/h (2 Bft) W-SW 238 ° 1 min 120 W/m² 13,1 °C 14,9 °C 11,3 km/h (2 Bft)
03.08.2025 07:34 22,3 °C 15,3 °C 60 % 87 % 1015,7 hPa 0,0 l/m² 7,6 km/h (2 Bft) W-SW 239 ° 1 min 169 W/m² 13,1 °C 14,6 °C 9,7 km/h (2 Bft)
03.08.2025 07:35 22,3 °C 15,3 °C 60 % 87 % 1015,6 hPa 0,0 l/m² 7,2 km/h (2 Bft) W-SW 248 ° 1 min 127 W/m² 13,1 °C 14,9 °C 8,0 km/h (2 Bft)
03.08.2025 07:36 22,3 °C 15,3 °C 60 % 87 % 1015,6 hPa 0,0 l/m² 6,4 km/h (2 Bft) SW 236 ° 1 min 91 W/m² 13,1 °C 15,3 °C 11,3 km/h (2 Bft)
03.08.2025 07:37 22,3 °C 15,3 °C 60 % 87 % 1015,6 hPa 0,0 l/m² 5,5 km/h (2 Bft) W-SW 255 ° 1 min 83 W/m² 13,1 °C 15,3 °C 8,0 km/h (2 Bft)
03.08.2025 07:38 22,3 °C 15,4 °C 60 % 87 % 1015,7 hPa 0,0 l/m² 5,8 km/h (2 Bft) W-SW 255 ° 1 min 65 W/m² 13,2 °C 15,4 °C 11,3 km/h (2 Bft)
03.08.2025 07:39 22,3 °C 15,4 °C 60 % 87 % 1015,6 hPa 0,0 l/m² 5,7 km/h (2 Bft) W-SW 250 ° 1 min 74 W/m² 13,2 °C 15,4 °C 8,0 km/h (2 Bft)
03.08.2025 07:41 22,3 °C 15,4 °C 60 % 87 % 1015,6 hPa 0,0 l/m² 3,3 km/h (1 Bft) W-SW 253 ° 2 min 137 W/m² 13,2 °C 15,4 °C 8,0 km/h (2 Bft)
03.08.2025 07:42 22,3 °C 15,5 °C 60 % 87 % 1015,6 hPa 0,0 l/m² 5,1 km/h (1 Bft) SW 229 ° 1 min 81 W/m² 13,3 °C 15,5 °C 9,7 km/h (2 Bft)
03.08.2025 07:43 22,3 °C 15,5 °C 60 % 87 % 1015,7 hPa 0,0 l/m² 6,7 km/h (2 Bft) W 275 ° 1 min 160 W/m² 13,3 °C 15,3 °C 11,3 km/h (2 Bft)
03.08.2025 07:44 22,3 °C 15,5 °C 60 % 87 % 1015,7 hPa 0,0 l/m² 8,8 km/h (2 Bft) W 259 ° 1 min 202 W/m² 13,3 °C 14,2 °C 11,3 km/h (2 Bft)
03.08.2025 07:45 22,3 °C 15,6 °C 60 % 87 % 1015,8 hPa 0,0 l/m² 9,4 km/h (2 Bft) W-SW 256 ° 1 min 206 W/m² 13,4 °C 14,1 °C 12,9 km/h (3 Bft)
03.08.2025 07:46 22,3 °C 15,6 °C 60 % 87 % 1015,9 hPa 0,0 l/m² 9,5 km/h (2 Bft) W-SW 237 ° 1 min 204 W/m² 13,4 °C 14,0 °C 12,9 km/h (3 Bft)
03.08.2025 07:47 22,3 °C 15,7 °C 60 % 87 % 1015,7 hPa 0,0 l/m² 9,8 km/h (2 Bft) W-SW 244 ° 1 min 204 W/m² 13,5 °C 14,0 °C 12,9 km/h (3 Bft)
03.08.2025 07:48 22,3 °C 15,7 °C 60 % 87 % 1015,9 hPa 0,0 l/m² 10,1 km/h (2 Bft) W-SW 245 ° 1 min 206 W/m² 13,5 °C 13,8 °C 16,1 km/h (3 Bft)
03.08.2025 07:49 22,3 °C 15,7 °C 60 % 87 % 1015,8 hPa 0,0 l/m² 10,4 km/h (2 Bft) SW 236 ° 1 min 211 W/m² 13,5 °C 13,7 °C 14,5 km/h (3 Bft)
03.08.2025 07:51 22,3 °C 15,8 °C 60 % 87 % 1015,7 hPa 0,0 l/m² 9,7 km/h (2 Bft) W-SW 249 ° 2 min 220 W/m² 13,6 °C 14,1 °C 19,3 km/h (3 Bft)
03.08.2025 07:52 22,2 °C 15,9 °C 60 % 87 % 1015,7 hPa 0,0 l/m² 13,6 km/h (3 Bft) SW 232 ° 1 min 223 W/m² 13,7 °C 12,7 °C 17,7 km/h (3 Bft)
03.08.2025 07:53 22,2 °C 15,9 °C 60 % 87 % 1015,7 hPa 0,0 l/m² 9,0 km/h (2 Bft) W-SW 252 ° 1 min 232 W/m² 13,7 °C 14,6 °C 11,3 km/h (2 Bft)
03.08.2025 07:54 22,3 °C 16,0 °C 60 % 87 % 1015,7 hPa 0,0 l/m² 12,7 km/h (3 Bft) W-SW 246 ° 1 min 287 W/m² 13,8 °C 13,2 °C 16,1 km/h (3 Bft)
03.08.2025 07:55 22,2 °C 16,0 °C 60 % 86 % 1015,7 hPa 0,0 l/m² 14,1 km/h (3 Bft) W-SW 250 ° 1 min 315 W/m² 13,7 °C 12,7 °C 19,3 km/h (3 Bft)
03.08.2025 07:56 22,2 °C 16,1 °C 60 % 86 % 1015,7 hPa 0,0 l/m² 17,2 km/h (3 Bft) W 269 ° 1 min 318 W/m² 13,8 °C 11,9 °C 22,5 km/h (4 Bft)
03.08.2025 07:57 22,3 °C 16,1 °C 60 % 86 % 1015,7 hPa 0,0 l/m² 14,2 km/h (3 Bft) W-SW 238 ° 1 min 288 W/m² 13,8 °C 12,8 °C 19,3 km/h (3 Bft)
03.08.2025 07:58 22,2 °C 16,2 °C 60 % 86 % 1015,8 hPa 0,0 l/m² 17,5 km/h (3 Bft) W-SW 255 ° 1 min 206 W/m² 13,9 °C 11,9 °C 22,5 km/h (4 Bft)
03.08.2025 07:59 22,3 °C 16,2 °C 60 % 86 % 1015,8 hPa 0,0 l/m² 12,7 km/h (3 Bft) W 259 ° 1 min 158 W/m² 13,9 °C 13,4 °C 19,3 km/h (3 Bft)
03.08.2025 08:01 22,3 °C 16,3 °C 60 % 85 % 1015,8 hPa 0,0 l/m² 12,7 km/h (3 Bft) SW 232 ° 2 min 128 W/m² 13,8 °C 13,5 °C 17,7 km/h (3 Bft)
03.08.2025 08:02 22,3 °C 16,4 °C 60 % 85 % 1015,7 hPa 0,0 l/m² 11,3 km/h (2 Bft) W 275 ° 1 min 139 W/m² 13,9 °C 14,1 °C 14,5 km/h (3 Bft)
03.08.2025 08:03 22,3 °C 16,4 °C 60 % 85 % 1015,7 hPa 0,0 l/m² 12,1 km/h (2 Bft) W 267 ° 1 min 229 W/m² 13,9 °C 13,8 °C 17,7 km/h (3 Bft)
03.08.2025 08:05 22,2 °C 16,4 °C 60 % 84 % 1015,7 hPa 0,0 l/m² 12,0 km/h (2 Bft) SW 234 ° 2 min 239 W/m² 13,7 °C 13,9 °C 16,1 km/h (3 Bft)
03.08.2025 08:06 22,3 °C 16,6 °C 60 % 84 % 1015,7 hPa 0,0 l/m² 13,5 km/h (3 Bft) W 266 ° 1 min 251 W/m² 13,9 °C 13,6 °C 17,7 km/h (3 Bft)
03.08.2025 08:07 22,3 °C 16,6 °C 60 % 84 % 1015,7 hPa 0,0 l/m² 14,1 km/h (3 Bft) W-SW 249 ° 1 min 257 W/m² 13,9 °C 13,4 °C 17,7 km/h (3 Bft)
03.08.2025 08:08 22,3 °C 16,7 °C 60 % 84 % 1015,7 hPa 0,0 l/m² 14,4 km/h (3 Bft) SW 221 ° 1 min 267 W/m² 14,0 °C 13,4 °C 19,3 km/h (3 Bft)
03.08.2025 08:09 22,3 °C 16,7 °C 60 % 84 % 1015,6 hPa 0,0 l/m² 14,1 km/h (3 Bft) SW 222 ° 1 min 274 W/m² 14,0 °C 13,5 °C 17,7 km/h (3 Bft)
03.08.2025 08:11 22,3 °C 16,8 °C 60 % 83 % 1015,7 hPa 0,0 l/m² 9,0 km/h (2 Bft) W-SW 242 ° 2 min 315 W/m² 13,9 °C 15,5 °C 17,7 km/h (3 Bft)
03.08.2025 08:12 22,3 °C 16,8 °C 60 % 83 % 1015,7 hPa 0,0 l/m² 10,2 km/h (2 Bft) W 265 ° 1 min 315 W/m² 13,9 °C 15,0 °C 14,5 km/h (3 Bft)
03.08.2025 08:13 22,3 °C 16,9 °C 60 % 83 % 1015,7 hPa 0,0 l/m² 9,1 km/h (2 Bft) W-SW 247 ° 1 min 271 W/m² 14,0 °C 15,6 °C 16,1 km/h (3 Bft)
03.08.2025 08:14 22,3 °C 16,9 °C 60 % 83 % 1015,6 hPa 0,0 l/m² 6,7 km/h (2 Bft) W-SW 257 ° 1 min 243 W/m² 14,0 °C 16,8 °C 12,9 km/h (3 Bft)
03.08.2025 08:15 22,3 °C 17,0 °C 60 % 83 % 1015,7 hPa 0,0 l/m² 8,7 km/h (2 Bft) W-SW 254 ° 1 min 243 W/m² 14,1 °C 15,9 °C 14,5 km/h (3 Bft)
03.08.2025 08:16 22,3 °C 17,1 °C 60 % 83 % 1015,5 hPa 0,0 l/m² 6,0 km/h (2 Bft) W 259 ° 1 min 399 W/m² 14,2 °C 17,1 °C 9,7 km/h (2 Bft)
03.08.2025 08:17 22,3 °C 17,1 °C 60 % 83 % 1015,6 hPa 0,0 l/m² 7,4 km/h (2 Bft) W-SW 247 ° 1 min 427 W/m² 14,2 °C 16,6 °C 14,5 km/h (3 Bft)
03.08.2025 08:18 22,3 °C 17,2 °C 60 % 82 % 1015,6 hPa 0,0 l/m² 8,9 km/h (2 Bft) SW 234 ° 1 min 422 W/m² 14,1 °C 16,0 °C 14,5 km/h (3 Bft)
03.08.2025 08:19 22,2 °C 17,3 °C 60 % 82 % 1015,5 hPa 0,0 l/m² 14,7 km/h (3 Bft) W 279 ° 1 min 422 W/m² 14,2 °C 14,1 °C 20,9 km/h (4 Bft)
03.08.2025 08:21 22,3 °C 17,4 °C 60 % 81 % 1015,6 hPa 0,0 l/m² 16,3 km/h (3 Bft) W-SW 252 ° 2 min 137 W/m² 14,1 °C 13,7 °C 22,5 km/h (4 Bft)
03.08.2025 08:23 22,3 °C 17,4 °C 60 % 80 % 1015,6 hPa 0,0 l/m² 15,1 km/h (3 Bft) W-SW 253 ° 2 min 121 W/m² 13,9 °C 14,1 °C 20,9 km/h (4 Bft)
03.08.2025 08:24 22,3 °C 17,4 °C 60 % 79 % 1015,7 hPa 0,0 l/m² 15,5 km/h (3 Bft) W-SW 256 ° 1 min 121 W/m² 13,7 °C 14,0 °C 19,3 km/h (3 Bft)
03.08.2025 08:25 22,3 °C 17,5 °C 60 % 79 % 1015,7 hPa 0,0 l/m² 15,1 km/h (3 Bft) W 281 ° 1 min 121 W/m² 13,8 °C 14,2 °C 22,5 km/h (4 Bft)
03.08.2025 08:26 22,3 °C 17,5 °C 60 % 79 % 1015,7 hPa 0,0 l/m² 8,8 km/h (2 Bft) W 260 ° 1 min 360 W/m² 13,8 °C 16,4 °C 16,1 km/h (3 Bft)
03.08.2025 08:27 22,3 °C 17,6 °C 60 % 79 % 1015,7 hPa 0,0 l/m² 12,5 km/h (2 Bft) W-SW 246 ° 1 min 360 W/m² 13,9 °C 15,1 °C 20,9 km/h (4 Bft)
03.08.2025 08:28 22,3 °C 17,6 °C 60 % 79 % 1015,7 hPa 0,0 l/m² 11,4 km/h (2 Bft) W-SW 241 ° 1 min 359 W/m² 13,9 °C 15,5 °C 20,9 km/h (4 Bft)
03.08.2025 08:29 22,3 °C 17,6 °C 60 % 78 % 1015,6 hPa 0,0 l/m² 9,9 km/h (2 Bft) W 267 ° 1 min 362 W/m² 13,7 °C 16,0 °C 19,3 km/h (3 Bft)
03.08.2025 08:31 22,3 °C 17,7 °C 60 % 78 % 1015,7 hPa 0,0 l/m² 10,8 km/h (2 Bft) W-NW 284 ° 2 min 362 W/m² 13,8 °C 15,8 °C 17,7 km/h (3 Bft)
03.08.2025 08:33 22,3 °C 17,8 °C 60 % 77 % 1015,6 hPa 0,0 l/m² 7,4 km/h (2 Bft) W 261 ° 2 min 408 W/m² 13,7 °C 17,3 °C 14,5 km/h (3 Bft)
03.08.2025 08:34 22,3 °C 17,8 °C 60 % 77 % 1015,6 hPa 0,0 l/m² 9,3 km/h (2 Bft) W 263 ° 1 min 427 W/m² 13,7 °C 16,5 °C 11,3 km/h (2 Bft)
03.08.2025 08:35 22,3 °C 17,8 °C 60 % 77 % 1015,6 hPa 0,0 l/m² 8,9 km/h (2 Bft) W-SW 239 ° 1 min 475 W/m² 13,7 °C 16,7 °C 12,9 km/h (3 Bft)
03.08.2025 08:36 22,3 °C 17,9 °C 60 % 77 % 1015,7 hPa 0,0 l/m² 7,8 km/h (2 Bft) W-SW 244 ° 1 min 494 W/m² 13,8 °C 17,2 °C 11,3 km/h (2 Bft)
03.08.2025 08:37 22,3 °C 17,9 °C 60 % 77 % 1015,6 hPa 0,0 l/m² 8,4 km/h (2 Bft) W 259 ° 1 min 515 W/m² 13,8 °C 17,0 °C 12,9 km/h (3 Bft)
03.08.2025 08:38 22,3 °C 18,0 °C 60 % 77 % 1015,6 hPa 0,0 l/m² 5,1 km/h (1 Bft) W 269 ° 1 min 524 W/m² 13,9 °C 18,0 °C 12,9 km/h (3 Bft)
03.08.2025 08:39 22,3 °C 18,1 °C 60 % 77 % 1015,6 hPa 0,0 l/m² 2,9 km/h (1 Bft) W 281 ° 1 min 529 W/m² 14,0 °C 18,1 °C 9,7 km/h (2 Bft)
03.08.2025 08:41 22,3 °C 18,2 °C 60 % 77 % 1015,5 hPa 0,0 l/m² 5,8 km/h (2 Bft) W-SW 243 ° 2 min 571 W/m² 14,1 °C 18,2 °C 9,7 km/h (2 Bft)
03.08.2025 08:43 22,3 °C 18,3 °C 60 % 77 % 1015,6 hPa 0,0 l/m² 9,3 km/h (2 Bft) W-SW 238 ° 2 min 547 W/m² 14,2 °C 17,0 °C 17,7 km/h (3 Bft)
03.08.2025 08:44 22,3 °C 18,4 °C 60 % 77 % 1015,6 hPa 0,0 l/m² 13,6 km/h (3 Bft) W-SW 250 ° 1 min 547 W/m² 14,3 °C 15,7 °C 22,5 km/h (4 Bft)
03.08.2025 08:45 22,4 °C 18,5 °C 60 % 76 % 1015,7 hPa 0,0 l/m² 10,5 km/h (2 Bft) W-SW 246 ° 1 min 253 W/m² 14,2 °C 16,8 °C 16,1 km/h (3 Bft)
03.08.2025 08:46 22,4 °C 18,6 °C 60 % 76 % 1015,7 hPa 0,0 l/m² 10,4 km/h (2 Bft) W-SW 244 ° 1 min 239 W/m² 14,3 °C 17,0 °C 14,5 km/h (3 Bft)
03.08.2025 08:47 22,4 °C 18,6 °C 60 % 76 % 1015,7 hPa 0,0 l/m² 8,6 km/h (2 Bft) W 269 ° 1 min 216 W/m² 14,3 °C 17,6 °C 14,5 km/h (3 Bft)
03.08.2025 08:48 22,3 °C 18,7 °C 60 % 76 % 1015,7 hPa 0,0 l/m² 10,2 km/h (2 Bft) W-SW 255 ° 1 min 209 W/m² 14,4 °C 17,1 °C 14,5 km/h (3 Bft)
03.08.2025 08:49 22,4 °C 18,7 °C 60 % 75 % 1015,8 hPa 0,0 l/m² 10,3 km/h (2 Bft) W-SW 258 ° 1 min 202 W/m² 14,2 °C 17,1 °C 16,1 km/h (3 Bft)
03.08.2025 08:51 22,4 °C 18,8 °C 60 % 75 % 1015,9 hPa 0,0 l/m² 5,9 km/h (2 Bft) W 268 ° 2 min 185 W/m² 14,3 °C 18,8 °C 11,3 km/h (2 Bft)
03.08.2025 08:53 22,4 °C 18,8 °C 60 % 74 % 1015,9 hPa 0,0 l/m² 7,5 km/h (2 Bft) W-SW 257 ° 2 min 165 W/m² 14,1 °C 18,3 °C 14,5 km/h (3 Bft)
03.08.2025 08:54 22,4 °C 18,8 °C 60 % 74 % 1015,9 hPa 0,0 l/m² 6,1 km/h (2 Bft) W-SW 243 ° 1 min 160 W/m² 14,1 °C 18,8 °C 11,3 km/h (2 Bft)
03.08.2025 08:55 22,3 °C 18,8 °C 60 % 74 % 1015,9 hPa 0,0 l/m² 8,5 km/h (2 Bft) W-NW 290 ° 1 min 160 W/m² 14,1 °C 17,9 °C 14,5 km/h (3 Bft)
03.08.2025 08:56 22,3 °C 18,8 °C 60 % 73 % 1015,9 hPa 0,0 l/m² 11,0 km/h (2 Bft) W 269 ° 1 min 163 W/m² 13,9 °C 17,0 °C 16,1 km/h (3 Bft)
03.08.2025 08:57 22,3 °C 18,8 °C 60 % 73 % 1015,9 hPa 0,0 l/m² 11,3 km/h (2 Bft) W-NW 282 ° 1 min 169 W/m² 13,9 °C 16,9 °C 16,1 km/h (3 Bft)
03.08.2025 08:58 22,4 °C 18,8 °C 60 % 73 % 1015,9 hPa 0,0 l/m² 9,5 km/h (2 Bft) W-SW 248 ° 1 min 172 W/m² 13,9 °C 17,5 °C 14,5 km/h (3 Bft)
03.08.2025 08:59 22,3 °C 18,8 °C 60 % 73 % 1015,9 hPa 0,0 l/m² 8,0 km/h (2 Bft) W 277 ° 1 min 179 W/m² 13,9 °C 18,1 °C 11,3 km/h (2 Bft)
03.08.2025 09:01 22,3 °C 18,7 °C 60 % 73 % 1015,8 hPa 0,0 l/m² 6,2 km/h (2 Bft) W 259 ° 2 min 185 W/m² 13,8 °C 18,7 °C 12,9 km/h (3 Bft)
03.08.2025 09:03 22,3 °C 18,7 °C 60 % 73 % 1015,9 hPa 0,0 l/m² 7,8 km/h (2 Bft) W 273 ° 2 min 188 W/m² 13,8 °C 18,1 °C 12,9 km/h (3 Bft)
03.08.2025 09:04 22,3 °C 18,7 °C 60 % 73 % 1015,9 hPa 0,0 l/m² 6,3 km/h (2 Bft) W-SW 248 ° 1 min 193 W/m² 13,8 °C 18,7 °C 11,3 km/h (2 Bft)
03.08.2025 09:05 22,3 °C 18,7 °C 60 % 73 % 1015,9 hPa 0,0 l/m² 9,5 km/h (2 Bft) W 264 ° 1 min 197 W/m² 13,8 °C 17,4 °C 12,9 km/h (3 Bft)
03.08.2025 09:06 22,3 °C 18,7 °C 60 % 73 % 1015,9 hPa 0,0 l/m² 11,4 km/h (2 Bft) W 262 ° 1 min 200 W/m² 13,8 °C 16,7 °C 16,1 km/h (3 Bft)
03.08.2025 09:08 22,3 °C 18,7 °C 59 % 74 % 1015,8 hPa 0,0 l/m² 6,7 km/h (2 Bft) W 273 ° 2 min 204 W/m² 14,0 °C 18,6 °C 11,3 km/h (2 Bft)
03.08.2025 09:09 22,3 °C 18,6 °C 59 % 74 % 1015,8 hPa 0,0 l/m² 2,3 km/h (1 Bft) W-SW 240 ° 1 min 204 W/m² 13,9 °C 18,6 °C 6,4 km/h (2 Bft)
03.08.2025 09:11 22,3 °C 18,6 °C 59 % 74 % 1015,8 hPa 0,0 l/m² 4,7 km/h (1 Bft) W 265 ° 2 min 200 W/m² 13,9 °C 18,6 °C 14,5 km/h (3 Bft)
03.08.2025 09:13 22,3 °C 18,6 °C 59 % 74 % 1015,8 hPa 0,0 l/m² 5,4 km/h (2 Bft) W 273 ° 2 min 206 W/m² 13,9 °C 18,6 °C 11,3 km/h (2 Bft)
03.08.2025 09:14 22,3 °C 18,6 °C 59 % 74 % 1015,8 hPa 0,0 l/m² 5,0 km/h (1 Bft) W-SW 252 ° 1 min 213 W/m² 13,9 °C 18,6 °C 9,7 km/h (2 Bft)
03.08.2025 09:15 22,3 °C 18,6 °C 59 % 74 % 1015,8 hPa 0,0 l/m² 4,6 km/h (1 Bft) W 267 ° 1 min 220 W/m² 13,9 °C 18,6 °C 6,4 km/h (2 Bft)
03.08.2025 09:16 22,3 °C 18,6 °C 59 % 74 % 1015,7 hPa 0,0 l/m² 5,6 km/h (2 Bft) W 271 ° 1 min 230 W/m² 13,9 °C 18,6 °C 9,7 km/h (2 Bft)
03.08.2025 09:17 22,3 °C 18,6 °C 59 % 74 % 1015,8 hPa 0,0 l/m² 4,5 km/h (1 Bft) W-NW 302 ° 1 min 234 W/m² 13,9 °C 18,6 °C 9,7 km/h (2 Bft)
03.08.2025 09:18 22,3 °C 18,6 °C 59 % 74 % 1015,8 hPa 0,0 l/m² 5,7 km/h (2 Bft) SW 229 ° 1 min 237 W/m² 13,9 °C 18,6 °C 8,0 km/h (2 Bft)
03.08.2025 09:19 22,3 °C 18,6 °C 59 % 74 % 1015,7 hPa 0,0 l/m² 8,0 km/h (2 Bft) SW 221 ° 1 min 239 W/m² 13,9 °C 17,9 °C 11,3 km/h (2 Bft)
03.08.2025 09:21 22,3 °C 18,6 °C 59 % 75 % 1015,7 hPa 0,0 l/m² 8,8 km/h (2 Bft) SW 223 ° 2 min 241 W/m² 14,1 °C 17,6 °C 12,9 km/h (3 Bft)
03.08.2025 09:23 22,3 °C 18,5 °C 59 % 74 % 1015,7 hPa 0,0 l/m² 10,5 km/h (2 Bft) SW 232 ° 2 min 248 W/m² 13,8 °C 16,8 °C 12,9 km/h (3 Bft)
03.08.2025 09:24 22,3 °C 18,6 °C 59 % 75 % 1015,7 hPa 0,0 l/m² 7,3 km/h (2 Bft) W 263 ° 1 min 248 W/m² 14,1 °C 18,2 °C 14,5 km/h (3 Bft)
03.08.2025 09:25 22,3 °C 18,6 °C 59 % 75 % 1015,7 hPa 0,0 l/m² 11,1 km/h (2 Bft) S-SW 203 ° 1 min 251 W/m² 14,1 °C 16,7 °C 14,5 km/h (3 Bft)
03.08.2025 09:26 22,3 °C 18,5 °C 59 % 75 % 1015,7 hPa 0,0 l/m² 13,4 km/h (3 Bft) W-SW 249 ° 1 min 257 W/m² 14,0 °C 15,9 °C 16,1 km/h (3 Bft)
03.08.2025 09:27 22,2 °C 18,6 °C 59 % 75 % 1015,8 hPa 0,0 l/m² 12,0 km/h (2 Bft) W-SW 240 ° 1 min 246 W/m² 14,1 °C 16,4 °C 17,7 km/h (3 Bft)
03.08.2025 09:28 22,3 °C 18,6 °C 59 % 75 % 1015,7 hPa 0,0 l/m² 13,6 km/h (3 Bft) W-SW 250 ° 1 min 246 W/m² 14,1 °C 15,9 °C 17,7 km/h (3 Bft)
03.08.2025 09:29 22,3 °C 18,6 °C 59 % 74 % 1015,7 hPa 0,0 l/m² 13,6 km/h (3 Bft) W-SW 253 ° 1 min 253 W/m² 13,9 °C 15,9 °C 19,3 km/h (3 Bft)
03.08.2025 09:31 22,2 °C 18,6 °C 59 % 74 % 1015,8 hPa 0,0 l/m² 10,5 km/h (2 Bft) W-SW 252 ° 2 min 265 W/m² 13,9 °C 16,9 °C 16,1 km/h (3 Bft)
03.08.2025 09:32 22,2 °C 18,6 °C 59 % 74 % 1015,7 hPa 0,0 l/m² 10,6 km/h (2 Bft) SW 227 ° 1 min 299 W/m² 13,9 °C 16,9 °C 12,9 km/h (3 Bft)
03.08.2025 09:33 22,2 °C 18,6 °C 59 % 74 % 1015,7 hPa 0,0 l/m² 11,0 km/h (2 Bft) SW 227 ° 1 min 374 W/m² 13,9 °C 16,7 °C 16,1 km/h (3 Bft)
03.08.2025 09:34 22,2 °C 18,6 °C 59 % 74 % 1015,8 hPa 0,0 l/m² 14,0 km/h (3 Bft) W-SW 248 ° 1 min 418 W/m² 13,9 °C 15,8 °C 17,7 km/h (3 Bft)
03.08.2025 09:35 22,2 °C 18,6 °C 59 % 74 % 1015,8 hPa 0,0 l/m² 13,1 km/h (3 Bft) W-SW 241 ° 1 min 489 W/m² 13,9 °C 16,1 °C 19,3 km/h (3 Bft)
03.08.2025 09:36 22,2 °C 18,7 °C 59 % 75 % 1015,8 hPa 0,0 l/m² 15,5 km/h (3 Bft) W-SW 257 ° 1 min 557 W/m² 14,2 °C 15,5 °C 20,9 km/h (4 Bft)
03.08.2025 09:37 22,2 °C 18,7 °C 59 % 74 % 1015,8 hPa 0,0 l/m² 15,8 km/h (3 Bft) SW 227 ° 1 min 557 W/m² 14,0 °C 15,5 °C 22,5 km/h (4 Bft)
03.08.2025 09:38 22,2 °C 18,7 °C 59 % 74 % 1015,9 hPa 0,0 l/m² 16,4 km/h (3 Bft) SW 219 ° 1 min 418 W/m² 14,0 °C 15,3 °C 20,9 km/h (4 Bft)
03.08.2025 09:39 22,2 °C 18,7 °C 59 % 74 % 1015,8 hPa 0,0 l/m² 15,3 km/h (3 Bft) SW 219 ° 1 min 364 W/m² 14,0 °C 15,6 °C 20,9 km/h (4 Bft)
03.08.2025 09:41 22,2 °C 18,8 °C 59 % 73 % 1015,7 hPa 0,0 l/m² 13,0 km/h (3 Bft) S-SW 192 ° 2 min 380 W/m² 13,9 °C 16,3 °C 20,9 km/h (4 Bft)
03.08.2025 09:43 22,2 °C 18,8 °C 59 % 73 % 1015,7 hPa 0,0 l/m² 14,9 km/h (3 Bft) SW 235 ° 2 min 380 W/m² 13,9 °C 15,8 °C 19,3 km/h (3 Bft)
03.08.2025 09:45 22,2 °C 18,9 °C 59 % 73 % 1015,7 hPa 0,0 l/m² 15,0 km/h (3 Bft) W-SW 239 ° 2 min 355 W/m² 13,9 °C 15,9 °C 24,1 km/h (4 Bft)
03.08.2025 09:46 22,2 °C 19,0 °C 59 % 73 % 1015,8 hPa 0,0 l/m² 15,8 km/h (3 Bft) W-SW 251 ° 1 min 355 W/m² 14,0 °C 15,8 °C 24,1 km/h (4 Bft)
03.08.2025 09:47 22,2 °C 19,0 °C 59 % 73 % 1015,8 hPa 0,0 l/m² 12,0 km/h (2 Bft) W-SW 244 ° 1 min 636 W/m² 14,0 °C 16,9 °C 16,1 km/h (3 Bft)
03.08.2025 09:48 22,2 °C 19,1 °C 59 % 73 % 1015,8 hPa 0,0 l/m² 12,6 km/h (3 Bft) W-SW 249 ° 1 min 636 W/m² 14,1 °C 16,8 °C 17,7 km/h (3 Bft)
03.08.2025 09:49 22,2 °C 19,1 °C 59 % 73 % 1015,8 hPa 0,0 l/m² 12,6 km/h (3 Bft) SW 235 ° 1 min 332 W/m² 14,1 °C 16,8 °C 17,7 km/h (3 Bft)
03.08.2025 09:51 22,2 °C 19,2 °C 59 % 72 % 1015,7 hPa 0,0 l/m² 14,7 km/h (3 Bft) SW 214 ° 2 min 374 W/m² 14,0 °C 16,4 °C 20,9 km/h (4 Bft)
03.08.2025 09:53 22,2 °C 19,3 °C 59 % 72 % 1015,8 hPa 0,0 l/m² 11,6 km/h (2 Bft) S-SW 209 ° 2 min 378 W/m² 14,1 °C 17,3 °C 16,1 km/h (3 Bft)
03.08.2025 09:54 22,2 °C 19,3 °C 59 % 72 % 1015,7 hPa 0,0 l/m² 8,6 km/h (2 Bft) SW 223 ° 1 min 376 W/m² 14,1 °C 18,4 °C 12,9 km/h (3 Bft)
03.08.2025 09:55 22,2 °C 19,3 °C 59 % 72 % 1015,8 hPa 0,0 l/m² 8,0 km/h (2 Bft) W-SW 237 ° 1 min 367 W/m² 14,1 °C 18,6 °C 12,9 km/h (3 Bft)
03.08.2025 09:56 22,2 °C 19,3 °C 59 % 72 % 1015,8 hPa 0,0 l/m² 9,2 km/h (2 Bft) SW 229 ° 1 min 330 W/m² 14,1 °C 18,2 °C 12,9 km/h (3 Bft)
03.08.2025 09:57 22,2 °C 19,4 °C 59 % 72 % 1015,8 hPa 0,0 l/m² 16,8 km/h (3 Bft) W-SW 240 ° 1 min 271 W/m² 14,2 °C 16,1 °C 19,3 km/h (3 Bft)
03.08.2025 09:58 22,2 °C 19,4 °C 59 % 72 % 1015,8 hPa 0,0 l/m² 15,3 km/h (3 Bft) W-SW 258 ° 1 min 264 W/m² 14,2 °C 16,4 °C 24,1 km/h (4 Bft)
03.08.2025 09:59 22,2 °C 19,4 °C 59 % 71 % 1015,8 hPa 0,0 l/m² 13,8 km/h (3 Bft) W-SW 247 ° 1 min 262 W/m² 14,0 °C 16,8 °C 19,3 km/h (3 Bft)
03.08.2025 10:01 22,2 °C 19,4 °C 59 % 71 % 1015,8 hPa 0,0 l/m² 9,8 km/h (2 Bft) W-SW 239 ° 2 min 287 W/m² 14,0 °C 18,0 °C 20,9 km/h (4 Bft)
03.08.2025 10:03 22,2 °C 19,5 °C 59 % 70 % 1015,8 hPa 0,0 l/m² 12,8 km/h (3 Bft) W-SW 238 ° 2 min 308 W/m² 13,9 °C 17,2 °C 17,7 km/h (3 Bft)
03.08.2025 10:04 22,2 °C 19,5 °C 59 % 71 % 1015,8 hPa 0,0 l/m² 11,0 km/h (2 Bft) W-SW 240 ° 1 min 285 W/m² 14,1 °C 17,8 °C 14,5 km/h (3 Bft)
03.08.2025 10:05 22,2 °C 19,5 °C 59 % 71 % 1015,8 hPa 0,0 l/m² 15,7 km/h (3 Bft) SW 234 ° 1 min 279 W/m² 14,1 °C 16,5 °C 20,9 km/h (4 Bft)
03.08.2025 10:06 22,2 °C 19,6 °C 59 % 71 % 1015,8 hPa 0,0 l/m² 12,5 km/h (2 Bft) SW 233 ° 1 min 292 W/m² 14,2 °C 17,4 °C 16,1 km/h (3 Bft)
03.08.2025 10:07 22,2 °C 19,6 °C 59 % 71 % 1015,8 hPa 0,0 l/m² 8,9 km/h (2 Bft) SW 221 ° 1 min 315 W/m² 14,2 °C 18,6 °C 16,1 km/h (3 Bft)
03.08.2025 10:08 22,2 °C 19,6 °C 59 % 71 % 1015,8 hPa 0,0 l/m² 7,8 km/h (2 Bft) W-SW 254 ° 1 min 343 W/m² 14,2 °C 19,0 °C 14,5 km/h (3 Bft)
03.08.2025 10:09 22,2 °C 19,6 °C 59 % 71 % 1015,8 hPa 0,0 l/m² 12,2 km/h (2 Bft) W 279 ° 1 min 401 W/m² 14,2 °C 17,5 °C 16,1 km/h (3 Bft)
03.08.2025 10:11 22,2 °C 19,6 °C 59 % 70 % 1015,8 hPa 0,0 l/m² 11,1 km/h (2 Bft) SW 228 ° 2 min 394 W/m² 14,0 °C 17,8 °C 17,7 km/h (3 Bft)
03.08.2025 10:13 22,2 °C 19,6 °C 59 % 70 % 1015,7 hPa 0,0 l/m² 8,0 km/h (2 Bft) SW 223 ° 2 min 366 W/m² 14,0 °C 18,9 °C 16,1 km/h (3 Bft)
03.08.2025 10:14 22,2 °C 19,6 °C 59 % 70 % 1015,7 hPa 0,0 l/m² 10,8 km/h (2 Bft) SW 215 ° 1 min 329 W/m² 14,0 °C 17,9 °C 19,3 km/h (3 Bft)
03.08.2025 10:15 22,2 °C 19,6 °C 59 % 70 % 1015,8 hPa 0,0 l/m² 13,3 km/h (3 Bft) SW 217 ° 1 min 278 W/m² 14,0 °C 17,2 °C 16,1 km/h (3 Bft)
03.08.2025 10:16 22,2 °C 19,7 °C 59 % 70 % 1015,8 hPa 0,0 l/m² 11,1 km/h (2 Bft) W 259 ° 1 min 260 W/m² 14,1 °C 18,0 °C 14,5 km/h (3 Bft)
03.08.2025 10:17 22,2 °C 19,7 °C 59 % 70 % 1015,8 hPa 0,0 l/m² 10,8 km/h (2 Bft) W 260 ° 1 min 244 W/m² 14,1 °C 18,0 °C 16,1 km/h (3 Bft)
03.08.2025 10:18 22,2 °C 19,7 °C 59 % 70 % 1015,7 hPa 0,0 l/m² 10,1 km/h (2 Bft) SW 219 ° 1 min 234 W/m² 14,1 °C 18,3 °C 14,5 km/h (3 Bft)
03.08.2025 10:19 22,2 °C 19,7 °C 59 % 70 % 1015,8 hPa 0,0 l/m² 7,2 km/h (2 Bft) W-SW 254 ° 1 min 229 W/m² 14,1 °C 19,4 °C 12,9 km/h (3 Bft)
03.08.2025 10:21 22,2 °C 19,7 °C 59 % 69 % 1015,8 hPa 0,0 l/m² 14,0 km/h (3 Bft) W-SW 254 ° 2 min 213 W/m² 13,8 °C 17,1 °C 20,9 km/h (4 Bft)
03.08.2025 10:23 22,2 °C 19,7 °C 58 % 69 % 1015,9 hPa 0,0 l/m² 7,6 km/h (2 Bft) W 273 ° 2 min 206 W/m² 13,8 °C 19,2 °C 14,5 km/h (3 Bft)
03.08.2025 10:24 22,2 °C 19,7 °C 58 % 69 % 1015,9 hPa 0,0 l/m² 4,7 km/h (1 Bft) W 260 ° 1 min 206 W/m² 13,8 °C 19,7 °C 6,4 km/h (2 Bft)
03.08.2025 10:25 22,2 °C 19,7 °C 58 % 69 % 1015,9 hPa 0,0 l/m² 6,2 km/h (2 Bft) W 260 ° 1 min 204 W/m² 13,8 °C 19,7 °C 12,9 km/h (3 Bft)
03.08.2025 10:26 22,2 °C 19,7 °C 58 % 69 % 1015,9 hPa 0,0 l/m² 6,1 km/h (2 Bft) W-SW 246 ° 1 min 202 W/m² 13,8 °C 19,7 °C 11,3 km/h (2 Bft)
03.08.2025 10:27 22,2 °C 19,7 °C 58 % 69 % 1015,9 hPa 0,0 l/m² 2,5 km/h (1 Bft) W-NW 286 ° 1 min 197 W/m² 13,8 °C 19,7 °C 4,8 km/h (1 Bft)
03.08.2025 10:28 22,2 °C 19,7 °C 58 % 69 % 1015,9 hPa 0,0 l/m² 5,0 km/h (1 Bft) W 277 ° 1 min 195 W/m² 13,8 °C 19,7 °C 8,0 km/h (2 Bft)
03.08.2025 10:29 22,2 °C 19,6 °C 58 % 69 % 1015,9 hPa 0,0 l/m² 6,3 km/h (2 Bft) W-SW 251 ° 1 min 193 W/m² 13,8 °C 19,6 °C 12,9 km/h (3 Bft)
03.08.2025 10:31 22,2 °C 19,6 °C 58 % 69 % 1015,8 hPa 0,0 l/m² 8,4 km/h (2 Bft) W-NW 286 ° 2 min 218 W/m² 13,8 °C 18,8 °C 14,5 km/h (3 Bft)
03.08.2025 10:32 22,2 °C 19,6 °C 58 % 69 % 1015,9 hPa 0,0 l/m² 6,4 km/h (2 Bft) W 267 ° 1 min 274 W/m² 13,8 °C 19,6 °C 14,5 km/h (3 Bft)
03.08.2025 10:33 22,2 °C 19,6 °C 58 % 69 % 1015,8 hPa 0,0 l/m² 6,8 km/h (2 Bft) W-NW 288 ° 1 min 311 W/m² 13,8 °C 19,4 °C 11,3 km/h (2 Bft)
03.08.2025 10:34 22,2 °C 19,6 °C 58 % 69 % 1015,9 hPa 0,0 l/m² 9,3 km/h (2 Bft) W-SW 244 ° 1 min 285 W/m² 13,8 °C 18,4 °C 14,5 km/h (3 Bft)
03.08.2025 10:35 22,2 °C 19,6 °C 58 % 69 % 1015,9 hPa 0,0 l/m² 13,1 km/h (3 Bft) W-SW 257 ° 1 min 272 W/m² 13,8 °C 17,3 °C 17,7 km/h (3 Bft)
03.08.2025 10:36 22,2 °C 19,6 °C 58 % 69 % 1015,8 hPa 0,0 l/m² 10,7 km/h (2 Bft) SW 227 ° 1 min 269 W/m² 13,8 °C 18,0 °C 14,5 km/h (3 Bft)
03.08.2025 10:37 22,2 °C 19,6 °C 58 % 69 % 1015,8 hPa 0,0 l/m² 9,9 km/h (2 Bft) SW 224 ° 1 min 253 W/m² 13,8 °C 18,2 °C 12,9 km/h (3 Bft)
03.08.2025 10:38 22,2 °C 19,6 °C 58 % 69 % 1015,8 hPa 0,0 l/m² 7,3 km/h (2 Bft) W-SW 238 ° 1 min 223 W/m² 13,8 °C 19,2 °C 9,7 km/h (2 Bft)
03.08.2025 10:39 22,2 °C 19,6 °C 58 % 69 % 1015,8 hPa 0,0 l/m² 5,5 km/h (2 Bft) SW 225 ° 1 min 209 W/m² 13,8 °C 19,6 °C 6,4 km/h (2 Bft)
03.08.2025 10:41 22,2 °C 19,6 °C 58 % 69 % 1015,8 hPa 0,0 l/m² 5,6 km/h (2 Bft) S-SW 199 ° 2 min 169 W/m² 13,8 °C 19,6 °C 9,7 km/h (2 Bft)
03.08.2025 10:43 22,2 °C 19,6 °C 58 % 69 % 1015,8 hPa 0,0 l/m² 4,3 km/h (1 Bft) W-SW 254 ° 2 min 130 W/m² 13,8 °C 19,6 °C 8,0 km/h (2 Bft)
03.08.2025 10:44 22,2 °C 19,6 °C 58 % 69 % 1015,8 hPa 0,0 l/m² 6,9 km/h (2 Bft) W-NW 296 ° 1 min 111 W/m² 13,8 °C 19,4 °C 12,9 km/h (3 Bft)
03.08.2025 10:45 22,2 °C 19,6 °C 58 % 69 % 1015,8 hPa 0,0 l/m² 9,4 km/h (2 Bft) W-SW 255 ° 1 min 104 W/m² 13,8 °C 18,4 °C 14,5 km/h (3 Bft)
03.08.2025 10:46 22,2 °C 19,6 °C 58 % 69 % 1015,8 hPa 0,0 l/m² 12,8 km/h (3 Bft) W-SW 252 ° 1 min 100 W/m² 13,8 °C 17,3 °C 16,1 km/h (3 Bft)
03.08.2025 10:47 22,2 °C 19,5 °C 58 % 68 % 1015,7 hPa 0,0 l/m² 7,2 km/h (2 Bft) W-SW 252 ° 1 min 105 W/m² 13,4 °C 19,2 °C 14,5 km/h (3 Bft)
03.08.2025 10:48 22,2 °C 19,5 °C 58 % 68 % 1015,9 hPa 0,0 l/m² 4,6 km/h (1 Bft) SW 223 ° 1 min 118 W/m² 13,4 °C 19,5 °C 8,0 km/h (2 Bft)
03.08.2025 10:49 22,2 °C 19,4 °C 58 % 68 % 1015,8 hPa 0,0 l/m² 8,2 km/h (2 Bft) W-SW 238 ° 1 min 134 W/m² 13,3 °C 18,6 °C 12,9 km/h (3 Bft)
03.08.2025 10:51 22,2 °C 19,4 °C 58 % 69 % 1015,8 hPa 0,0 l/m² 6,7 km/h (2 Bft) SW 227 ° 2 min 172 W/m² 13,6 °C 19,3 °C 12,9 km/h (3 Bft)
03.08.2025 10:53 22,2 °C 19,4 °C 58 % 69 % 1015,8 hPa 0,0 l/m² 9,0 km/h (2 Bft) S-SW 198 ° 2 min 199 W/m² 13,6 °C 18,3 °C 17,7 km/h (3 Bft)
03.08.2025 10:54 22,2 °C 19,4 °C 58 % 69 % 1015,9 hPa 0,0 l/m² 10,0 km/h (2 Bft) W-SW 253 ° 1 min 213 W/m² 13,6 °C 18,0 °C 17,7 km/h (3 Bft)
03.08.2025 10:55 22,2 °C 19,4 °C 58 % 69 % 1015,9 hPa 0,0 l/m² 11,2 km/h (2 Bft) W 266 ° 1 min 213 W/m² 13,6 °C 17,6 °C 14,5 km/h (3 Bft)
03.08.2025 10:56 22,2 °C 19,4 °C 58 % 69 % 1015,8 hPa 0,0 l/m² 4,6 km/h (1 Bft) W-SW 251 ° 1 min 185 W/m² 13,6 °C 19,4 °C 9,7 km/h (2 Bft)
03.08.2025 10:57 22,2 °C 19,4 °C 58 % 69 % 1015,7 hPa 0,0 l/m² 5,8 km/h (2 Bft) SW 218 ° 1 min 171 W/m² 13,6 °C 19,4 °C 9,7 km/h (2 Bft)
03.08.2025 10:58 22,2 °C 19,4 °C 58 % 70 % 1015,8 hPa 0,0 l/m² 10,1 km/h (2 Bft) W-SW 244 ° 1 min 162 W/m² 13,8 °C 17,9 °C 19,3 km/h (3 Bft)
03.08.2025 10:59 22,2 °C 19,4 °C 58 % 69 % 1015,7 hPa 0,0 l/m² 18,3 km/h (3 Bft) SW 214 ° 1 min 155 W/m² 13,6 °C 15,8 °C 22,5 km/h (4 Bft)
03.08.2025 11:01 22,2 °C 19,4 °C 58 % 68 % 1015,9 hPa 0,0 l/m² 18,9 km/h (3 Bft) S-SW 212 ° 2 min 142 W/m² 13,3 °C 15,6 °C 24,1 km/h (4 Bft)
03.08.2025 11:03 22,2 °C 19,4 °C 58 % 68 % 1015,8 hPa 0,0 l/m² 18,0 km/h (3 Bft) SW 229 ° 2 min 128 W/m² 13,3 °C 15,8 °C 25,7 km/h (4 Bft)
03.08.2025 11:04 22,2 °C 19,4 °C 58 % 68 % 1015,8 hPa 0,0 l/m² 12,5 km/h (2 Bft) W-SW 257 ° 1 min 123 W/m² 13,3 °C 17,2 °C 17,7 km/h (3 Bft)
03.08.2025 11:05 22,2 °C 19,4 °C 58 % 68 % 1015,8 hPa 0,0 l/m² 16,1 km/h (3 Bft) SW 219 ° 1 min 120 W/m² 13,3 °C 16,3 °C 19,3 km/h (3 Bft)
03.08.2025 11:06 22,2 °C 19,4 °C 58 % 68 % 1015,8 hPa 0,0 l/m² 16,3 km/h (3 Bft) S-SW 207 ° 1 min 113 W/m² 13,3 °C 16,2 °C 24,1 km/h (4 Bft)
03.08.2025 11:08 22,2 °C 19,3 °C 58 % 67 % 1015,8 hPa 0,0 l/m² 14,6 km/h (3 Bft) SW 217 ° 2 min 100 W/m² 13,0 °C 16,5 °C 24,1 km/h (4 Bft)
03.08.2025 11:09 22,2 °C 19,3 °C 58 % 68 % 1015,9 hPa 0,0 l/m² 15,2 km/h (3 Bft) W-SW 254 ° 1 min 100 W/m² 13,2 °C 16,4 °C 22,5 km/h (4 Bft)
03.08.2025 11:11 22,2 °C 19,3 °C 58 % 68 % 1015,8 hPa 0,0 l/m² 15,4 km/h (3 Bft) W-SW 249 ° 2 min 104 W/m² 13,2 °C 16,3 °C 24,1 km/h (4 Bft)
03.08.2025 11:13 22,2 °C 19,3 °C 58 % 68 % 1015,9 hPa 0,0 l/m² 17,4 km/h (3 Bft) SW 223 ° 2 min 104 W/m² 13,2 °C 15,8 °C 24,1 km/h (4 Bft)
03.08.2025 11:14 22,2 °C 19,3 °C 58 % 68 % 1015,9 hPa 0,0 l/m² 18,1 km/h (3 Bft) SW 225 ° 1 min 109 W/m² 13,2 °C 15,7 °C 24,1 km/h (4 Bft)
03.08.2025 11:15 22,2 °C 19,3 °C 58 % 68 % 1015,8 hPa 0,0 l/m² 19,0 km/h (3 Bft) SW 236 ° 1 min 120 W/m² 13,2 °C 15,5 °C 24,1 km/h (4 Bft)
03.08.2025 11:16 22,2 °C 19,3 °C 59 % 69 % 1015,9 hPa 0,0 l/m² 17,7 km/h (3 Bft) W-SW 242 ° 1 min 134 W/m² 13,5 °C 15,8 °C 25,7 km/h (4 Bft)
03.08.2025 11:17 22,2 °C 19,3 °C 59 % 69 % 1015,9 hPa 0,0 l/m² 13,3 km/h (3 Bft) S-SW 211 ° 1 min 158 W/m² 13,5 °C 16,8 °C 19,3 km/h (3 Bft)
03.08.2025 11:18 22,2 °C 19,3 °C 59 % 69 % 1015,8 hPa 0,0 l/m² 18,7 km/h (3 Bft) W-SW 244 ° 1 min 192 W/m² 13,5 °C 15,6 °C 24,1 km/h (4 Bft)
03.08.2025 11:19 22,2 °C 19,3 °C 59 % 69 % 1015,9 hPa 0,0 l/m² 18,0 km/h (3 Bft) W-SW 241 ° 1 min 248 W/m² 13,5 °C 15,7 °C 22,5 km/h (4 Bft)
03.08.2025 11:21 22,2 °C 19,3 °C 59 % 69 % 1016,0 hPa 0,0 l/m² 15,8 km/h (3 Bft) W-SW 248 ° 2 min 290 W/m² 13,5 °C 16,2 °C 22,5 km/h (4 Bft)
03.08.2025 11:23 22,2 °C 19,3 °C 59 % 69 % 1015,9 hPa 0,0 l/m² 16,4 km/h (3 Bft) SW 223 ° 2 min 329 W/m² 13,5 °C 16,1 °C 24,1 km/h (4 Bft)
03.08.2025 11:24 22,2 °C 19,3 °C 59 % 69 % 1015,9 hPa 0,0 l/m² 16,8 km/h (3 Bft) W-SW 254 ° 1 min 352 W/m² 13,5 °C 16,0 °C 22,5 km/h (4 Bft)
03.08.2025 11:25 22,2 °C 19,3 °C 59 % 69 % 1015,9 hPa 0,0 l/m² 19,1 km/h (3 Bft) W-SW 240 ° 1 min 381 W/m² 13,5 °C 15,5 °C 22,5 km/h (4 Bft)
03.08.2025 11:26 22,2 °C 19,4 °C 59 % 69 % 1015,8 hPa 0,0 l/m² 15,6 km/h (3 Bft) SW 219 ° 1 min 394 W/m² 13,6 °C 16,4 °C 22,5 km/h (4 Bft)
03.08.2025 11:27 22,2 °C 19,4 °C 59 % 69 % 1015,9 hPa 0,0 l/m² 15,6 km/h (3 Bft) SW 233 ° 1 min 410 W/m² 13,6 °C 16,4 °C 19,3 km/h (3 Bft)
03.08.2025 11:28 22,2 °C 19,5 °C 58 % 70 % 1015,9 hPa 0,0 l/m² 15,3 km/h (3 Bft) SW 226 ° 1 min 418 W/m² 13,9 °C 16,6 °C 19,3 km/h (3 Bft)
03.08.2025 11:29 22,2 °C 19,6 °C 58 % 69 % 1015,9 hPa 0,0 l/m² 22,3 km/h (4 Bft) SW 229 ° 1 min 418 W/m² 13,8 °C 15,3 °C 25,7 km/h (4 Bft)
03.08.2025 11:31 22,2 °C 19,7 °C 58 % 69 % 1015,9 hPa 0,0 l/m² 18,6 km/h (3 Bft) SW 232 ° 2 min 336 W/m² 13,8 °C 16,1 °C 25,7 km/h (4 Bft)
03.08.2025 11:33 22,2 °C 19,8 °C 58 % 68 % 1015,9 hPa 0,0 l/m² 19,6 km/h (3 Bft) SW 229 ° 2 min 311 W/m² 13,7 °C 16,0 °C 30,6 km/h (5 Bft)
03.08.2025 11:34 22,2 °C 19,8 °C 58 % 68 % 1016,1 hPa 0,0 l/m² 20,2 km/h (4 Bft) W 259 ° 1 min 309 W/m² 13,7 °C 15,9 °C 27,4 km/h (5 Bft)
03.08.2025 11:35 22,2 °C 19,9 °C 58 % 68 % 1016,1 hPa 0,0 l/m² 18,2 km/h (3 Bft) W-SW 253 ° 1 min 320 W/m² 13,8 °C 16,4 °C 27,4 km/h (5 Bft)
03.08.2025 11:36 22,2 °C 19,9 °C 58 % 67 % 1016,1 hPa 0,0 l/m² 15,5 km/h (3 Bft) W-SW 256 ° 1 min 336 W/m² 13,6 °C 17,0 °C 24,1 km/h (4 Bft)
03.08.2025 11:37 22,2 °C 19,9 °C 58 % 67 % 1016,1 hPa 0,0 l/m² 13,8 km/h (3 Bft) SW 232 ° 1 min 338 W/m² 13,6 °C 17,4 °C 24,1 km/h (4 Bft)
03.08.2025 11:38 22,2 °C 19,9 °C 58 % 67 % 1016,1 hPa 0,0 l/m² 22,4 km/h (4 Bft) W-SW 255 ° 1 min 336 W/m² 13,6 °C 15,7 °C 25,7 km/h (4 Bft)
03.08.2025 11:39 22,2 °C 20,0 °C 58 % 67 % 1016,0 hPa 0,0 l/m² 21,7 km/h (4 Bft) SW 234 ° 1 min 330 W/m² 13,7 °C 15,9 °C 25,7 km/h (4 Bft)
03.08.2025 11:41 22,2 °C 20,1 °C 58 % 66 % 1016,1 hPa 0,0 l/m² 15,6 km/h (3 Bft) W 263 ° 2 min 299 W/m² 13,5 °C 17,2 °C 25,7 km/h (4 Bft)
03.08.2025 11:43 22,2 °C 20,1 °C 58 % 66 % 1016,1 hPa 0,0 l/m² 15,4 km/h (3 Bft) W-SW 244 ° 2 min 269 W/m² 13,5 °C 17,3 °C 22,5 km/h (4 Bft)
03.08.2025 11:44 22,2 °C 20,1 °C 58 % 66 % 1016,1 hPa 0,0 l/m² 12,3 km/h (2 Bft) W-NW 291 ° 1 min 265 W/m² 13,5 °C 18,1 °C 17,7 km/h (3 Bft)
03.08.2025 11:45 22,2 °C 20,1 °C 58 % 66 % 1016,2 hPa 0,0 l/m² 18,0 km/h (3 Bft) W-SW 242 ° 1 min 271 W/m² 13,5 °C 16,7 °C 25,7 km/h (4 Bft)
03.08.2025 11:46 22,2 °C 20,1 °C 58 % 66 % 1016,1 hPa 0,0 l/m² 13,4 km/h (3 Bft) SW 215 ° 1 min 278 W/m² 13,5 °C 17,8 °C 20,9 km/h (4 Bft)
03.08.2025 11:47 22,2 °C 20,2 °C 58 % 66 % 1016,1 hPa 0,0 l/m² 13,4 km/h (3 Bft) W 265 ° 1 min 290 W/m² 13,6 °C 17,9 °C 20,9 km/h (4 Bft)
03.08.2025 11:48 22,2 °C 20,2 °C 58 % 66 % 1016,1 hPa 0,0 l/m² 14,5 km/h (3 Bft) W 277 ° 1 min 320 W/m² 13,6 °C 17,6 °C 24,1 km/h (4 Bft)
03.08.2025 11:49 22,2 °C 20,2 °C 58 % 66 % 1016,2 hPa 0,0 l/m² 21,3 km/h (4 Bft) W-SW 240 ° 1 min 338 W/m² 13,6 °C 16,2 °C 27,4 km/h (5 Bft)
03.08.2025 11:51 22,2 °C 20,2 °C 58 % 66 % 1016,2 hPa 0,0 l/m² 14,2 km/h (3 Bft) SW 225 ° 2 min 396 W/m² 13,6 °C 17,7 °C 29,0 km/h (5 Bft)
03.08.2025 11:53 22,2 °C 20,2 °C 58 % 66 % 1016,2 hPa 0,0 l/m² 16,3 km/h (3 Bft) W-SW 251 ° 2 min 425 W/m² 13,6 °C 17,2 °C 24,1 km/h (4 Bft)
03.08.2025 11:54 22,2 °C 20,2 °C 58 % 66 % 1016,2 hPa 0,0 l/m² 17,8 km/h (3 Bft) SW 232 ° 1 min 436 W/m² 13,6 °C 16,9 °C 24,1 km/h (4 Bft)
03.08.2025 11:55 22,2 °C 20,2 °C 58 % 66 % 1016,2 hPa 0,0 l/m² 13,2 km/h (3 Bft) W-SW 246 ° 1 min 450 W/m² 13,6 °C 17,9 °C 24,1 km/h (4 Bft)
03.08.2025 11:56 22,2 °C 20,2 °C 58 % 66 % 1016,2 hPa 0,0 l/m² 11,9 km/h (2 Bft) W-SW 258 ° 1 min 469 W/m² 13,6 °C 18,3 °C 17,7 km/h (3 Bft)
03.08.2025 11:57 22,2 °C 20,2 °C 58 % 66 % 1016,2 hPa 0,0 l/m² 12,5 km/h (2 Bft) SW 227 ° 1 min 538 W/m² 13,6 °C 18,1 °C 19,3 km/h (3 Bft)
03.08.2025 11:58 22,2 °C 20,3 °C 58 % 66 % 1016,2 hPa 0,0 l/m² 17,9 km/h (3 Bft) SW 215 ° 1 min 522 W/m² 13,7 °C 17,0 °C 22,5 km/h (4 Bft)
03.08.2025 11:59 22,2 °C 20,3 °C 58 % 65 % 1016,2 hPa 0,0 l/m² 21,6 km/h (4 Bft) SW 231 ° 1 min 489 W/m² 13,5 °C 16,3 °C 29,0 km/h (5 Bft)
03.08.2025 12:00 22,2 °C 20,4 °C 58 % 66 % 1016,2 hPa 0,0 l/m² 17,7 km/h (3 Bft) SW 225 ° 1 min 512 W/m² 13,8 °C 17,2 °C 24,1 km/h (4 Bft)
03.08.2025 12:06 22,2 °C 20,5 °C 58 % 62 % 1016,2 hPa 0,0 l/m² 24,9 km/h (4 Bft) SW 221 ° 6 min 536 W/m² 13,0 °C 16,1 °C 27,4 km/h (5 Bft)
03.08.2025 12:08 22,2 °C 20,6 °C 58 % 62 % 1016,2 hPa 0,0 l/m² 19,6 km/h (3 Bft) SW 227 ° 2 min 580 W/m² 13,1 °C 17,1 °C 24,1 km/h (4 Bft)
03.08.2025 12:09 22,2 °C 20,6 °C 58 % 62 % 1016,2 hPa 0,0 l/m² 19,7 km/h (3 Bft) SW 227 ° 1 min 599 W/m² 13,1 °C 17,0 °C 25,7 km/h (4 Bft)
03.08.2025 12:11 22,2 °C 20,7 °C 58 % 63 % 1016,2 hPa 0,0 l/m² 15,5 km/h (3 Bft) S-SW 211 ° 2 min 636 W/m² 13,4 °C 18,0 °C 22,5 km/h (4 Bft)
03.08.2025 12:13 22,2 °C 20,7 °C 58 % 62 % 1016,3 hPa 0,0 l/m² 18,2 km/h (3 Bft) S-SW 203 ° 2 min 608 W/m² 13,2 °C 17,4 °C 22,5 km/h (4 Bft)
03.08.2025 12:14 22,2 °C 20,8 °C 58 % 62 % 1016,1 hPa 0,0 l/m² 17,3 km/h (3 Bft) S 186 ° 1 min 621 W/m² 13,2 °C 17,7 °C 24,1 km/h (4 Bft)
03.08.2025 12:16 22,2 °C 20,9 °C 58 % 60 % 1016,2 hPa 0,0 l/m² 18,4 km/h (3 Bft) SW 234 ° 2 min 594 W/m² 12,8 °C 17,7 °C 24,1 km/h (4 Bft)
03.08.2025 12:18 22,2 °C 20,9 °C 58 % 60 % 1016,2 hPa 0,0 l/m² 13,5 km/h (3 Bft) S-SW 194 ° 2 min 564 W/m² 12,8 °C 18,7 °C 19,3 km/h (3 Bft)
03.08.2025 12:20 22,2 °C 21,0 °C 58 % 60 % 1016,2 hPa 0,0 l/m² 15,3 km/h (3 Bft) S-SW 209 ° 2 min 642 W/m² 12,9 °C 18,4 °C 20,9 km/h (4 Bft)
03.08.2025 12:21 22,2 °C 21,1 °C 58 % 60 % 1016,2 hPa 0,0 l/m² 16,2 km/h (3 Bft) SW 217 ° 1 min 615 W/m² 13,0 °C 18,3 °C 20,9 km/h (4 Bft)
03.08.2025 12:22 22,3 °C 21,2 °C 58 % 60 % 1016,2 hPa 0,0 l/m² 14,6 km/h (3 Bft) S-SW 205 ° 1 min 617 W/m² 13,1 °C 18,8 °C 17,7 km/h (3 Bft)
03.08.2025 12:24 22,2 °C 21,2 °C 58 % 60 % 1016,1 hPa 0,0 l/m² 16,4 km/h (3 Bft) S-SW 198 ° 2 min 571 W/m² 13,1 °C 18,4 °C 22,5 km/h (4 Bft)
03.08.2025 12:26 22,2 °C 21,3 °C 58 % 59 % 1016,2 hPa 0,0 l/m² 17,3 km/h (3 Bft) S-SW 196 ° 2 min 591 W/m² 13,0 °C 18,4 °C 22,5 km/h (4 Bft)
03.08.2025 12:28 22,2 °C 21,4 °C 58 % 60 % 1016,1 hPa 0,0 l/m² 16,9 km/h (3 Bft) SW 218 ° 2 min 584 W/m² 13,3 °C 18,6 °C 24,1 km/h (4 Bft)
03.08.2025 12:30 22,2 °C 21,5 °C 58 % 59 % 1016,2 hPa 0,0 l/m² 15,9 km/h (3 Bft) SW 223 ° 2 min 603 W/m² 13,1 °C 18,9 °C 27,4 km/h (5 Bft)
03.08.2025 12:31 22,2 °C 21,6 °C 58 % 60 % 1016,1 hPa 0,0 l/m² 19,4 km/h (3 Bft) SW 221 ° 1 min 566 W/m² 13,5 °C 18,4 °C 25,7 km/h (4 Bft)
03.08.2025 12:32 22,3 °C 21,6 °C 58 % 60 % 1016,2 hPa 0,0 l/m² 14,9 km/h (3 Bft) SW 226 ° 1 min 545 W/m² 13,5 °C 19,2 °C 17,7 km/h (3 Bft)
03.08.2025 12:34 22,3 °C 21,7 °C 58 % 60 % 1016,1 hPa 0,0 l/m² 13,3 km/h (3 Bft) S-SW 199 ° 2 min 492 W/m² 13,6 °C 19,7 °C 24,1 km/h (4 Bft)
03.08.2025 12:36 22,3 °C 21,7 °C 58 % 60 % 1016,1 hPa 0,0 l/m² 17,4 km/h (3 Bft) S-SW 201 ° 2 min 415 W/m² 13,6 °C 18,8 °C 24,1 km/h (4 Bft)
03.08.2025 12:38 22,3 °C 21,7 °C 58 % 60 % 1016,1 hPa 0,0 l/m² 17,6 km/h (3 Bft) S-SW 210 ° 2 min 441 W/m² 13,6 °C 18,8 °C 22,5 km/h (4 Bft)
03.08.2025 12:40 22,3 °C 21,8 °C 58 % 59 % 1016,1 hPa 0,0 l/m² 13,9 km/h (3 Bft) SW 220 ° 2 min 418 W/m² 13,4 °C 19,7 °C 25,7 km/h (4 Bft)
03.08.2025 12:41 22,3 °C 21,8 °C 58 % 59 % 1016,0 hPa 0,0 l/m² 21,8 km/h (4 Bft) SW 229 ° 1 min 417 W/m² 13,4 °C 18,3 °C 29,0 km/h (5 Bft)
03.08.2025 12:42 22,3 °C 21,8 °C 58 % 60 % 1016,0 hPa 0,0 l/m² 15,2 km/h (3 Bft) W-SW 243 ° 1 min 418 W/m² 13,7 °C 19,4 °C 22,5 km/h (4 Bft)
03.08.2025 12:44 22,3 °C 21,8 °C 58 % 61 % 1016,1 hPa 0,0 l/m² 13,9 km/h (3 Bft) SW 217 ° 2 min 390 W/m² 13,9 °C 19,7 °C 20,9 km/h (4 Bft)
03.08.2025 12:46 22,3 °C 21,8 °C 58 % 60 % 1016,1 hPa 0,0 l/m² 17,5 km/h (3 Bft) SW 227 ° 2 min 471 W/m² 13,7 °C 19,0 °C 25,7 km/h (4 Bft)
03.08.2025 12:47 22,2 °C 21,8 °C 58 % 60 % 1016,1 hPa 0,0 l/m² 15,7 km/h (3 Bft) S-SW 213 ° 1 min 524 W/m² 13,7 °C 19,3 °C 20,9 km/h (4 Bft)
03.08.2025 12:49 22,3 °C 21,8 °C 58 % 59 % 1016,1 hPa 0,0 l/m² 19,8 km/h (3 Bft) SW 229 ° 2 min 547 W/m² 13,4 °C 18,6 °C 27,4 km/h (5 Bft)
03.08.2025 12:50 22,3 °C 21,8 °C 58 % 59 % 1016,0 hPa 0,0 l/m² 22,6 km/h (4 Bft) S-SW 213 ° 1 min 547 W/m² 13,4 °C 18,1 °C 27,4 km/h (5 Bft)
03.08.2025 12:51 22,3 °C 21,7 °C 58 % 59 % 1015,9 hPa 0,0 l/m² 22,1 km/h (4 Bft) SW 219 ° 1 min 404 W/m² 13,3 °C 18,1 °C 29,0 km/h (5 Bft)
03.08.2025 12:52 22,2 °C 21,7 °C 58 % 59 % 1016,0 hPa 0,0 l/m² 18,7 km/h (3 Bft) W-SW 237 ° 1 min 404 W/m² 13,3 °C 18,6 °C 24,1 km/h (4 Bft)
03.08.2025 12:54 22,3 °C 21,7 °C 58 % 59 % 1015,9 hPa 0,0 l/m² 16,9 km/h (3 Bft) S-SW 209 ° 2 min 288 W/m² 13,3 °C 18,9 °C 27,4 km/h (5 Bft)
03.08.2025 12:56 22,2 °C 21,6 °C 58 % 60 % 1016,0 hPa 0,0 l/m² 15,2 km/h (3 Bft) S-SW 197 ° 2 min 380 W/m² 13,5 °C 19,1 °C 24,1 km/h (4 Bft)
03.08.2025 12:58 22,3 °C 21,6 °C 58 % 60 % 1015,9 hPa 0,0 l/m² 15,3 km/h (3 Bft) SW 217 ° 2 min 432 W/m² 13,5 °C 19,1 °C 20,9 km/h (4 Bft)
03.08.2025 13:00 22,3 °C 21,5 °C 58 % 59 % 1015,9 hPa 0,0 l/m² 17,7 km/h (3 Bft) SW 226 ° 2 min 503 W/m² 13,1 °C 18,5 °C 25,7 km/h (4 Bft)
03.08.2025 13:01 22,3 °C 21,6 °C 58 % 59 % 1015,9 hPa 0,0 l/m² 17,8 km/h (3 Bft) S-SW 203 ° 1 min 443 W/m² 13,2 °C 18,6 °C 20,9 km/h (4 Bft)
03.08.2025 13:02 22,3 °C 21,6 °C 58 % 60 % 1015,9 hPa 0,0 l/m² 13,5 km/h (3 Bft) SW 225 ° 1 min 475 W/m² 13,5 °C 19,5 °C 17,7 km/h (3 Bft)
03.08.2025 13:04 22,3 °C 21,6 °C 58 % 60 % 1015,8 hPa 0,0 l/m² 19,0 km/h (3 Bft) SW 234 ° 2 min 552 W/m² 13,5 °C 18,4 °C 27,4 km/h (5 Bft)
03.08.2025 13:06 22,3 °C 21,7 °C 58 % 60 % 1015,9 hPa 0,0 l/m² 16,4 km/h (3 Bft) W-SW 240 ° 2 min 403 W/m² 13,6 °C 19,0 °C 22,5 km/h (4 Bft)
03.08.2025 13:07 22,3 °C 21,7 °C 58 % 60 % 1015,8 hPa 0,0 l/m² 12,4 km/h (2 Bft) W-SW 252 ° 1 min 376 W/m² 13,6 °C 19,9 °C 19,3 km/h (3 Bft)
03.08.2025 13:09 22,3 °C 21,7 °C 58 % 58 % 1015,8 hPa 0,0 l/m² 17,0 km/h (3 Bft) W 261 ° 2 min 350 W/m² 13,1 °C 18,9 °C 24,1 km/h (4 Bft)
03.08.2025 13:11 22,3 °C 21,8 °C 58 % 58 % 1015,9 hPa 0,0 l/m² 17,8 km/h (3 Bft) SW 219 ° 2 min 399 W/m² 13,2 °C 18,9 °C 29,0 km/h (5 Bft)
03.08.2025 13:13 22,3 °C 21,8 °C 58 % 57 % 1015,9 hPa 0,0 l/m² 16,6 km/h (3 Bft) SW 236 ° 2 min 483 W/m² 12,9 °C 19,1 °C 27,4 km/h (5 Bft)
03.08.2025 13:14 22,3 °C 21,8 °C 58 % 57 % 1015,9 hPa 0,0 l/m² 21,3 km/h (4 Bft) W-SW 242 ° 1 min 504 W/m² 12,9 °C 18,3 °C 24,1 km/h (4 Bft)
03.08.2025 13:15 22,3 °C 21,8 °C 58 % 57 % 1015,9 hPa 0,0 l/m² 19,4 km/h (3 Bft) W-SW 240 ° 1 min 533 W/m² 12,9 °C 18,6 °C 25,7 km/h (4 Bft)
03.08.2025 13:16 22,3 °C 21,8 °C 58 % 57 % 1015,9 hPa 0,0 l/m² 19,1 km/h (3 Bft) W-SW 241 ° 1 min 584 W/m² 12,9 °C 18,7 °C 27,4 km/h (5 Bft)
03.08.2025 13:18 22,3 °C 21,9 °C 58 % 56 % 1015,9 hPa 0,0 l/m² 24,2 km/h (4 Bft) W-SW 249 ° 2 min 680 W/m² 12,7 °C 18,1 °C 30,6 km/h (5 Bft)
03.08.2025 13:20 22,3 °C 21,9 °C 58 % 57 % 1016,0 hPa 0,0 l/m² 19,2 km/h (3 Bft) SW 217 ° 2 min 563 W/m² 13,0 °C 18,8 °C 27,4 km/h (5 Bft)
03.08.2025 13:21 22,3 °C 22,0 °C 58 % 57 % 1016,0 hPa 0,0 l/m² 19,8 km/h (3 Bft) S-SW 196 ° 1 min 531 W/m² 13,1 °C 18,8 °C 24,1 km/h (4 Bft)
03.08.2025 13:22 22,3 °C 22,0 °C 58 % 57 % 1016,0 hPa 0,0 l/m² 22,2 km/h (4 Bft) W-SW 240 ° 1 min 529 W/m² 13,1 °C 18,5 °C 30,6 km/h (5 Bft)
03.08.2025 13:23 22,3 °C 22,0 °C 58 % 56 % 1016,0 hPa 0,0 l/m² 20,5 km/h (4 Bft) W-SW 238 ° 1 min 527 W/m² 12,8 °C 18,7 °C 25,7 km/h (4 Bft)
03.08.2025 13:25 22,3 °C 22,1 °C 58 % 56 % 1016,1 hPa 0,0 l/m² 21,4 km/h (4 Bft) W 264 ° 2 min 533 W/m² 12,9 °C 18,7 °C 32,2 km/h (5 Bft)
03.08.2025 13:27 22,3 °C 22,1 °C 58 % 56 % 1016,1 hPa 0,0 l/m² 22,4 km/h (4 Bft) SW 234 ° 2 min 524 W/m² 12,9 °C 18,6 °C 32,2 km/h (5 Bft)
03.08.2025 13:29 22,3 °C 22,1 °C 58 % 57 % 1016,1 hPa 0,0 l/m² 20,6 km/h (4 Bft) SW 227 ° 2 min 526 W/m² 13,2 °C 18,8 °C 30,6 km/h (5 Bft)
03.08.2025 13:30 22,3 °C 22,1 °C 58 % 56 % 1016,1 hPa 0,0 l/m² 24,9 km/h (4 Bft) SW 236 ° 1 min 524 W/m² 12,9 °C 18,2 °C 29,0 km/h (5 Bft)
03.08.2025 13:31 22,3 °C 22,1 °C 58 % 56 % 1016,1 hPa 0,0 l/m² 26,3 km/h (4 Bft) W-SW 242 ° 1 min 522 W/m² 12,9 °C 18,1 °C 30,6 km/h (5 Bft)
03.08.2025 13:32 22,3 °C 22,1 °C 58 % 56 % 1016,2 hPa 0,0 l/m² 19,2 km/h (3 Bft) W-SW 242 ° 1 min 519 W/m² 12,9 °C 19,0 °C 29,0 km/h (5 Bft)
03.08.2025 13:34 22,3 °C 22,1 °C 58 % 57 % 1016,1 hPa 0,0 l/m² 17,7 km/h (3 Bft) W-SW 258 ° 2 min 531 W/m² 13,2 °C 19,3 °C 24,1 km/h (4 Bft)
03.08.2025 13:36 22,3 °C 22,1 °C 58 % 56 % 1016,1 hPa 0,0 l/m² 18,5 km/h (3 Bft) W-SW 256 ° 2 min 548 W/m² 12,9 °C 19,2 °C 24,1 km/h (4 Bft)
03.08.2025 13:38 22,3 °C 22,1 °C 58 % 56 % 1016,1 hPa 0,0 l/m² 18,4 km/h (3 Bft) W-SW 246 ° 2 min 538 W/m² 12,9 °C 19,2 °C 29,0 km/h (5 Bft)
03.08.2025 13:40 22,3 °C 22,0 °C 58 % 56 % 1016,2 hPa 0,0 l/m² 17,6 km/h (3 Bft) SW 235 ° 2 min 513 W/m² 12,8 °C 19,2 °C 29,0 km/h (5 Bft)
03.08.2025 13:41 22,3 °C 22,0 °C 58 % 56 % 1016,1 hPa 0,0 l/m² 16,0 km/h (3 Bft) W-SW 246 ° 1 min 512 W/m² 12,8 °C 19,5 °C 25,7 km/h (4 Bft)
03.08.2025 13:42 22,3 °C 22,0 °C 59 % 55 % 1016,1 hPa 0,0 l/m² 17,8 km/h (3 Bft) W-SW 248 ° 1 min 503 W/m² 12,5 °C 19,2 °C 27,4 km/h (5 Bft)
03.08.2025 13:43 22,3 °C 22,0 °C 59 % 55 % 1016,2 hPa 0,0 l/m² 25,0 km/h (4 Bft) W-SW 252 ° 1 min 496 W/m² 12,5 °C 18,1 °C 30,6 km/h (5 Bft)
03.08.2025 13:45 22,3 °C 22,0 °C 58 % 55 % 1016,1 hPa 0,0 l/m² 21,2 km/h (4 Bft) W-SW 251 ° 2 min 489 W/m² 12,5 °C 18,6 °C 32,2 km/h (5 Bft)
03.08.2025 13:47 22,3 °C 22,0 °C 58 % 56 % 1016,1 hPa 0,0 l/m² 17,4 km/h (3 Bft) W 260 ° 2 min 399 W/m² 12,8 °C 19,2 °C 25,7 km/h (4 Bft)
03.08.2025 13:49 22,3 °C 22,0 °C 59 % 56 % 1016,2 hPa 0,0 l/m² 21,7 km/h (4 Bft) SW 236 ° 2 min 339 W/m² 12,8 °C 18,5 °C 33,8 km/h (5 Bft)
03.08.2025 13:50 22,3 °C 22,0 °C 59 % 56 % 1016,2 hPa 0,0 l/m² 23,6 km/h (4 Bft) W-SW 244 ° 1 min 299 W/m² 12,8 °C 18,3 °C 29,0 km/h (5 Bft)
03.08.2025 13:51 22,3 °C 21,9 °C 59 % 57 % 1016,2 hPa 0,0 l/m² 21,4 km/h (4 Bft) W 271 ° 1 min 299 W/m² 13,0 °C 18,4 °C 33,8 km/h (5 Bft)
03.08.2025 13:52 22,3 °C 21,9 °C 59 % 57 % 1016,2 hPa 0,0 l/m² 19,5 km/h (3 Bft) W-SW 257 ° 1 min 274 W/m² 13,0 °C 18,7 °C 24,1 km/h (4 Bft)
03.08.2025 13:54 22,3 °C 21,9 °C 59 % 57 % 1016,3 hPa 0,0 l/m² 20,7 km/h (4 Bft) SW 217 ° 2 min 264 W/m² 13,0 °C 18,6 °C 30,6 km/h (5 Bft)
03.08.2025 13:56 22,3 °C 21,8 °C 58 % 57 % 1016,2 hPa 0,0 l/m² 20,0 km/h (4 Bft) W-SW 243 ° 2 min 274 W/m² 12,9 °C 18,5 °C 30,6 km/h (5 Bft)
03.08.2025 13:58 22,3 °C 21,7 °C 59 % 57 % 1016,2 hPa 0,0 l/m² 20,1 km/h (4 Bft) W 274 ° 2 min 315 W/m² 12,8 °C 18,4 °C 33,8 km/h (5 Bft)
03.08.2025 14:00 22,3 °C 21,7 °C 59 % 58 % 1016,2 hPa 0,0 l/m² 17,5 km/h (3 Bft) SW 236 ° 2 min 338 W/m² 13,1 °C 18,8 °C 27,4 km/h (5 Bft)
03.08.2025 14:01 22,3 °C 21,7 °C 59 % 58 % 1016,2 hPa 0,0 l/m² 17,0 km/h (3 Bft) SW 228 ° 1 min 348 W/m² 13,1 °C 18,9 °C 27,4 km/h (5 Bft)
03.08.2025 14:02 22,3 °C 21,7 °C 59 % 58 % 1016,2 hPa 0,0 l/m² 17,5 km/h (3 Bft) SW 235 ° 1 min 355 W/m² 13,1 °C 18,8 °C 27,4 km/h (5 Bft)
03.08.2025 14:03 22,3 °C 21,6 °C 59 % 58 % 1016,2 hPa 0,0 l/m² 23,4 km/h (4 Bft) W-SW 248 ° 1 min 374 W/m² 13,0 °C 17,8 °C 33,8 km/h (5 Bft)
03.08.2025 14:05 22,3 °C 21,6 °C 59 % 58 % 1016,3 hPa 0,0 l/m² 15,0 km/h (3 Bft) W-SW 250 ° 2 min 422 W/m² 13,0 °C 19,2 °C 22,5 km/h (4 Bft)
03.08.2025 14:07 22,3 °C 21,6 °C 59 % 58 % 1016,3 hPa 0,0 l/m² 14,5 km/h (3 Bft) W 276 ° 2 min 438 W/m² 13,0 °C 19,3 °C 25,7 km/h (4 Bft)
03.08.2025 14:09 22,3 °C 21,5 °C 59 % 58 % 1016,3 hPa 0,0 l/m² 14,9 km/h (3 Bft) NW 316 ° 2 min 422 W/m² 12,9 °C 19,1 °C 25,7 km/h (4 Bft)
03.08.2025 14:10 22,3 °C 21,5 °C 59 % 58 % 1016,3 hPa 0,0 l/m² 15,8 km/h (3 Bft) W-NW 298 ° 1 min 403 W/m² 12,9 °C 18,9 °C 22,5 km/h (4 Bft)
03.08.2025 14:11 22,3 °C 21,5 °C 59 % 58 % 1016,3 hPa 0,0 l/m² 15,9 km/h (3 Bft) W 278 ° 1 min 381 W/m² 12,9 °C 18,9 °C 20,9 km/h (4 Bft)
03.08.2025 14:12 22,3 °C 21,5 °C 59 % 58 % 1016,3 hPa 0,0 l/m² 13,9 km/h (3 Bft) SW 235 ° 1 min 359 W/m² 12,9 °C 19,3 °C 24,1 km/h (4 Bft)
03.08.2025 14:14 22,3 °C 21,4 °C 59 % 59 % 1016,3 hPa 0,0 l/m² 17,2 km/h (3 Bft) W-SW 254 ° 2 min 311 W/m² 13,0 °C 18,5 °C 27,4 km/h (5 Bft)
03.08.2025 14:16 22,3 °C 21,4 °C 59 % 59 % 1016,4 hPa 0,0 l/m² 18,7 km/h (3 Bft) W-SW 246 ° 2 min 325 W/m² 13,0 °C 18,2 °C 29,0 km/h (5 Bft)
03.08.2025 14:18 22,3 °C 21,4 °C 59 % 59 % 1016,3 hPa 0,0 l/m² 16,6 km/h (3 Bft) W 268 ° 2 min 348 W/m² 13,0 °C 18,6 °C 24,1 km/h (4 Bft)
03.08.2025 14:20 22,3 °C 21,3 °C 59 % 60 % 1016,4 hPa 0,0 l/m² 13,9 km/h (3 Bft) W 266 ° 2 min 373 W/m² 13,2 °C 19,1 °C 25,7 km/h (4 Bft)
03.08.2025 14:21 22,3 °C 21,3 °C 59 % 60 % 1016,4 hPa 0,0 l/m² 12,9 km/h (3 Bft) SW 223 ° 1 min 362 W/m² 13,2 °C 19,3 °C 20,9 km/h (4 Bft)
03.08.2025 14:22 22,3 °C 21,3 °C 59 % 60 % 1016,4 hPa 0,0 l/m² 14,1 km/h (3 Bft) SW 226 ° 1 min 362 W/m² 13,2 °C 19,0 °C 22,5 km/h (4 Bft)
03.08.2025 14:23 22,3 °C 21,3 °C 59 % 60 % 1016,4 hPa 0,0 l/m² 23,4 km/h (4 Bft) W-SW 242 ° 1 min 364 W/m² 13,2 °C 17,4 °C 30,6 km/h (5 Bft)
03.08.2025 14:25 22,3 °C 21,3 °C 59 % 59 % 1016,4 hPa 0,0 l/m² 21,6 km/h (4 Bft) W 264 ° 2 min 353 W/m² 13,0 °C 17,6 °C 30,6 km/h (5 Bft)
03.08.2025 14:27 22,3 °C 21,3 °C 59 % 59 % 1016,5 hPa 0,0 l/m² 14,5 km/h (3 Bft) SW 232 ° 2 min 316 W/m² 13,0 °C 18,9 °C 25,7 km/h (4 Bft)
03.08.2025 14:29 22,3 °C 21,2 °C 59 % 60 % 1016,5 hPa 0,0 l/m² 19,2 km/h (3 Bft) SW 235 ° 2 min 299 W/m² 13,1 °C 17,9 °C 29,0 km/h (5 Bft)
03.08.2025 14:30 22,3 °C 21,2 °C 59 % 60 % 1016,5 hPa 0,0 l/m² 15,2 km/h (3 Bft) W 261 ° 1 min 294 W/m² 13,1 °C 18,7 °C 22,5 km/h (4 Bft)
03.08.2025 14:31 22,3 °C 21,2 °C 59 % 60 % 1016,5 hPa 0,0 l/m² 13,7 km/h (3 Bft) W 261 ° 1 min 287 W/m² 13,1 °C 19,0 °C 20,9 km/h (4 Bft)
03.08.2025 14:32 22,3 °C 21,2 °C 59 % 60 % 1016,5 hPa 0,0 l/m² 18,6 km/h (3 Bft) W-SW 244 ° 1 min 278 W/m² 13,1 °C 18,0 °C 22,5 km/h (4 Bft)
03.08.2025 14:34 22,3 °C 21,1 °C 59 % 60 % 1016,6 hPa 0,0 l/m² 19,3 km/h (3 Bft) W-SW 241 ° 2 min 278 W/m² 13,0 °C 17,7 °C 30,6 km/h (5 Bft)
03.08.2025 14:36 22,3 °C 21,0 °C 59 % 60 % 1016,5 hPa 0,0 l/m² 17,9 km/h (3 Bft) W-SW 257 ° 2 min 283 W/m² 12,9 °C 17,9 °C 27,4 km/h (5 Bft)
03.08.2025 14:38 22,3 °C 20,9 °C 59 % 60 % 1016,6 hPa 0,0 l/m² 17,9 km/h (3 Bft) W-SW 244 ° 2 min 294 W/m² 12,8 °C 17,7 °C 25,7 km/h (4 Bft)
03.08.2025 14:39 22,3 °C 20,9 °C 59 % 60 % 1016,5 hPa 0,0 l/m² 15,1 km/h (3 Bft) W-SW 245 ° 1 min 299 W/m² 12,8 °C 18,3 °C 19,3 km/h (3 Bft)
03.08.2025 14:40 22,3 °C 20,9 °C 59 % 60 % 1016,5 hPa 0,0 l/m² 13,8 km/h (3 Bft) W-SW 254 ° 1 min 306 W/m² 12,8 °C 18,6 °C 19,3 km/h (3 Bft)
03.08.2025 14:43 22,3 °C 20,8 °C 59 % 61 % 1016,5 hPa 0,0 l/m² 20,1 km/h (4 Bft) SW 232 ° 3 min 329 W/m² 13,0 °C 17,2 °C 32,2 km/h (5 Bft)
03.08.2025 14:45 22,3 °C 20,8 °C 59 % 61 % 1016,5 hPa 0,0 l/m² 16,8 km/h (3 Bft) W-SW 245 ° 2 min 341 W/m² 13,0 °C 17,8 °C 27,4 km/h (5 Bft)
03.08.2025 14:47 22,3 °C 20,7 °C 59 % 61 % 1016,5 hPa 0,0 l/m² 20,3 km/h (4 Bft) W-SW 240 ° 2 min 350 W/m² 12,9 °C 17,1 °C 30,6 km/h (5 Bft)
03.08.2025 14:49 22,3 °C 20,7 °C 59 % 62 % 1016,6 hPa 0,0 l/m² 16,5 km/h (3 Bft) W-SW 257 ° 2 min 355 W/m² 13,2 °C 17,8 °C 27,4 km/h (5 Bft)
03.08.2025 14:50 22,3 °C 20,7 °C 59 % 62 % 1016,5 hPa 0,0 l/m² 14,1 km/h (3 Bft) W-SW 243 ° 1 min 341 W/m² 13,2 °C 18,3 °C 20,9 km/h (4 Bft)
03.08.2025 14:51 22,3 °C 20,7 °C 59 % 62 % 1016,5 hPa 0,0 l/m² 13,7 km/h (3 Bft) SW 235 ° 1 min 327 W/m² 13,2 °C 18,4 °C 20,9 km/h (4 Bft)
03.08.2025 14:52 22,3 °C 20,7 °C 59 % 62 % 1016,5 hPa 0,0 l/m² 14,1 km/h (3 Bft) W-SW 245 ° 1 min 313 W/m² 13,2 °C 18,3 °C 24,1 km/h (4 Bft)
03.08.2025 14:54 22,3 °C 20,7 °C 59 % 62 % 1016,5 hPa 0,0 l/m² 20,7 km/h (4 Bft) W 260 ° 2 min 288 W/m² 13,2 °C 17,0 °C 29,0 km/h (5 Bft)
03.08.2025 14:56 22,3 °C 20,7 °C 59 % 62 % 1016,6 hPa 0,0 l/m² 21,6 km/h (4 Bft) W 261 ° 2 min 262 W/m² 13,2 °C 16,8 °C 29,0 km/h (5 Bft)
03.08.2025 14:58 22,3 °C 20,6 °C 59 % 62 % 1016,5 hPa 0,0 l/m² 15,4 km/h (3 Bft) W-SW 243 ° 2 min 258 W/m² 13,1 °C 17,9 °C 25,7 km/h (4 Bft)
03.08.2025 15:00 22,3 °C 20,6 °C 59 % 62 % 1016,6 hPa 0,0 l/m² 21,2 km/h (4 Bft) SW 227 ° 2 min 262 W/m² 13,1 °C 16,8 °C 30,6 km/h (5 Bft)
03.08.2025 15:01 22,3 °C 20,5 °C 59 % 62 % 1016,6 hPa 0,0 l/m² 23,2 km/h (4 Bft) W 260 ° 1 min 264 W/m² 13,0 °C 16,3 °C 30,6 km/h (5 Bft)
03.08.2025 15:02 22,3 °C 20,5 °C 59 % 62 % 1016,6 hPa 0,0 l/m² 20,8 km/h (4 Bft) W 264 ° 1 min 260 W/m² 13,0 °C 16,7 °C 25,7 km/h (4 Bft)
03.08.2025 15:03 22,3 °C 20,4 °C 59 % 62 % 1016,7 hPa 0,0 l/m² 16,0 km/h (3 Bft) W-SW 242 ° 1 min 258 W/m² 12,9 °C 17,5 °C 24,1 km/h (4 Bft)
03.08.2025 15:04 22,3 °C 20,4 °C 59 % 62 % 1016,5 hPa 0,0 l/m² 16,4 km/h (3 Bft) W 275 ° 1 min 255 W/m² 12,9 °C 17,4 °C 24,1 km/h (4 Bft)
03.08.2025 15:05 22,3 °C 20,4 °C 59 % 62 % 1016,6 hPa 0,0 l/m² 10,0 km/h (2 Bft) W-SW 246 ° 1 min 253 W/m² 12,9 °C 19,1 °C 17,7 km/h (3 Bft)
03.08.2025 15:06 22,3 °C 20,4 °C 59 % 63 % 1016,6 hPa 0,0 l/m² 19,9 km/h (4 Bft) W-SW 248 ° 1 min 250 W/m² 13,1 °C 16,7 °C 29,0 km/h (5 Bft)
03.08.2025 15:08 22,3 °C 20,3 °C 59 % 62 % 1016,6 hPa 0,0 l/m² 21,0 km/h (4 Bft) W-SW 241 ° 2 min 244 W/m² 12,8 °C 16,4 °C 30,6 km/h (5 Bft)
03.08.2025 15:09 22,3 °C 20,3 °C 59 % 62 % 1016,6 hPa 0,0 l/m² 17,5 km/h (3 Bft) W-SW 252 ° 1 min 244 W/m² 12,8 °C 17,1 °C 29,0 km/h (5 Bft)
03.08.2025 15:10 22,3 °C 20,3 °C 59 % 62 % 1016,7 hPa 0,0 l/m² 17,0 km/h (3 Bft) W-SW 256 ° 1 min 243 W/m² 12,8 °C 17,2 °C 25,7 km/h (4 Bft)
03.08.2025 15:12 22,3 °C 20,2 °C 59 % 62 % 1016,6 hPa 0,0 l/m² 20,0 km/h (4 Bft) W-SW 238 ° 2 min 244 W/m² 12,7 °C 16,5 °C 27,4 km/h (5 Bft)
03.08.2025 15:14 22,3 °C 20,2 °C 59 % 63 % 1016,7 hPa 0,0 l/m² 16,2 km/h (3 Bft) W-SW 256 ° 2 min 250 W/m² 12,9 °C 17,2 °C 25,7 km/h (4 Bft)
03.08.2025 15:15 22,3 °C 20,2 °C 59 % 63 % 1016,7 hPa 0,0 l/m² 17,9 km/h (3 Bft) SW 236 ° 1 min 250 W/m² 12,9 °C 16,9 °C 24,1 km/h (4 Bft)
03.08.2025 15:16 22,3 °C 20,2 °C 59 % 63 % 1016,7 hPa 0,0 l/m² 16,4 km/h (3 Bft) W-SW 251 ° 1 min 250 W/m² 12,9 °C 17,2 °C 30,6 km/h (5 Bft)
03.08.2025 15:17 22,3 °C 20,1 °C 59 % 63 % 1016,7 hPa 0,0 l/m² 14,5 km/h (3 Bft) W 281 ° 1 min 248 W/m² 12,8 °C 17,5 °C 24,1 km/h (4 Bft)
03.08.2025 15:18 22,3 °C 20,1 °C 58 % 63 % 1016,8 hPa 0,0 l/m² 15,5 km/h (3 Bft) W-SW 252 ° 1 min 246 W/m² 12,8 °C 17,3 °C 25,7 km/h (4 Bft)
03.08.2025 15:19 22,3 °C 20,1 °C 59 % 63 % 1016,7 hPa 0,0 l/m² 13,3 km/h (3 Bft) W-SW 253 ° 1 min 246 W/m² 12,8 °C 17,8 °C 22,5 km/h (4 Bft)
03.08.2025 15:20 22,3 °C 20,1 °C 59 % 63 % 1016,7 hPa 0,0 l/m² 16,2 km/h (3 Bft) W-NW 283 ° 1 min 246 W/m² 12,8 °C 17,1 °C 25,7 km/h (4 Bft)
03.08.2025 15:22 22,3 °C 20,1 °C 59 % 63 % 1016,7 hPa 0,0 l/m² 15,1 km/h (3 Bft) W 261 ° 2 min 241 W/m² 12,8 °C 17,3 °C 25,7 km/h (4 Bft)
03.08.2025 15:24 22,3 °C 20,1 °C 59 % 64 % 1016,8 hPa 0,0 l/m² 14,2 km/h (3 Bft) SW 219 ° 2 min 237 W/m² 13,1 °C 17,6 °C 20,9 km/h (4 Bft)
03.08.2025 15:25 22,3 °C 20,0 °C 59 % 64 % 1016,8 hPa 0,0 l/m² 16,4 km/h (3 Bft) W-SW 238 ° 1 min 221 W/m² 13,0 °C 16,9 °C 24,1 km/h (4 Bft)
03.08.2025 15:26 22,3 °C 20,0 °C 59 % 64 % 1016,8 hPa 0,0 l/m² 15,3 km/h (3 Bft) W-SW 246 ° 1 min 209 W/m² 13,0 °C 17,2 °C 25,7 km/h (4 Bft)
03.08.2025 15:27 22,3 °C 20,1 °C 58 % 64 % 1016,8 hPa 0,0 l/m² 20,9 km/h (4 Bft) W 273 ° 1 min 199 W/m² 13,1 °C 16,2 °C 30,6 km/h (5 Bft)
03.08.2025 15:28 22,3 °C 19,9 °C 59 % 64 % 1016,8 hPa 0,0 l/m² 24,7 km/h (4 Bft) SW 227 ° 1 min 190 W/m² 12,9 °C 15,3 °C 29,0 km/h (5 Bft)
03.08.2025 15:29 22,3 °C 19,9 °C 59 % 64 % 1016,7 hPa 0,0 l/m² 22,4 km/h (4 Bft) W-SW 251 ° 1 min 183 W/m² 12,9 °C 15,7 °C 32,2 km/h (5 Bft)
03.08.2025 15:31 22,3 °C 19,9 °C 58 % 64 % 1016,9 hPa 0,0 l/m² 19,7 km/h (3 Bft) W-SW 258 ° 2 min 162 W/m² 12,9 °C 16,1 °C 27,4 km/h (5 Bft)
03.08.2025 15:33 22,3 °C 19,8 °C 58 % 65 % 1016,8 hPa 0,0 l/m² 18,8 km/h (3 Bft) SW 219 ° 2 min 151 W/m² 13,0 °C 16,2 °C 33,8 km/h (5 Bft)
03.08.2025 15:34 22,3 °C 19,8 °C 59 % 65 % 1016,9 hPa 0,0 l/m² 21,8 km/h (4 Bft) W-SW 246 ° 1 min 149 W/m² 13,0 °C 15,6 °C 29,0 km/h (5 Bft)
03.08.2025 15:35 22,3 °C 19,8 °C 59 % 65 % 1016,8 hPa 0,0 l/m² 24,5 km/h (4 Bft) SW 234 ° 1 min 149 W/m² 13,0 °C 15,2 °C 35,4 km/h (5 Bft)
03.08.2025 15:36 22,3 °C 19,7 °C 59 % 65 % 1017,0 hPa 0,0 l/m² 23,1 km/h (4 Bft) SW 229 ° 1 min 155 W/m² 12,9 °C 15,3 °C 30,6 km/h (5 Bft)
03.08.2025 15:37 22,3 °C 19,7 °C 59 % 65 % 1017,0 hPa 0,0 l/m² 22,5 km/h (4 Bft) SW 229 ° 1 min 174 W/m² 12,9 °C 15,4 °C 29,0 km/h (5 Bft)
03.08.2025 15:38 22,3 °C 19,7 °C 59 % 65 % 1017,0 hPa 0,0 l/m² 22,3 km/h (4 Bft) W-NW 295 ° 1 min 185 W/m² 12,9 °C 15,4 °C 29,0 km/h (5 Bft)
03.08.2025 15:39 22,2 °C 19,6 °C 58 % 66 % 1017,0 hPa 0,0 l/m² 20,4 km/h (4 Bft) W-SW 238 ° 1 min 195 W/m² 13,1 °C 15,6 °C 25,7 km/h (4 Bft)
03.08.2025 15:40 22,3 °C 19,6 °C 59 % 66 % 1017,0 hPa 0,0 l/m² 17,3 km/h (3 Bft) SW 229 ° 1 min 202 W/m² 13,1 °C 16,2 °C 24,1 km/h (4 Bft)
03.08.2025 15:42 22,3 °C 19,5 °C 59 % 66 % 1017,0 hPa 0,0 l/m² 21,4 km/h (4 Bft) W 275 ° 2 min 209 W/m² 13,0 °C 15,3 °C 30,6 km/h (5 Bft)
03.08.2025 15:43 22,3 °C 19,5 °C 59 % 66 % 1017,0 hPa 0,0 l/m² 19,7 km/h (3 Bft) W-SW 247 ° 1 min 206 W/m² 13,0 °C 15,6 °C 24,1 km/h (4 Bft)
03.08.2025 15:44 22,3 °C 19,4 °C 58 % 67 % 1017,0 hPa 0,0 l/m² 21,9 km/h (4 Bft) W-SW 250 ° 1 min 202 W/m² 13,1 °C 15,1 °C 30,6 km/h (5 Bft)
03.08.2025 15:45 22,3 °C 19,4 °C 59 % 67 % 1017,0 hPa 0,0 l/m² 17,7 km/h (3 Bft) SW 226 ° 1 min 199 W/m² 13,1 °C 15,9 °C 32,2 km/h (5 Bft)
03.08.2025 15:46 22,3 °C 19,4 °C 59 % 67 % 1017,0 hPa 0,0 l/m² 23,1 km/h (4 Bft) SW 221 ° 1 min 197 W/m² 13,1 °C 14,9 °C 32,2 km/h (5 Bft)
03.08.2025 15:47 22,3 °C 19,4 °C 58 % 67 % 1017,0 hPa 0,0 l/m² 18,0 km/h (3 Bft) W-SW 245 ° 1 min 195 W/m² 13,1 °C 15,8 °C 29,0 km/h (5 Bft)
03.08.2025 15:48 22,2 °C 19,3 °C 58 % 67 % 1017,0 hPa 0,0 l/m² 16,6 km/h (3 Bft) SW 228 ° 1 min 193 W/m² 13,0 °C 16,0 °C 25,7 km/h (4 Bft)
03.08.2025 15:49 22,2 °C 19,3 °C 58 % 68 % 1017,0 hPa 0,0 l/m² 20,2 km/h (4 Bft) SW 231 ° 1 min 195 W/m² 13,2 °C 15,3 °C 29,0 km/h (5 Bft)
03.08.2025 15:51 22,3 °C 19,3 °C 58 % 68 % 1017,0 hPa 0,0 l/m² 21,1 km/h (4 Bft) W-SW 248 ° 2 min 195 W/m² 13,2 °C 15,1 °C 30,6 km/h (5 Bft)
03.08.2025 15:53 22,3 °C 19,2 °C 58 % 68 % 1017,0 hPa 0,0 l/m² 21,9 km/h (4 Bft) W-SW 242 ° 2 min 192 W/m² 13,1 °C 14,8 °C 30,6 km/h (5 Bft)
03.08.2025 15:54 22,2 °C 19,2 °C 58 % 68 % 1017,0 hPa 0,0 l/m² 21,8 km/h (4 Bft) SW 229 ° 1 min 186 W/m² 13,1 °C 14,8 °C 25,7 km/h (4 Bft)
03.08.2025 15:55 22,2 °C 19,1 °C 59 % 69 % 1017,1 hPa 0,0 l/m² 14,1 km/h (3 Bft) W-SW 256 ° 1 min 183 W/m² 13,3 °C 16,4 °C 19,3 km/h (3 Bft)
03.08.2025 15:56 22,3 °C 19,1 °C 58 % 69 % 1017,0 hPa 0,0 l/m² 19,2 km/h (3 Bft) W-SW 239 ° 1 min 181 W/m² 13,3 °C 15,2 °C 25,7 km/h (4 Bft)
03.08.2025 15:57 22,2 °C 19,1 °C 59 % 69 % 1017,1 hPa 0,0 l/m² 18,9 km/h (3 Bft) W-SW 243 ° 1 min 179 W/m² 13,3 °C 15,3 °C 22,5 km/h (4 Bft)
03.08.2025 15:58 22,3 °C 19,1 °C 58 % 70 % 1017,2 hPa 0,0 l/m² 20,5 km/h (4 Bft) W 259 ° 1 min 179 W/m² 13,5 °C 14,9 °C 29,0 km/h (5 Bft)
03.08.2025 15:59 22,2 °C 19,1 °C 58 % 70 % 1017,1 hPa 0,0 l/m² 18,2 km/h (3 Bft) W-SW 244 ° 1 min 181 W/m² 13,5 °C 15,4 °C 22,5 km/h (4 Bft)
03.08.2025 16:01 22,2 °C 19,0 °C 58 % 70 % 1017,2 hPa 0,0 l/m² 21,3 km/h (4 Bft) SW 233 ° 2 min 185 W/m² 13,4 °C 14,7 °C 29,0 km/h (5 Bft)
03.08.2025 16:03 22,3 °C 18,9 °C 58 % 71 % 1017,2 hPa 0,0 l/m² 14,4 km/h (3 Bft) W 259 ° 2 min 186 W/m² 13,5 °C 16,1 °C 22,5 km/h (4 Bft)
03.08.2025 16:04 22,3 °C 18,9 °C 58 % 71 % 1017,2 hPa 0,0 l/m² 17,5 km/h (3 Bft) W-SW 247 ° 1 min 186 W/m² 13,5 °C 15,3 °C 25,7 km/h (4 Bft)
03.08.2025 16:05 22,2 °C 18,9 °C 58 % 71 % 1017,2 hPa 0,0 l/m² 15,2 km/h (3 Bft) W-SW 239 ° 1 min 186 W/m² 13,5 °C 15,9 °C 24,1 km/h (4 Bft)
03.08.2025 16:06 22,2 °C 18,8 °C 58 % 71 % 1017,1 hPa 0,0 l/m² 16,3 km/h (3 Bft) SW 236 ° 1 min 181 W/m² 13,4 °C 15,5 °C 24,1 km/h (4 Bft)
03.08.2025 16:07 22,2 °C 18,8 °C 59 % 72 % 1017,2 hPa 0,0 l/m² 14,9 km/h (3 Bft) W-SW 246 ° 1 min 174 W/m² 13,6 °C 15,8 °C 20,9 km/h (4 Bft)
03.08.2025 16:08 22,3 °C 18,8 °C 59 % 72 % 1017,2 hPa 0,0 l/m² 21,9 km/h (4 Bft) W 263 ° 1 min 172 W/m² 13,6 °C 14,3 °C 27,4 km/h (5 Bft)
03.08.2025 16:09 22,3 °C 18,7 °C 59 % 72 % 1017,2 hPa 0,0 l/m² 20,8 km/h (4 Bft) W-SW 252 ° 1 min 172 W/m² 13,5 °C 14,4 °C 32,2 km/h (5 Bft)
03.08.2025 16:11 22,2 °C 18,6 °C 58 % 72 % 1017,3 hPa 0,0 l/m² 18,9 km/h (3 Bft) W 263 ° 2 min 183 W/m² 13,4 °C 14,6 °C 25,7 km/h (4 Bft)
03.08.2025 16:12 22,2 °C 18,6 °C 58 % 72 % 1017,2 hPa 0,0 l/m² 17,4 km/h (3 Bft) W 261 ° 1 min 193 W/m² 13,4 °C 15,0 °C 25,7 km/h (4 Bft)
03.08.2025 16:13 22,2 °C 18,5 °C 58 % 72 % 1017,2 hPa 0,0 l/m² 17,5 km/h (3 Bft) SW 236 ° 1 min 195 W/m² 13,4 °C 14,8 °C 27,4 km/h (5 Bft)
03.08.2025 16:14 22,2 °C 18,4 °C 58 % 73 % 1017,3 hPa 0,0 l/m² 18,5 km/h (3 Bft) W-SW 242 ° 1 min 195 W/m² 13,5 °C 14,5 °C 30,6 km/h (5 Bft)
03.08.2025 16:15 22,2 °C 18,4 °C 58 % 73 % 1017,3 hPa 0,0 l/m² 22,6 km/h (4 Bft) W-SW 246 ° 1 min 195 W/m² 13,5 °C 13,6 °C 30,6 km/h (5 Bft)
03.08.2025 16:16 22,2 °C 18,3 °C 58 % 73 % 1017,3 hPa 0,0 l/m² 22,6 km/h (4 Bft) W 259 ° 1 min 195 W/m² 13,4 °C 13,5 °C 29,0 km/h (5 Bft)
03.08.2025 16:17 22,2 °C 18,3 °C 58 % 73 % 1017,3 hPa 0,0 l/m² 22,6 km/h (4 Bft) W-SW 251 ° 1 min 193 W/m² 13,4 °C 13,5 °C 30,6 km/h (5 Bft)
03.08.2025 16:18 22,2 °C 18,2 °C 58 % 73 % 1017,3 hPa 0,0 l/m² 21,2 km/h (4 Bft) W-SW 252 ° 1 min 188 W/m² 13,3 °C 13,6 °C 30,6 km/h (5 Bft)
03.08.2025 16:19 22,2 °C 18,1 °C 58 % 73 % 1017,3 hPa 0,0 l/m² 19,5 km/h (3 Bft) W-SW 247 ° 1 min 183 W/m² 13,2 °C 13,9 °C 24,1 km/h (4 Bft)
03.08.2025 16:21 22,2 °C 18,1 °C 59 % 74 % 1017,3 hPa 0,0 l/m² 15,3 km/h (3 Bft) SW 221 ° 2 min 174 W/m² 13,4 °C 14,9 °C 27,4 km/h (5 Bft)
03.08.2025 16:23 22,2 °C 17,9 °C 59 % 74 % 1017,4 hPa 0,0 l/m² 16,6 km/h (3 Bft) W-SW 257 ° 2 min 167 W/m² 13,2 °C 14,3 °C 24,1 km/h (4 Bft)
03.08.2025 16:24 22,2 °C 17,9 °C 59 % 75 % 1017,4 hPa 0,0 l/m² 16,6 km/h (3 Bft) W-SW 254 ° 1 min 160 W/m² 13,4 °C 14,3 °C 25,7 km/h (4 Bft)
03.08.2025 16:25 22,2 °C 17,9 °C 58 % 74 % 1017,4 hPa 0,0 l/m² 15,4 km/h (3 Bft) W-NW 282 ° 1 min 156 W/m² 13,2 °C 14,6 °C 20,9 km/h (4 Bft)
03.08.2025 16:26 22,2 °C 17,9 °C 58 % 74 % 1017,3 hPa 0,0 l/m² 16,2 km/h (3 Bft) SW 232 ° 1 min 151 W/m² 13,2 °C 14,4 °C 22,5 km/h (4 Bft)
03.08.2025 16:27 22,2 °C 17,9 °C 58 % 75 % 1017,3 hPa 0,0 l/m² 13,6 km/h (3 Bft) W-SW 242 ° 1 min 148 W/m² 13,4 °C 15,1 °C 16,1 km/h (3 Bft)
03.08.2025 16:28 22,2 °C 17,8 °C 58 % 75 % 1017,3 hPa 0,0 l/m² 14,2 km/h (3 Bft) W-SW 252 ° 1 min 146 W/m² 13,3 °C 14,8 °C 20,9 km/h (4 Bft)
03.08.2025 16:29 22,2 °C 17,8 °C 58 % 75 % 1017,3 hPa 0,0 l/m² 19,8 km/h (3 Bft) SW 235 ° 1 min 144 W/m² 13,3 °C 13,4 °C 25,7 km/h (4 Bft)
03.08.2025 16:31 22,2 °C 17,8 °C 58 % 75 % 1017,4 hPa 0,0 l/m² 15,4 km/h (3 Bft) W-SW 258 ° 2 min 141 W/m² 13,3 °C 14,5 °C 27,4 km/h (5 Bft)
03.08.2025 16:33 22,2 °C 17,7 °C 58 % 76 % 1017,3 hPa 0,0 l/m² 16,8 km/h (3 Bft) W 264 ° 2 min 142 W/m² 13,4 °C 14,0 °C 24,1 km/h (4 Bft)
03.08.2025 16:34 22,2 °C 17,7 °C 58 % 76 % 1017,3 hPa 0,0 l/m² 19,0 km/h (3 Bft) W 261 ° 1 min 144 W/m² 13,4 °C 13,5 °C 24,1 km/h (4 Bft)
03.08.2025 16:35 22,2 °C 17,6 °C 59 % 76 % 1017,2 hPa 0,0 l/m² 20,6 km/h (4 Bft) W-SW 256 ° 1 min 142 W/m² 13,3 °C 13,0 °C 29,0 km/h (5 Bft)
03.08.2025 16:36 22,2 °C 17,6 °C 58 % 76 % 1017,3 hPa 0,0 l/m² 15,0 km/h (3 Bft) W-SW 254 ° 1 min 135 W/m² 13,3 °C 14,3 °C 19,3 km/h (3 Bft)
03.08.2025 16:37 22,2 °C 17,6 °C 58 % 76 % 1017,3 hPa 0,0 l/m² 17,5 km/h (3 Bft) SW 225 ° 1 min 132 W/m² 13,3 °C 13,7 °C 25,7 km/h (4 Bft)
03.08.2025 16:38 22,2 °C 17,6 °C 58 % 76 % 1017,2 hPa 0,0 l/m² 13,5 km/h (3 Bft) W-SW 237 ° 1 min 128 W/m² 13,3 °C 14,8 °C 20,9 km/h (4 Bft)
03.08.2025 16:39 22,2 °C 17,5 °C 59 % 77 % 1017,2 hPa 0,0 l/m² 16,6 km/h (3 Bft) W-SW 240 ° 1 min 125 W/m² 13,4 °C 13,8 °C 24,1 km/h (4 Bft)
03.08.2025 16:41 22,2 °C 17,4 °C 59 % 77 % 1017,3 hPa 0,0 l/m² 16,3 km/h (3 Bft) SW 236 ° 2 min 123 W/m² 13,3 °C 13,7 °C 24,1 km/h (4 Bft)
03.08.2025 16:43 22,2 °C 17,4 °C 59 % 78 % 1017,2 hPa 0,0 l/m² 16,8 km/h (3 Bft) SW 233 ° 2 min 125 W/m² 13,5 °C 13,6 °C 20,9 km/h (4 Bft)
03.08.2025 16:44 22,2 °C 17,4 °C 59 % 78 % 1017,2 hPa 0,0 l/m² 13,5 km/h (3 Bft) SW 236 ° 1 min 127 W/m² 13,5 °C 14,5 °C 17,7 km/h (3 Bft)
03.08.2025 16:45 22,2 °C 17,3 °C 59 % 78 % 1017,2 hPa 0,0 l/m² 17,5 km/h (3 Bft) W-SW 238 ° 1 min 127 W/m² 13,4 °C 13,3 °C 20,9 km/h (4 Bft)
03.08.2025 16:46 22,2 °C 17,3 °C 59 % 78 % 1017,3 hPa 0,0 l/m² 16,2 km/h (3 Bft) W-SW 248 ° 1 min 128 W/m² 13,4 °C 13,6 °C 22,5 km/h (4 Bft)
03.08.2025 16:47 22,2 °C 17,3 °C 59 % 79 % 1017,2 hPa 0,0 l/m² 18,0 km/h (3 Bft) W-SW 240 ° 1 min 130 W/m² 13,6 °C 13,2 °C 22,5 km/h (4 Bft)
03.08.2025 16:48 22,2 °C 17,3 °C 59 % 79 % 1017,2 hPa 0,0 l/m² 18,7 km/h (3 Bft) W-SW 242 ° 1 min 128 W/m² 13,6 °C 13,0 °C 25,7 km/h (4 Bft)
03.08.2025 16:49 22,2 °C 17,2 °C 59 % 79 % 1017,2 hPa 0,0 l/m² 18,2 km/h (3 Bft) W-SW 242 ° 1 min 128 W/m² 13,5 °C 13,0 °C 25,7 km/h (4 Bft)
03.08.2025 16:51 22,2 °C 17,2 °C 59 % 80 % 1017,2 hPa 0,0 l/m² 13,0 km/h (3 Bft) W-SW 253 ° 2 min 120 W/m² 13,7 °C 14,5 °C 22,5 km/h (4 Bft)
03.08.2025 16:53 22,2 °C 17,1 °C 59 % 80 % 1017,2 hPa 0,0 l/m² 16,1 km/h (3 Bft) W-SW 254 ° 2 min 113 W/m² 13,6 °C 13,4 °C 25,7 km/h (4 Bft)
03.08.2025 16:54 22,2 °C 17,1 °C 59 % 80 % 1017,2 hPa 0,0 l/m² 15,2 km/h (3 Bft) W-SW 246 ° 1 min 111 W/m² 13,6 °C 13,7 °C 20,9 km/h (4 Bft)
03.08.2025 16:55 22,2 °C 17,1 °C 59 % 80 % 1017,2 hPa 0,0 l/m² 14,0 km/h (3 Bft) SW 223 ° 1 min 109 W/m² 13,6 °C 14,0 °C 17,7 km/h (3 Bft)
03.08.2025 16:56 22,2 °C 17,1 °C 59 % 80 % 1017,2 hPa 0,0 l/m² 15,5 km/h (3 Bft) SW 231 ° 1 min 105 W/m² 13,6 °C 13,6 °C 19,3 km/h (3 Bft)
03.08.2025 16:57 22,2 °C 17,0 °C 59 % 80 % 1017,2 hPa 0,0 l/m² 15,2 km/h (3 Bft) W-SW 245 ° 1 min 104 W/m² 13,5 °C 13,6 °C 17,7 km/h (3 Bft)
03.08.2025 16:58 22,2 °C 16,9 °C 58 % 81 % 1017,2 hPa 0,0 l/m² 12,2 km/h (2 Bft) SW 223 ° 1 min 102 W/m² 13,6 °C 14,4 °C 17,7 km/h (3 Bft)
03.08.2025 16:59 22,2 °C 16,9 °C 59 % 81 % 1017,3 hPa 0,0 l/m² 10,1 km/h (2 Bft) W-NW 292 ° 1 min 100 W/m² 13,6 °C 15,2 °C 14,5 km/h (3 Bft)
03.08.2025 17:01 22,2 °C 16,9 °C 59 % 81 % 1017,2 hPa 0,0 l/m² 13,6 km/h (3 Bft) W-SW 240 ° 2 min 97 W/m² 13,6 °C 13,9 °C 19,3 km/h (3 Bft)
03.08.2025 17:02 22,2 °C 16,9 °C 59 % 81 % 1017,2 hPa 0,0 l/m² 10,8 km/h (2 Bft) SW 220 ° 1 min 95 W/m² 13,6 °C 14,9 °C 17,7 km/h (3 Bft)
03.08.2025 17:03 22,2 °C 16,8 °C 59 % 81 % 1017,2 hPa 0,0 l/m² 9,6 km/h (2 Bft) SW 233 ° 1 min 95 W/m² 13,5 °C 15,3 °C 14,5 km/h (3 Bft)
03.08.2025 17:04 22,2 °C 16,8 °C 59 % 81 % 1017,2 hPa 0,0 l/m² 10,9 km/h (2 Bft) W-SW 240 ° 1 min 93 W/m² 13,5 °C 14,8 °C 16,1 km/h (3 Bft)
03.08.2025 17:05 22,2 °C 16,8 °C 59 % 82 % 1017,3 hPa 0,0 l/m² 9,9 km/h (2 Bft) SW 229 ° 1 min 95 W/m² 13,7 °C 15,1 °C 16,1 km/h (3 Bft)
03.08.2025 17:06 22,2 °C 16,8 °C 59 % 82 % 1017,1 hPa 0,0 l/m² 10,7 km/h (2 Bft) SW 230 ° 1 min 95 W/m² 13,7 °C 14,8 °C 16,1 km/h (3 Bft)
03.08.2025 17:08 22,2 °C 16,7 °C 59 % 82 % 1017,2 hPa 0,0 l/m² 11,4 km/h (2 Bft) SW 217 ° 2 min 100 W/m² 13,6 °C 14,4 °C 19,3 km/h (3 Bft)
03.08.2025 17:09 22,2 °C 16,7 °C 59 % 82 % 1017,2 hPa 0,0 l/m² 13,6 km/h (3 Bft) SW 218 ° 1 min 102 W/m² 13,6 °C 13,7 °C 17,7 km/h (3 Bft)
03.08.2025 17:11 22,2 °C 16,6 °C 59 % 82 % 1017,2 hPa 0,0 l/m² 11,8 km/h (2 Bft) W-SW 245 ° 2 min 105 W/m² 13,5 °C 14,2 °C 17,7 km/h (3 Bft)
03.08.2025 17:12 22,2 °C 16,6 °C 59 % 82 % 1017,2 hPa 0,0 l/m² 9,1 km/h (2 Bft) SW 217 ° 1 min 105 W/m² 13,5 °C 15,3 °C 14,5 km/h (3 Bft)
03.08.2025 17:13 22,2 °C 16,6 °C 59 % 83 % 1017,2 hPa 0,0 l/m² 13,1 km/h (3 Bft) SW 233 ° 1 min 105 W/m² 13,7 °C 13,7 °C 17,7 km/h (3 Bft)
03.08.2025 17:14 22,2 °C 16,6 °C 59 % 83 % 1017,2 hPa 0,0 l/m² 11,9 km/h (2 Bft) W-SW 251 ° 1 min 104 W/m² 13,7 °C 14,2 °C 17,7 km/h (3 Bft)
03.08.2025 17:15 22,2 °C 16,6 °C 59 % 83 % 1017,2 hPa 0,0 l/m² 17,0 km/h (3 Bft) SW 223 ° 1 min 102 W/m² 13,7 °C 12,6 °C 22,5 km/h (4 Bft)
03.08.2025 17:16 22,2 °C 16,5 °C 59 % 83 % 1017,3 hPa 0,0 l/m² 13,4 km/h (3 Bft) SW 220 ° 1 min 100 W/m² 13,6 °C 13,5 °C 17,7 km/h (3 Bft)
03.08.2025 17:17 22,2 °C 16,5 °C 59 % 83 % 1017,2 hPa 0,0 l/m² 11,6 km/h (2 Bft) W-SW 237 ° 1 min 98 W/m² 13,6 °C 14,1 °C 14,5 km/h (3 Bft)
03.08.2025 17:18 22,2 °C 16,4 °C 59 % 83 % 1017,3 hPa 0,0 l/m² 11,8 km/h (2 Bft) SW 225 ° 1 min 97 W/m² 13,5 °C 14,0 °C 16,1 km/h (3 Bft)
03.08.2025 17:19 22,2 °C 16,4 °C 58 % 83 % 1017,3 hPa 0,0 l/m² 16,2 km/h (3 Bft) SW 214 ° 1 min 95 W/m² 13,5 °C 12,5 °C 22,5 km/h (4 Bft)
03.08.2025 17:21 22,2 °C 16,4 °C 59 % 83 % 1017,3 hPa 0,0 l/m² 14,6 km/h (3 Bft) W-SW 253 ° 2 min 91 W/m² 13,5 °C 13,0 °C 24,1 km/h (4 Bft)
03.08.2025 17:23 22,2 °C 16,4 °C 59 % 83 % 1017,3 hPa 0,0 l/m² 14,7 km/h (3 Bft) SW 232 ° 2 min 88 W/m² 13,5 °C 13,0 °C 27,4 km/h (5 Bft)
03.08.2025 17:24 22,2 °C 16,4 °C 59 % 84 % 1017,3 hPa 0,0 l/m² 14,3 km/h (3 Bft) SW 235 ° 1 min 86 W/m² 13,7 °C 13,1 °C 19,3 km/h (3 Bft)
03.08.2025 17:25 22,2 °C 16,4 °C 59 % 84 % 1017,3 hPa 0,0 l/m² 11,7 km/h (2 Bft) SW 229 ° 1 min 86 W/m² 13,7 °C 14,0 °C 17,7 km/h (3 Bft)
03.08.2025 17:26 22,2 °C 16,3 °C 59 % 84 % 1017,3 hPa 0,0 l/m² 13,9 km/h (3 Bft) SW 228 ° 1 min 86 W/m² 13,6 °C 13,1 °C 17,7 km/h (3 Bft)
03.08.2025 17:27 22,2 °C 16,3 °C 59 % 84 % 1017,3 hPa 0,0 l/m² 12,3 km/h (2 Bft) SW 223 ° 1 min 86 W/m² 13,6 °C 13,7 °C 17,7 km/h (3 Bft)
03.08.2025 17:28 22,2 °C 16,3 °C 59 % 84 % 1017,3 hPa 0,0 l/m² 14,1 km/h (3 Bft) SW 230 ° 1 min 86 W/m² 13,6 °C 13,0 °C 19,3 km/h (3 Bft)
03.08.2025 17:29 22,1 °C 16,3 °C 58 % 84 % 1017,3 hPa 0,0 l/m² 9,0 km/h (2 Bft) SW 227 ° 1 min 86 W/m² 13,6 °C 15,0 °C 14,5 km/h (3 Bft)
03.08.2025 17:31 22,2 °C 16,3 °C 59 % 84 % 1017,2 hPa 0,0 l/m² 10,4 km/h (2 Bft) SW 219 ° 2 min 86 W/m² 13,6 °C 14,4 °C 17,7 km/h (3 Bft)
03.08.2025 17:33 22,2 °C 16,3 °C 59 % 85 % 1017,3 hPa 0,0 l/m² 16,8 km/h (3 Bft) W-SW 239 ° 2 min 86 W/m² 13,8 °C 12,2 °C 22,5 km/h (4 Bft)
03.08.2025 17:34 22,2 °C 16,3 °C 59 % 85 % 1017,3 hPa 0,0 l/m² 16,2 km/h (3 Bft) SW 229 ° 1 min 91 W/m² 13,8 °C 12,4 °C 22,5 km/h (4 Bft)
03.08.2025 17:35 22,2 °C 16,3 °C 59 % 85 % 1017,3 hPa 0,0 l/m² 10,7 km/h (2 Bft) SW 234 ° 1 min 93 W/m² 13,8 °C 14,3 °C 14,5 km/h (3 Bft)
03.08.2025 17:36 22,2 °C 16,3 °C 59 % 85 % 1017,3 hPa 0,0 l/m² 10,7 km/h (2 Bft) SW 222 ° 1 min 97 W/m² 13,8 °C 14,3 °C 14,5 km/h (3 Bft)
03.08.2025 17:37 22,2 °C 16,3 °C 59 % 85 % 1017,3 hPa 0,0 l/m² 11,4 km/h (2 Bft) SW 236 ° 1 min 100 W/m² 13,8 °C 14,0 °C 20,9 km/h (4 Bft)
03.08.2025 17:38 22,2 °C 16,3 °C 59 % 85 % 1017,4 hPa 0,0 l/m² 12,5 km/h (2 Bft) SW 217 ° 1 min 104 W/m² 13,8 °C 13,6 °C 20,9 km/h (4 Bft)
03.08.2025 17:39 22,1 °C 16,3 °C 59 % 85 % 1017,3 hPa 0,0 l/m² 10,0 km/h (2 Bft) SW 231 ° 1 min 109 W/m² 13,8 °C 14,6 °C 12,9 km/h (3 Bft)
03.08.2025 17:41 22,1 °C 16,3 °C 59 % 86 % 1017,4 hPa 0,0 l/m² 10,2 km/h (2 Bft) SW 234 ° 2 min 118 W/m² 14,0 °C 14,5 °C 19,3 km/h (3 Bft)
03.08.2025 17:43 22,1 °C 16,3 °C 59 % 86 % 1017,4 hPa 0,2 l/m² 12,2 km/h (2 Bft) SW 223 ° 2 min 123 W/m² 14,0 °C 13,7 °C 17,7 km/h (3 Bft)
03.08.2025 17:44 22,1 °C 16,3 °C 59 % 86 % 1017,5 hPa 0,0 l/m² 15,4 km/h (3 Bft) SW 226 ° 1 min 123 W/m² 14,0 °C 12,6 °C 19,3 km/h (3 Bft)
03.08.2025 17:45 22,1 °C 16,3 °C 59 % 86 % 1017,5 hPa 0,0 l/m² 15,4 km/h (3 Bft) SW 222 ° 1 min 123 W/m² 14,0 °C 12,6 °C 24,1 km/h (4 Bft)
03.08.2025 17:46 22,2 °C 16,3 °C 59 % 86 % 1017,4 hPa 0,0 l/m² 12,3 km/h (2 Bft) SW 229 ° 1 min 125 W/m² 14,0 °C 13,7 °C 17,7 km/h (3 Bft)
03.08.2025 17:47 22,2 °C 16,3 °C 59 % 86 % 1017,4 hPa 0,0 l/m² 8,6 km/h (2 Bft) SW 215 ° 1 min 125 W/m² 14,0 °C 15,2 °C 11,3 km/h (2 Bft)
03.08.2025 17:48 22,1 °C 16,3 °C 59 % 86 % 1017,4 hPa 0,0 l/m² 11,5 km/h (2 Bft) W-SW 254 ° 1 min 125 W/m² 14,0 °C 14,0 °C 16,1 km/h (3 Bft)
03.08.2025 17:49 22,2 °C 16,3 °C 59 % 87 % 1017,4 hPa 0,0 l/m² 14,9 km/h (3 Bft) SW 223 ° 1 min 127 W/m² 14,1 °C 12,8 °C 22,5 km/h (4 Bft)
03.08.2025 17:51 22,2 °C 16,3 °C 59 % 87 % 1017,4 hPa 0,0 l/m² 15,7 km/h (3 Bft) SW 232 ° 2 min 130 W/m² 14,1 °C 12,6 °C 22,5 km/h (4 Bft)
03.08.2025 17:53 22,1 °C 16,3 °C 59 % 87 % 1017,4 hPa 0,0 l/m² 13,2 km/h (3 Bft) SW 221 ° 2 min 135 W/m² 14,1 °C 13,3 °C 17,7 km/h (3 Bft)
03.08.2025 17:54 22,1 °C 16,2 °C 59 % 87 % 1017,3 hPa 0,0 l/m² 12,5 km/h (2 Bft) SW 232 ° 1 min 137 W/m² 14,0 °C 13,5 °C 17,7 km/h (3 Bft)
03.08.2025 17:55 22,2 °C 16,2 °C 59 % 87 % 1017,4 hPa 0,0 l/m² 10,0 km/h (2 Bft) SW 236 ° 1 min 137 W/m² 14,0 °C 14,4 °C 14,5 km/h (3 Bft)
03.08.2025 17:56 22,1 °C 16,2 °C 59 % 87 % 1017,4 hPa 0,0 l/m² 13,8 km/h (3 Bft) SW 221 ° 1 min 137 W/m² 14,0 °C 13,0 °C 19,3 km/h (3 Bft)
03.08.2025 17:57 22,1 °C 16,2 °C 59 % 87 % 1017,4 hPa 0,0 l/m² 14,0 km/h (3 Bft) W-SW 254 ° 1 min 135 W/m² 14,0 °C 13,0 °C 17,7 km/h (3 Bft)
03.08.2025 17:58 22,1 °C 16,2 °C 59 % 87 % 1017,4 hPa 0,0 l/m² 12,0 km/h (2 Bft) W 261 ° 1 min 130 W/m² 14,0 °C 13,7 °C 17,7 km/h (3 Bft)
03.08.2025 17:59 22,1 °C 16,2 °C 59 % 87 % 1017,4 hPa 0,0 l/m² 10,3 km/h (2 Bft) SW 227 ° 1 min 127 W/m² 14,0 °C 14,3 °C 14,5 km/h (3 Bft)
03.08.2025 18:01 22,2 °C 16,2 °C 59 % 87 % 1017,4 hPa 0,0 l/m² 12,3 km/h (2 Bft) SW 232 ° 2 min 120 W/m² 14,0 °C 13,5 °C 19,3 km/h (3 Bft)
03.08.2025 18:03 22,2 °C 16,2 °C 59 % 87 % 1017,5 hPa 0,0 l/m² 9,5 km/h (2 Bft) SW 215 ° 2 min 111 W/m² 14,0 °C 14,7 °C 16,1 km/h (3 Bft)
03.08.2025 18:04 22,2 °C 16,2 °C 59 % 87 % 1017,4 hPa 0,0 l/m² 12,8 km/h (3 Bft) S-SW 197 ° 1 min 109 W/m² 14,0 °C 13,4 °C 17,7 km/h (3 Bft)
03.08.2025 18:05 22,1 °C 16,2 °C 59 % 87 % 1017,4 hPa 0,0 l/m² 13,9 km/h (3 Bft) SW 215 ° 1 min 111 W/m² 14,0 °C 13,0 °C 16,1 km/h (3 Bft)
03.08.2025 18:06 22,2 °C 16,2 °C 59 % 87 % 1017,4 hPa 0,0 l/m² 11,5 km/h (2 Bft) S-SW 211 ° 1 min 113 W/m² 14,0 °C 13,8 °C 16,1 km/h (3 Bft)
03.08.2025 18:07 22,2 °C 16,2 °C 59 % 88 % 1017,4 hPa 0,0 l/m² 10,3 km/h (2 Bft) SW 225 ° 1 min 118 W/m² 14,2 °C 14,3 °C 16,1 km/h (3 Bft)
03.08.2025 18:08 22,2 °C 16,2 °C 59 % 88 % 1017,4 hPa 0,0 l/m² 12,5 km/h (2 Bft) W-SW 242 ° 1 min 121 W/m² 14,2 °C 13,5 °C 17,7 km/h (3 Bft)
03.08.2025 18:09 22,2 °C 16,2 °C 59 % 88 % 1017,3 hPa 0,0 l/m² 13,7 km/h (3 Bft) S-SW 206 ° 1 min 128 W/m² 14,2 °C 13,1 °C 16,1 km/h (3 Bft)
03.08.2025 18:11 22,2 °C 16,1 °C 59 % 88 % 1017,3 hPa 0,0 l/m² 14,1 km/h (3 Bft) SW 225 ° 2 min 121 W/m² 14,1 °C 12,8 °C 19,3 km/h (3 Bft)
03.08.2025 18:13 22,2 °C 16,1 °C 59 % 88 % 1017,4 hPa 0,0 l/m² 11,4 km/h (2 Bft) W-SW 241 ° 2 min 105 W/m² 14,1 °C 13,8 °C 14,5 km/h (3 Bft)
03.08.2025 18:14 22,2 °C 16,1 °C 59 % 88 % 1017,4 hPa 0,0 l/m² 9,6 km/h (2 Bft) S-SW 200 ° 1 min 97 W/m² 14,1 °C 14,5 °C 11,3 km/h (2 Bft)
03.08.2025 18:15 22,2 °C 16,1 °C 59 % 88 % 1017,4 hPa 0,0 l/m² 9,7 km/h (2 Bft) SW 227 ° 1 min 83 W/m² 14,1 °C 14,5 °C 11,3 km/h (2 Bft)
03.08.2025 18:16 22,2 °C 16,1 °C 59 % 88 % 1017,4 hPa 0,0 l/m² 10,7 km/h (2 Bft) SW 229 ° 1 min 77 W/m² 14,1 °C 14,0 °C 14,5 km/h (3 Bft)
03.08.2025 18:17 22,2 °C 16,1 °C 59 % 88 % 1017,4 hPa 0,0 l/m² 9,1 km/h (2 Bft) S-SW 212 ° 1 min 72 W/m² 14,1 °C 14,7 °C 11,3 km/h (2 Bft)
03.08.2025 18:18 22,2 °C 16,1 °C 59 % 88 % 1017,4 hPa 0,0 l/m² 9,3 km/h (2 Bft) W-SW 247 ° 1 min 69 W/m² 14,1 °C 14,6 °C 12,9 km/h (3 Bft)
03.08.2025 18:19 22,2 °C 16,1 °C 59 % 88 % 1017,5 hPa 0,0 l/m² 13,3 km/h (3 Bft) SW 217 ° 1 min 67 W/m² 14,1 °C 13,1 °C 19,3 km/h (3 Bft)
03.08.2025 18:21 22,2 °C 16,1 °C 60 % 88 % 1017,4 hPa 0,0 l/m² 9,6 km/h (2 Bft) SW 234 ° 2 min 69 W/m² 14,1 °C 14,5 °C 16,1 km/h (3 Bft)
03.08.2025 18:23 22,2 °C 16,1 °C 60 % 88 % 1017,3 hPa 0,0 l/m² 14,7 km/h (3 Bft) W-SW 238 ° 2 min 69 W/m² 14,1 °C 12,6 °C 24,1 km/h (4 Bft)
03.08.2025 18:24 22,2 °C 16,0 °C 60 % 88 % 1017,4 hPa 0,0 l/m² 14,7 km/h (3 Bft) S-SW 208 ° 1 min 70 W/m² 14,0 °C 12,5 °C 20,9 km/h (4 Bft)
03.08.2025 18:25 22,2 °C 16,0 °C 60 % 88 % 1017,4 hPa 0,0 l/m² 13,0 km/h (3 Bft) S-SW 197 ° 1 min 70 W/m² 14,0 °C 13,1 °C 19,3 km/h (3 Bft)
03.08.2025 18:26 22,2 °C 16,0 °C 60 % 88 % 1017,3 hPa 0,0 l/m² 9,9 km/h (2 Bft) SW 228 ° 1 min 72 W/m² 14,0 °C 14,3 °C 12,9 km/h (3 Bft)
03.08.2025 18:27 22,2 °C 15,9 °C 60 % 88 % 1017,3 hPa 0,0 l/m² 12,2 km/h (2 Bft) W-SW 240 ° 1 min 76 W/m² 13,9 °C 13,2 °C 16,1 km/h (3 Bft)
03.08.2025 18:28 22,2 °C 15,9 °C 60 % 88 % 1017,3 hPa 0,0 l/m² 13,9 km/h (3 Bft) SW 215 ° 1 min 76 W/m² 13,9 °C 12,6 °C 22,5 km/h (4 Bft)
03.08.2025 18:29 22,2 °C 15,9 °C 60 % 88 % 1017,3 hPa 0,0 l/m² 10,6 km/h (2 Bft) S-SW 207 ° 1 min 76 W/m² 13,9 °C 13,9 °C 14,5 km/h (3 Bft)
03.08.2025 18:31 22,2 °C 15,9 °C 60 % 88 % 1017,3 hPa 0,0 l/m² 12,3 km/h (2 Bft) S-SW 200 ° 2 min 74 W/m² 13,9 °C 13,2 °C 17,7 km/h (3 Bft)
03.08.2025 18:33 22,2 °C 15,9 °C 60 % 88 % 1017,3 hPa 0,0 l/m² 8,5 km/h (2 Bft) SW 217 ° 2 min 69 W/m² 13,9 °C 14,8 °C 12,9 km/h (3 Bft)
03.08.2025 18:34 22,2 °C 15,9 °C 60 % 88 % 1017,4 hPa 0,0 l/m² 9,5 km/h (2 Bft) SW 220 ° 1 min 67 W/m² 13,9 °C 14,3 °C 11,3 km/h (2 Bft)
03.08.2025 18:35 22,2 °C 15,9 °C 60 % 88 % 1017,4 hPa 0,0 l/m² 11,6 km/h (2 Bft) S-SW 206 ° 1 min 67 W/m² 13,9 °C 13,5 °C 12,9 km/h (3 Bft)
03.08.2025 18:36 22,2 °C 15,9 °C 60 % 88 % 1017,3 hPa 0,0 l/m² 12,4 km/h (2 Bft) SW 221 ° 1 min 65 W/m² 13,9 °C 13,2 °C 14,5 km/h (3 Bft)
03.08.2025 18:37 22,2 °C 15,8 °C 60 % 88 % 1017,3 hPa 0,0 l/m² 8,4 km/h (2 Bft) SW 222 ° 1 min 63 W/m² 13,8 °C 14,7 °C 9,7 km/h (2 Bft)
03.08.2025 18:38 22,2 °C 15,8 °C 60 % 88 % 1017,3 hPa 0,0 l/m² 7,8 km/h (2 Bft) SW 230 ° 1 min 60 W/m² 13,8 °C 15,0 °C 9,7 km/h (2 Bft)
03.08.2025 18:39 22,2 °C 15,8 °C 60 % 88 % 1017,3 hPa 0,0 l/m² 11,1 km/h (2 Bft) SW 223 ° 1 min 60 W/m² 13,8 °C 13,5 °C 16,1 km/h (3 Bft)
03.08.2025 18:41 22,2 °C 15,8 °C 60 % 88 % 1017,4 hPa 0,0 l/m² 10,9 km/h (2 Bft) SW 233 ° 2 min 60 W/m² 13,8 °C 13,6 °C 17,7 km/h (3 Bft)
03.08.2025 18:43 22,2 °C 15,8 °C 60 % 88 % 1017,4 hPa 0,0 l/m² 8,1 km/h (2 Bft) W-SW 238 ° 2 min 60 W/m² 13,8 °C 14,9 °C 11,3 km/h (2 Bft)
03.08.2025 18:44 22,2 °C 15,8 °C 60 % 88 % 1017,4 hPa 0,0 l/m² 8,4 km/h (2 Bft) W-SW 239 ° 1 min 62 W/m² 13,8 °C 14,7 °C 12,9 km/h (3 Bft)
03.08.2025 18:46 22,2 °C 15,8 °C 60 % 88 % 1017,4 hPa 0,0 l/m² 12,7 km/h (3 Bft) SW 219 ° 2 min 63 W/m² 13,8 °C 12,9 °C 19,3 km/h (3 Bft)
03.08.2025 18:47 22,2 °C 15,8 °C 60 % 88 % 1017,3 hPa 0,0 l/m² 13,2 km/h (3 Bft) S-SW 207 ° 1 min 63 W/m² 13,8 °C 12,8 °C 17,7 km/h (3 Bft)
03.08.2025 18:48 22,2 °C 15,8 °C 60 % 88 % 1017,4 hPa 0,0 l/m² 9,8 km/h (2 Bft) SW 221 ° 1 min 62 W/m² 13,8 °C 14,1 °C 12,9 km/h (3 Bft)
03.08.2025 18:49 22,2 °C 15,8 °C 60 % 88 % 1017,4 hPa 0,0 l/m² 11,3 km/h (2 Bft) SW 222 ° 1 min 60 W/m² 13,8 °C 13,5 °C 16,1 km/h (3 Bft)
03.08.2025 18:51 22,2 °C 15,8 °C 60 % 88 % 1017,3 hPa 0,0 l/m² 10,8 km/h (2 Bft) S-SW 212 ° 2 min 54 W/m² 13,8 °C 13,7 °C 16,1 km/h (3 Bft)
03.08.2025 18:53 22,2 °C 15,8 °C 60 % 88 % 1017,4 hPa 0,0 l/m² 13,6 km/h (3 Bft) SW 225 ° 2 min 53 W/m² 13,8 °C 12,6 °C 19,3 km/h (3 Bft)
03.08.2025 18:54 22,2 °C 15,8 °C 60 % 88 % 1017,4 hPa 0,0 l/m² 11,9 km/h (2 Bft) S-SW 211 ° 1 min 54 W/m² 13,8 °C 13,2 °C 14,5 km/h (3 Bft)
03.08.2025 18:55 22,2 °C 15,8 °C 60 % 88 % 1017,4 hPa 0,0 l/m² 14,9 km/h (3 Bft) SW 232 ° 1 min 54 W/m² 13,8 °C 12,2 °C 17,7 km/h (3 Bft)
03.08.2025 18:56 22,2 °C 15,7 °C 61 % 88 % 1017,5 hPa 0,0 l/m² 12,3 km/h (2 Bft) SW 231 ° 1 min 56 W/m² 13,7 °C 13,0 °C 14,5 km/h (3 Bft)
03.08.2025 18:57 22,2 °C 15,8 °C 61 % 88 % 1017,4 hPa 0,0 l/m² 13,5 km/h (3 Bft) SW 221 ° 1 min 54 W/m² 13,8 °C 12,7 °C 16,1 km/h (3 Bft)
03.08.2025 18:58 22,2 °C 15,8 °C 61 % 88 % 1017,4 hPa 0,0 l/m² 11,1 km/h (2 Bft) S-SW 211 ° 0 min 51 W/m² 13,8 °C 13,5 °C 14,5 km/h (3 Bft)
03.08.2025 18:59 22,2 °C 15,8 °C 61 % 88 % 1017,5 hPa 0,0 l/m² 9,2 km/h (2 Bft) SW 232 ° 0 min 49 W/m² 13,8 °C 14,4 °C 14,5 km/h (3 Bft)
03.08.2025 19:01 22,3 °C 15,8 °C 61 % 88 % 1017,5 hPa 0,0 l/m² 11,7 km/h (2 Bft) S-SW 209 ° 0 min 42 W/m² 13,8 °C 13,3 °C 16,1 km/h (3 Bft)
03.08.2025 19:02 22,3 °C 15,8 °C 61 % 88 % 1017,5 hPa 0,0 l/m² 7,7 km/h (2 Bft) S-SW 197 ° 0 min 37 W/m² 13,8 °C 15,1 °C 9,7 km/h (2 Bft)
03.08.2025 19:03 22,3 °C 15,8 °C 61 % 88 % 1017,5 hPa 0,0 l/m² 5,0 km/h (1 Bft) SW 234 ° 0 min 37 W/m² 13,8 °C 15,8 °C 8,0 km/h (2 Bft)
03.08.2025 19:04 22,3 °C 15,8 °C 61 % 88 % 1017,5 hPa 0,0 l/m² 6,6 km/h (2 Bft) SW 217 ° 0 min 37 W/m² 13,8 °C 15,7 °C 9,7 km/h (2 Bft)
03.08.2025 19:05 22,3 °C 15,8 °C 61 % 88 % 1017,5 hPa 0,0 l/m² 9,3 km/h (2 Bft) SW 220 ° 0 min 35 W/m² 13,8 °C 14,3 °C 12,9 km/h (3 Bft)
03.08.2025 19:06 22,3 °C 15,8 °C 61 % 88 % 1017,4 hPa 0,0 l/m² 9,7 km/h (2 Bft) SW 217 ° 0 min 35 W/m² 13,8 °C 14,1 °C 12,9 km/h (3 Bft)
03.08.2025 19:08 22,3 °C 15,8 °C 61 % 88 % 1017,4 hPa 0,0 l/m² 7,1 km/h (2 Bft) SW 215 ° 0 min 47 W/m² 13,8 °C 15,4 °C 12,9 km/h (3 Bft)
03.08.2025 19:09 22,3 °C 15,8 °C 61 % 88 % 1017,4 hPa 0,0 l/m² 9,0 km/h (2 Bft) S-SW 202 ° 1 min 54 W/m² 13,8 °C 14,5 °C 12,9 km/h (3 Bft)
03.08.2025 19:11 22,3 °C 15,8 °C 61 % 88 % 1017,4 hPa 0,0 l/m² 8,3 km/h (2 Bft) S-SW 200 ° 2 min 56 W/m² 13,8 °C 14,8 °C 14,5 km/h (3 Bft)
03.08.2025 19:12 22,3 °C 15,8 °C 61 % 88 % 1017,5 hPa 0,0 l/m² 9,4 km/h (2 Bft) S-SW 207 ° 1 min 53 W/m² 13,8 °C 14,3 °C 16,1 km/h (3 Bft)
03.08.2025 19:13 22,3 °C 15,8 °C 61 % 88 % 1017,4 hPa 0,0 l/m² 9,6 km/h (2 Bft) S-SW 194 ° 0 min 46 W/m² 13,8 °C 14,2 °C 11,3 km/h (2 Bft)
03.08.2025 19:14 22,3 °C 15,8 °C 61 % 88 % 1017,4 hPa 0,0 l/m² 8,8 km/h (2 Bft) SW 218 ° 0 min 42 W/m² 13,8 °C 14,5 °C 11,3 km/h (2 Bft)
03.08.2025 19:15 22,3 °C 15,8 °C 61 % 88 % 1017,5 hPa 0,0 l/m² 7,1 km/h (2 Bft) SW 224 ° 0 min 40 W/m² 13,8 °C 15,4 °C 8,0 km/h (2 Bft)
03.08.2025 19:16 22,3 °C 15,8 °C 61 % 88 % 1017,5 hPa 0,0 l/m² 6,9 km/h (2 Bft) SW 223 ° 0 min 37 W/m² 13,8 °C 15,5 °C 9,7 km/h (2 Bft)
03.08.2025 19:17 22,3 °C 15,8 °C 61 % 88 % 1017,5 hPa 0,0 l/m² 6,5 km/h (2 Bft) S-SW 210 ° 0 min 35 W/m² 13,8 °C 15,8 °C 9,7 km/h (2 Bft)
03.08.2025 19:18 22,3 °C 15,8 °C 61 % 88 % 1017,4 hPa 0,0 l/m² 7,1 km/h (2 Bft) S-SW 211 ° 0 min 32 W/m² 13,8 °C 15,4 °C 9,7 km/h (2 Bft)
03.08.2025 19:19 22,3 °C 15,8 °C 61 % 88 % 1017,4 hPa 0,0 l/m² 8,5 km/h (2 Bft) W-SW 247 ° 0 min 30 W/m² 13,8 °C 14,7 °C 11,3 km/h (2 Bft)
03.08.2025 19:21 22,3 °C 15,8 °C 61 % 88 % 1017,5 hPa 0,0 l/m² 8,1 km/h (2 Bft) SW 219 ° 0 min 26 W/m² 13,8 °C 14,9 °C 12,9 km/h (3 Bft)
03.08.2025 19:23 22,3 °C 15,8 °C 61 % 88 % 1017,5 hPa 0,0 l/m² 6,9 km/h (2 Bft) S 190 ° 0 min 32 W/m² 13,8 °C 15,5 °C 11,3 km/h (2 Bft)
03.08.2025 19:24 22,3 °C 15,8 °C 61 % 88 % 1017,5 hPa 0,0 l/m² 10,3 km/h (2 Bft) SW 223 ° 0 min 37 W/m² 13,8 °C 13,9 °C 16,1 km/h (3 Bft)
03.08.2025 19:25 22,3 °C 15,8 °C 61 % 88 % 1017,4 hPa 0,0 l/m² 8,5 km/h (2 Bft) SW 232 ° 0 min 42 W/m² 13,8 °C 14,7 °C 9,7 km/h (2 Bft)
03.08.2025 19:26 22,3 °C 15,8 °C 61 % 88 % 1017,5 hPa 0,0 l/m² 10,6 km/h (2 Bft) SW 223 ° 0 min 46 W/m² 13,8 °C 13,7 °C 14,5 km/h (3 Bft)
03.08.2025 19:27 22,3 °C 15,8 °C 61 % 88 % 1017,5 hPa 0,0 l/m² 7,6 km/h (2 Bft) S-SW 213 ° 0 min 46 W/m² 13,8 °C 15,1 °C 11,3 km/h (2 Bft)
03.08.2025 19:28 22,3 °C 15,8 °C 61 % 88 % 1017,5 hPa 0,0 l/m² 6,2 km/h (2 Bft) SW 220 ° 0 min 42 W/m² 13,8 °C 15,8 °C 8,0 km/h (2 Bft)
03.08.2025 19:29 22,3 °C 15,8 °C 61 % 88 % 1017,5 hPa 0,0 l/m² 7,7 km/h (2 Bft) S 184 ° 0 min 37 W/m² 13,8 °C 15,1 °C 11,3 km/h (2 Bft)
03.08.2025 19:31 22,3 °C 15,8 °C 61 % 88 % 1017,4 hPa 0,0 l/m² 8,4 km/h (2 Bft) SW 221 ° 0 min 39 W/m² 13,8 °C 14,7 °C 12,9 km/h (3 Bft)
03.08.2025 19:33 22,3 °C 15,8 °C 61 % 88 % 1017,5 hPa 0,0 l/m² 4,9 km/h (1 Bft) S-SW 204 ° 0 min 42 W/m² 13,8 °C 15,8 °C 9,7 km/h (2 Bft)
03.08.2025 19:34 22,3 °C 15,8 °C 61 % 88 % 1017,4 hPa 0,0 l/m² 3,6 km/h (1 Bft) S-SW 201 ° 0 min 42 W/m² 13,8 °C 15,8 °C 6,4 km/h (2 Bft)
03.08.2025 19:35 22,3 °C 15,8 °C 61 % 88 % 1017,4 hPa 0,0 l/m² 1,4 km/h (1 Bft) S-SW 201 ° 0 min 42 W/m² 13,8 °C 15,8 °C 3,2 km/h (1 Bft)
03.08.2025 19:37 22,3 °C 15,8 °C 61 % 87 % 1017,4 hPa 0,0 l/m² 9,7 km/h (2 Bft) SW 217 ° 0 min 44 W/m² 13,6 °C 14,1 °C 14,5 km/h (3 Bft)
03.08.2025 19:38 22,3 °C 15,8 °C 61 % 87 % 1017,4 hPa 0,0 l/m² 10,5 km/h (2 Bft) SW 217 ° 0 min 46 W/m² 13,6 °C 13,8 °C 14,5 km/h (3 Bft)
03.08.2025 19:39 22,3 °C 15,8 °C 61 % 87 % 1017,3 hPa 0,0 l/m² 12,0 km/h (2 Bft) S-SW 199 ° 0 min 49 W/m² 13,6 °C 13,2 °C 14,5 km/h (3 Bft)
03.08.2025 19:41 22,3 °C 15,8 °C 62 % 87 % 1017,4 hPa 0,0 l/m² 5,6 km/h (2 Bft) S-SW 204 ° 2 min 53 W/m² 13,6 °C 15,8 °C 9,7 km/h (2 Bft)
03.08.2025 19:43 22,3 °C 15,8 °C 62 % 87 % 1017,4 hPa 0,0 l/m² 6,8 km/h (2 Bft) S-SW 202 ° 0 min 51 W/m² 13,6 °C 15,6 °C 11,3 km/h (2 Bft)
03.08.2025 19:44 22,3 °C 15,8 °C 62 % 87 % 1017,4 hPa 0,0 l/m² 8,6 km/h (2 Bft) W-SW 248 ° 0 min 49 W/m² 13,6 °C 14,6 °C 12,9 km/h (3 Bft)
03.08.2025 19:45 22,3 °C 15,8 °C 62 % 87 % 1017,4 hPa 0,0 l/m² 6,1 km/h (2 Bft) S-SW 213 ° 0 min 47 W/m² 13,6 °C 15,8 °C 9,7 km/h (2 Bft)
03.08.2025 19:46 22,3 °C 15,8 °C 62 % 87 % 1017,3 hPa 0,0 l/m² 8,0 km/h (2 Bft) SW 226 ° 0 min 46 W/m² 13,6 °C 14,9 °C 11,3 km/h (2 Bft)
03.08.2025 19:47 22,3 °C 15,8 °C 62 % 87 % 1017,4 hPa 0,0 l/m² 5,5 km/h (2 Bft) SW 229 ° 0 min 44 W/m² 13,6 °C 15,8 °C 8,0 km/h (2 Bft)
03.08.2025 19:48 22,3 °C 15,8 °C 62 % 87 % 1017,4 hPa 0,0 l/m² 5,7 km/h (2 Bft) S-SW 209 ° 0 min 42 W/m² 13,6 °C 15,8 °C 11,3 km/h (2 Bft)
03.08.2025 19:49 22,3 °C 15,8 °C 62 % 87 % 1017,3 hPa 0,0 l/m² 7,1 km/h (2 Bft) S 182 ° 0 min 40 W/m² 13,6 °C 15,4 °C 11,3 km/h (2 Bft)
03.08.2025 19:51 22,3 °C 15,8 °C 62 % 87 % 1017,4 hPa 0,0 l/m² 5,8 km/h (2 Bft) S-SW 213 ° 0 min 39 W/m² 13,6 °C 15,8 °C 8,0 km/h (2 Bft)
03.08.2025 19:53 22,3 °C 15,8 °C 62 % 87 % 1017,4 hPa 0,0 l/m² 5,5 km/h (2 Bft) S-SW 196 ° 0 min 39 W/m² 13,6 °C 15,8 °C 8,0 km/h (2 Bft)
03.08.2025 19:54 22,3 °C 15,8 °C 63 % 87 % 1017,3 hPa 0,0 l/m² 7,5 km/h (2 Bft) S-SW 200 ° 0 min 37 W/m² 13,6 °C 15,2 °C 11,3 km/h (2 Bft)
03.08.2025 19:55 22,3 °C 15,8 °C 63 % 87 % 1017,4 hPa 0,0 l/m² 4,4 km/h (1 Bft) S-SW 209 ° 0 min 35 W/m² 13,6 °C 15,8 °C 8,0 km/h (2 Bft)
03.08.2025 19:56 22,3 °C 15,8 °C 63 % 87 % 1017,4 hPa 0,0 l/m² 1,0 km/h (0 Bft) S-SW 209 ° 0 min 33 W/m² 13,6 °C 15,8 °C 3,2 km/h (1 Bft)
03.08.2025 19:57 22,4 °C 15,8 °C 63 % 87 % 1017,4 hPa 0,0 l/m² 7,2 km/h (2 Bft) S-SW 194 ° 0 min 30 W/m² 13,6 °C 15,4 °C 9,7 km/h (2 Bft)
03.08.2025 19:58 22,4 °C 15,8 °C 63 % 87 % 1017,4 hPa 0,0 l/m² 7,2 km/h (2 Bft) S 173 ° 0 min 28 W/m² 13,6 °C 15,4 °C 9,7 km/h (2 Bft)
03.08.2025 19:59 22,4 °C 15,8 °C 63 % 87 % 1017,4 hPa 0,0 l/m² 8,9 km/h (2 Bft) S 186 ° 0 min 26 W/m² 13,6 °C 14,5 °C 12,9 km/h (3 Bft)
03.08.2025 20:01 22,3 °C 15,8 °C 63 % 87 % 1017,4 hPa 0,0 l/m² 8,8 km/h (2 Bft) S 175 ° 0 min 21 W/m² 13,6 °C 14,5 °C 11,3 km/h (2 Bft)
03.08.2025 20:03 22,4 °C 15,8 °C 63 % 87 % 1017,4 hPa 0,0 l/m² 3,8 km/h (1 Bft) S 176 ° 0 min 19 W/m² 13,6 °C 15,8 °C 9,7 km/h (2 Bft)
03.08.2025 20:04 22,3 °C 15,8 °C 63 % 87 % 1017,4 hPa 0,0 l/m² 2,2 km/h (1 Bft) S 176 ° 0 min 18 W/m² 13,6 °C 15,8 °C 3,2 km/h (1 Bft)
03.08.2025 20:05 22,4 °C 15,8 °C 63 % 87 % 1017,5 hPa 0,0 l/m² 1,9 km/h (1 Bft) S 176 ° 0 min 16 W/m² 13,6 °C 15,8 °C 4,8 km/h (1 Bft)
03.08.2025 20:06 22,4 °C 15,8 °C 63 % 87 % 1017,5 hPa 0,0 l/m² 6,2 km/h (2 Bft) S 187 ° 0 min 16 W/m² 13,6 °C 15,8 °C 12,9 km/h (3 Bft)
03.08.2025 20:07 22,4 °C 15,8 °C 63 % 87 % 1017,5 hPa 0,0 l/m² 7,1 km/h (2 Bft) SW 225 ° 0 min 16 W/m² 13,6 °C 15,4 °C 9,7 km/h (2 Bft)
03.08.2025 20:08 22,4 °C 15,8 °C 63 % 87 % 1017,5 hPa 0,0 l/m² 6,1 km/h (2 Bft) S-SW 194 ° 0 min 16 W/m² 13,6 °C 15,8 °C 8,0 km/h (2 Bft)
03.08.2025 20:09 22,4 °C 15,8 °C 63 % 87 % 1017,5 hPa 0,0 l/m² 4,6 km/h (1 Bft) S-SW 200 ° 0 min 14 W/m² 13,6 °C 15,8 °C 6,4 km/h (2 Bft)
03.08.2025 20:11 22,4 °C 15,8 °C 63 % 87 % 1017,4 hPa 0,0 l/m² 6,0 km/h (2 Bft) S-SW 193 ° 0 min 16 W/m² 13,6 °C 15,8 °C 8,0 km/h (2 Bft)
03.08.2025 20:13 22,4 °C 15,8 °C 63 % 86 % 1017,4 hPa 0,0 l/m² 8,0 km/h (2 Bft) SW 227 ° 0 min 19 W/m² 13,5 °C 14,9 °C 14,5 km/h (3 Bft)
03.08.2025 20:14 22,4 °C 15,8 °C 63 % 86 % 1017,5 hPa 0,0 l/m² 8,0 km/h (2 Bft) S 188 ° 0 min 19 W/m² 13,5 °C 14,9 °C 11,3 km/h (2 Bft)
03.08.2025 20:15 22,4 °C 15,8 °C 63 % 86 % 1017,5 hPa 0,0 l/m² 6,2 km/h (2 Bft) S-SW 194 ° 0 min 19 W/m² 13,5 °C 15,8 °C 8,0 km/h (2 Bft)
03.08.2025 20:16 22,4 °C 15,8 °C 63 % 86 % 1017,4 hPa 0,0 l/m² 3,9 km/h (1 Bft) S-SW 195 ° 0 min 18 W/m² 13,5 °C 15,8 °C 6,4 km/h (2 Bft)
03.08.2025 20:17 22,4 °C 15,8 °C 63 % 86 % 1017,5 hPa 0,0 l/m² 3,8 km/h (1 Bft) S-SW 195 ° 0 min 16 W/m² 13,5 °C 15,8 °C 4,8 km/h (1 Bft)
03.08.2025 20:18 22,4 °C 15,8 °C 63 % 86 % 1017,5 hPa 0,0 l/m² 3,6 km/h (1 Bft) S-SW 195 ° 0 min 12 W/m² 13,5 °C 15,8 °C 4,8 km/h (1 Bft)
03.08.2025 20:19 22,4 °C 15,8 °C 63 % 86 % 1017,4 hPa 0,0 l/m² 4,5 km/h (1 Bft) S-SW 194 ° 0 min 11 W/m² 13,5 °C 15,8 °C 6,4 km/h (2 Bft)
03.08.2025 20:20 22,4 °C 15,8 °C 63 % 86 % 1017,5 hPa 0,0 l/m² 2,1 km/h (1 Bft) S-SW 194 ° 0 min 9 W/m² 13,5 °C 15,8 °C 4,8 km/h (1 Bft)
03.08.2025 20:22 22,4 °C 15,8 °C 63 % 86 % 1017,4 hPa 0,0 l/m² 4,2 km/h (1 Bft) S 184 ° 0 min 7 W/m² 13,5 °C 15,8 °C 6,4 km/h (2 Bft)
03.08.2025 20:24 22,4 °C 15,8 °C 63 % 86 % 1017,5 hPa 0,0 l/m² 2,3 km/h (1 Bft) S 184 ° 0 min 5 W/m² 13,5 °C 15,8 °C 4,8 km/h (1 Bft)
03.08.2025 20:25 22,4 °C 15,8 °C 63 % 86 % 1017,5 hPa 0,0 l/m² 0,6 km/h (0 Bft) S 184 ° 0 min 5 W/m² 13,5 °C 15,8 °C 1,6 km/h (1 Bft)
03.08.2025 20:26 22,4 °C 15,8 °C 63 % 86 % 1017,5 hPa 0,0 l/m² 2,5 km/h (1 Bft) S 183 ° 0 min 0 W/m² 13,5 °C 15,8 °C 4,8 km/h (1 Bft)
03.08.2025 20:27 22,4 °C 15,8 °C 62 % 86 % 1017,4 hPa 0,0 l/m² 1,8 km/h (1 Bft) S 184 ° 0 min 0 W/m² 13,5 °C 15,8 °C 4,8 km/h (1 Bft)
03.08.2025 20:28 22,4 °C 15,8 °C 62 % 86 % 1017,5 hPa 0,0 l/m² 2,0 km/h (1 Bft) S 183 ° 0 min 0 W/m² 13,5 °C 15,8 °C 3,2 km/h (1 Bft)
03.08.2025 20:29 22,4 °C 15,8 °C 62 % 86 % 1017,5 hPa 0,0 l/m² 2,9 km/h (1 Bft) S 183 ° 0 min 0 W/m² 13,5 °C 15,8 °C 3,2 km/h (1 Bft)
03.08.2025 20:31 22,4 °C 15,8 °C 62 % 86 % 1017,5 hPa 0,0 l/m² 2,3 km/h (1 Bft) S 183 ° 0 min 0 W/m² 13,5 °C 15,8 °C 4,8 km/h (1 Bft)
03.08.2025 20:33 22,4 °C 15,8 °C 62 % 86 % 1017,4 hPa 0,0 l/m² 3,0 km/h (1 Bft) S 183 ° 0 min 0 W/m² 13,5 °C 15,8 °C 4,8 km/h (1 Bft)
03.08.2025 20:34 22,3 °C 15,8 °C 62 % 86 % 1017,5 hPa 0,0 l/m² 4,0 km/h (1 Bft) S 182 ° 0 min 0 W/m² 13,5 °C 15,8 °C 6,4 km/h (2 Bft)
03.08.2025 20:35 22,4 °C 15,8 °C 62 % 86 % 1017,5 hPa 0,0 l/m² 4,8 km/h (1 Bft) S 181 ° 0 min 0 W/m² 13,5 °C 15,8 °C 6,4 km/h (2 Bft)
03.08.2025 20:36 22,4 °C 15,8 °C 62 % 86 % 1017,5 hPa 0,0 l/m² 2,7 km/h (1 Bft) S 181 ° 0 min 0 W/m² 13,5 °C 15,8 °C 3,2 km/h (1 Bft)
03.08.2025 20:37 22,4 °C 15,8 °C 62 % 86 % 1017,4 hPa 0,0 l/m² 2,0 km/h (1 Bft) S 181 ° 0 min 0 W/m² 13,5 °C 15,8 °C 3,2 km/h (1 Bft)
03.08.2025 20:38 22,3 °C 15,8 °C 62 % 86 % 1017,4 hPa 0,0 l/m² 4,6 km/h (1 Bft) S-SO 167 ° 0 min 0 W/m² 13,5 °C 15,8 °C 8,0 km/h (2 Bft)
03.08.2025 20:39 22,3 °C 15,8 °C 62 % 86 % 1017,5 hPa 0,0 l/m² 5,2 km/h (1 Bft) S-SO 167 ° 0 min 0 W/m² 13,5 °C 15,8 °C 6,4 km/h (2 Bft)
03.08.2025 20:40 22,4 °C 15,8 °C 62 % 86 % 1017,5 hPa 0,0 l/m² 4,5 km/h (1 Bft) S-SO 167 ° 0 min 0 W/m² 13,5 °C 15,8 °C 6,4 km/h (2 Bft)
03.08.2025 20:42 22,3 °C 15,8 °C 62 % 86 % 1017,5 hPa 0,0 l/m² 5,2 km/h (1 Bft) S-SO 153 ° 0 min 0 W/m² 13,5 °C 15,8 °C 8,0 km/h (2 Bft)
03.08.2025 20:43 22,4 °C 15,8 °C 62 % 86 % 1017,4 hPa 0,0 l/m² 5,6 km/h (2 Bft) S-SO 153 ° 0 min 0 W/m² 13,5 °C 15,8 °C 8,0 km/h (2 Bft)
03.08.2025 20:44 22,4 °C 15,8 °C 62 % 86 % 1017,4 hPa 0,0 l/m² 4,4 km/h (1 Bft) S-SO 153 ° 0 min 0 W/m² 13,5 °C 15,8 °C 4,8 km/h (1 Bft)
03.08.2025 20:45 22,3 °C 15,8 °C 62 % 86 % 1017,4 hPa 0,0 l/m² 3,8 km/h (1 Bft) S-SO 148 ° 0 min 0 W/m² 13,5 °C 15,8 °C 6,4 km/h (2 Bft)
03.08.2025 20:46 22,3 °C 15,8 °C 61 % 86 % 1017,4 hPa 0,0 l/m² 4,3 km/h (1 Bft) SO 144 ° 0 min 0 W/m² 13,5 °C 15,8 °C 6,4 km/h (2 Bft)
03.08.2025 20:47 22,3 °C 15,8 °C 61 % 86 % 1017,4 hPa 0,0 l/m² 2,7 km/h (1 Bft) SO 144 ° 0 min 0 W/m² 13,5 °C 15,8 °C 3,2 km/h (1 Bft)
03.08.2025 20:48 22,3 °C 15,8 °C 61 % 86 % 1017,4 hPa 0,0 l/m² 5,0 km/h (1 Bft) SO 144 ° 0 min 0 W/m² 13,5 °C 15,8 °C 8,0 km/h (2 Bft)
03.08.2025 20:49 22,3 °C 15,8 °C 61 % 86 % 1017,4 hPa 0,0 l/m² 2,8 km/h (1 Bft) SO 142 ° 0 min 0 W/m² 13,5 °C 15,8 °C 4,8 km/h (1 Bft)
03.08.2025 20:50 22,3 °C 15,8 °C 61 % 86 % 1017,4 hPa 0,0 l/m² 3,0 km/h (1 Bft) SO 142 ° 0 min 0 W/m² 13,5 °C 15,8 °C 4,8 km/h (1 Bft)
03.08.2025 20:52 22,3 °C 15,7 °C 61 % 86 % 1017,4 hPa 0,0 l/m² 2,2 km/h (1 Bft) SO 142 ° 0 min 0 W/m² 13,4 °C 15,7 °C 4,8 km/h (1 Bft)
03.08.2025 20:54 22,3 °C 15,7 °C 61 % 86 % 1017,4 hPa 0,0 l/m² 2,0 km/h (1 Bft) SO 144 ° 0 min 0 W/m² 13,4 °C 15,7 °C 4,8 km/h (1 Bft)
03.08.2025 20:55 22,3 °C 15,7 °C 61 % 87 % 1017,4 hPa 0,0 l/m² 1,4 km/h (1 Bft) SO 144 ° 0 min 0 W/m² 13,5 °C 15,7 °C 3,2 km/h (1 Bft)
03.08.2025 20:56 22,3 °C 15,7 °C 61 % 87 % 1017,4 hPa 0,0 l/m² 1,0 km/h (0 Bft) SO 144 ° 0 min 0 W/m² 13,5 °C 15,7 °C 1,6 km/h (1 Bft)
03.08.2025 20:57 22,3 °C 15,7 °C 61 % 86 % 1017,3 hPa 0,0 l/m² 2,2 km/h (1 Bft) SO 143 ° 0 min 0 W/m² 13,4 °C 15,7 °C 4,8 km/h (1 Bft)
03.08.2025 20:58 22,3 °C 15,7 °C 61 % 86 % 1017,4 hPa 0,0 l/m² 2,6 km/h (1 Bft) SO 143 ° 0 min 0 W/m² 13,4 °C 15,7 °C 3,2 km/h (1 Bft)
03.08.2025 20:59 22,3 °C 15,7 °C 61 % 86 % 1017,4 hPa 0,0 l/m² 2,5 km/h (1 Bft) SO 143 ° 0 min 0 W/m² 13,4 °C 15,7 °C 3,2 km/h (1 Bft)
03.08.2025 21:01 22,3 °C 15,7 °C 61 % 86 % 1017,4 hPa 0,0 l/m² 1,6 km/h (1 Bft) SW 219 ° 0 min 0 W/m² 13,4 °C 15,7 °C 6,4 km/h (2 Bft)
03.08.2025 21:02 22,3 °C 15,7 °C 61 % 86 % 1017,4 hPa 0,0 l/m² 2,1 km/h (1 Bft) SW 214 ° 0 min 0 W/m² 13,4 °C 15,7 °C 3,2 km/h (1 Bft)
03.08.2025 21:03 22,3 °C 15,7 °C 61 % 86 % 1017,4 hPa 0,0 l/m² 3,5 km/h (1 Bft) S 176 ° 0 min 0 W/m² 13,4 °C 15,7 °C 4,8 km/h (1 Bft)
03.08.2025 21:04 22,3 °C 15,7 °C 61 % 86 % 1017,4 hPa 0,0 l/m² 3,2 km/h (1 Bft) S 176 ° 0 min 0 W/m² 13,4 °C 15,7 °C 4,8 km/h (1 Bft)
03.08.2025 21:05 22,3 °C 15,7 °C 61 % 86 % 1017,4 hPa 0,0 l/m² 2,9 km/h (1 Bft) S 176 ° 0 min 0 W/m² 13,4 °C 15,7 °C 3,2 km/h (1 Bft)
03.08.2025 21:06 22,3 °C 15,7 °C 61 % 87 % 1017,4 hPa 0,0 l/m² 3,3 km/h (1 Bft) S 175 ° 0 min 0 W/m² 13,5 °C 15,7 °C 4,8 km/h (1 Bft)
03.08.2025 21:07 22,3 °C 15,7 °C 61 % 87 % 1017,4 hPa 0,0 l/m² 4,7 km/h (1 Bft) S 171 ° 0 min 0 W/m² 13,5 °C 15,7 °C 6,4 km/h (2 Bft)
03.08.2025 21:08 22,3 °C 15,7 °C 61 % 87 % 1017,5 hPa 0,0 l/m² 2,1 km/h (1 Bft) S 171 ° 0 min 0 W/m² 13,5 °C 15,7 °C 3,2 km/h (1 Bft)
03.08.2025 21:09 22,3 °C 15,7 °C 61 % 87 % 1017,4 hPa 0,0 l/m² 2,5 km/h (1 Bft) S 171 ° 0 min 0 W/m² 13,5 °C 15,7 °C 3,2 km/h (1 Bft)
03.08.2025 21:10 22,3 °C 15,7 °C 61 % 87 % 1017,5 hPa 0,0 l/m² 3,0 km/h (1 Bft) S 171 ° 0 min 0 W/m² 13,5 °C 15,7 °C 6,4 km/h (2 Bft)
03.08.2025 21:11 22,3 °C 15,7 °C 61 % 87 % 1017,4 hPa 0,0 l/m² 2,4 km/h (1 Bft) S 171 ° 0 min 0 W/m² 13,5 °C 15,7 °C 3,2 km/h (1 Bft)
03.08.2025 21:12 22,3 °C 15,7 °C 61 % 87 % 1017,5 hPa 0,0 l/m² 2,3 km/h (1 Bft) S 171 ° 0 min 0 W/m² 13,5 °C 15,7 °C 3,2 km/h (1 Bft)
03.08.2025 21:13 22,3 °C 15,7 °C 61 % 87 % 1017,5 hPa 0,0 l/m² 3,1 km/h (1 Bft) S 171 ° 0 min 0 W/m² 13,5 °C 15,7 °C 6,4 km/h (2 Bft)
03.08.2025 21:14 22,3 °C 15,7 °C 61 % 87 % 1017,5 hPa 0,0 l/m² 3,0 km/h (1 Bft) S 170 ° 0 min 0 W/m² 13,5 °C 15,7 °C 3,2 km/h (1 Bft)
03.08.2025 21:15 22,3 °C 15,7 °C 61 % 87 % 1017,5 hPa 0,0 l/m² 5,1 km/h (1 Bft) S-SO 168 ° 0 min 0 W/m² 13,5 °C 15,7 °C 8,0 km/h (2 Bft)
03.08.2025 21:16 22,3 °C 15,6 °C 61 % 87 % 1017,4 hPa 0,0 l/m² 4,5 km/h (1 Bft) S-SO 166 ° 0 min 0 W/m² 13,4 °C 15,6 °C 6,4 km/h (2 Bft)
03.08.2025 21:17 22,3 °C 15,7 °C 61 % 87 % 1017,5 hPa 0,0 l/m² 4,9 km/h (1 Bft) S-SO 166 ° 0 min 0 W/m² 13,5 °C 15,7 °C 8,0 km/h (2 Bft)
03.08.2025 21:18 22,3 °C 15,7 °C 61 % 87 % 1017,5 hPa 0,0 l/m² 5,2 km/h (1 Bft) S-SO 161 ° 0 min 0 W/m² 13,5 °C 15,7 °C 8,0 km/h (2 Bft)
03.08.2025 21:19 22,3 °C 15,6 °C 61 % 87 % 1017,5 hPa 0,0 l/m² 4,0 km/h (1 Bft) S-SO 161 ° 0 min 0 W/m² 13,4 °C 15,6 °C 8,0 km/h (2 Bft)
03.08.2025 21:20 22,3 °C 15,6 °C 61 % 87 % 1017,5 hPa 0,0 l/m² 4,6 km/h (1 Bft) S-SO 161 ° 0 min 0 W/m² 13,4 °C 15,6 °C 6,4 km/h (2 Bft)
03.08.2025 21:21 22,3 °C 15,6 °C 61 % 87 % 1017,5 hPa 0,0 l/m² 5,0 km/h (1 Bft) S-SO 161 ° 0 min 0 W/m² 13,4 °C 15,6 °C 6,4 km/h (2 Bft)
03.08.2025 21:22 22,3 °C 15,6 °C 61 % 87 % 1017,5 hPa 0,0 l/m² 3,6 km/h (1 Bft) S-SO 161 ° 0 min 0 W/m² 13,4 °C 15,6 °C 6,4 km/h (2 Bft)
03.08.2025 21:23 22,3 °C 15,6 °C 62 % 87 % 1017,5 hPa 0,0 l/m² 2,2 km/h (1 Bft) S-SO 161 ° 0 min 0 W/m² 13,4 °C 15,6 °C 3,2 km/h (1 Bft)
03.08.2025 21:24 22,3 °C 15,6 °C 62 % 87 % 1017,5 hPa 0,0 l/m² 2,3 km/h (1 Bft) S-SO 161 ° 0 min 0 W/m² 13,4 °C 15,6 °C 3,2 km/h (1 Bft)
03.08.2025 21:25 22,3 °C 15,6 °C 62 % 87 % 1017,5 hPa 0,0 l/m² 2,9 km/h (1 Bft) S-SO 161 ° 0 min 0 W/m² 13,4 °C 15,6 °C 6,4 km/h (2 Bft)
03.08.2025 21:26 22,3 °C 15,6 °C 61 % 87 % 1017,5 hPa 0,0 l/m² 3,9 km/h (1 Bft) S 170 ° 0 min 0 W/m² 13,4 °C 15,6 °C 8,0 km/h (2 Bft)
03.08.2025 21:27 22,3 °C 15,6 °C 61 % 87 % 1017,5 hPa 0,0 l/m² 5,2 km/h (1 Bft) S-SO 161 ° 0 min 0 W/m² 13,4 °C 15,6 °C 8,0 km/h (2 Bft)
03.08.2025 21:28 22,3 °C 15,6 °C 62 % 87 % 1017,5 hPa 0,0 l/m² 5,0 km/h (1 Bft) S-SO 147 ° 0 min 0 W/m² 13,4 °C 15,6 °C 6,4 km/h (2 Bft)
03.08.2025 21:29 22,3 °C 15,6 °C 62 % 87 % 1017,5 hPa 0,0 l/m² 3,8 km/h (1 Bft) SO 145 ° 0 min 0 W/m² 13,4 °C 15,6 °C 6,4 km/h (2 Bft)
03.08.2025 21:30 22,3 °C 15,6 °C 62 % 87 % 1017,5 hPa 0,0 l/m² 4,8 km/h (1 Bft) S-SW 200 ° 0 min 0 W/m² 13,4 °C 15,6 °C 6,4 km/h (2 Bft)
03.08.2025 21:31 22,3 °C 15,6 °C 62 % 87 % 1017,6 hPa 0,0 l/m² 2,7 km/h (1 Bft) S-SW 200 ° 0 min 0 W/m² 13,4 °C 15,6 °C 4,8 km/h (1 Bft)
03.08.2025 21:32 22,3 °C 15,5 °C 62 % 87 % 1017,6 hPa 0,0 l/m² 3,1 km/h (1 Bft) S-SW 200 ° 0 min 0 W/m² 13,3 °C 15,5 °C 4,8 km/h (1 Bft)
03.08.2025 21:33 22,3 °C 15,5 °C 62 % 87 % 1017,6 hPa 0,0 l/m² 3,9 km/h (1 Bft) S-SW 196 ° 0 min 0 W/m² 13,3 °C 15,5 °C 4,8 km/h (1 Bft)
03.08.2025 21:34 22,3 °C 15,5 °C 62 % 87 % 1017,5 hPa 0,0 l/m² 5,6 km/h (2 Bft) S-SO 160 ° 0 min 0 W/m² 13,3 °C 15,5 °C 8,0 km/h (2 Bft)
03.08.2025 21:35 22,3 °C 15,5 °C 62 % 87 % 1017,5 hPa 0,0 l/m² 6,0 km/h (2 Bft) S-SO 151 ° 0 min 0 W/m² 13,3 °C 15,5 °C 8,0 km/h (2 Bft)
03.08.2025 21:36 22,3 °C 15,5 °C 62 % 87 % 1017,5 hPa 0,0 l/m² 5,3 km/h (1 Bft) SO 143 ° 0 min 0 W/m² 13,3 °C 15,5 °C 6,4 km/h (2 Bft)
03.08.2025 21:37 22,3 °C 15,5 °C 62 % 87 % 1017,5 hPa 0,0 l/m² 5,5 km/h (2 Bft) SO 143 ° 0 min 0 W/m² 13,3 °C 15,5 °C 8,0 km/h (2 Bft)
03.08.2025 21:38 22,3 °C 15,4 °C 62 % 87 % 1017,5 hPa 0,0 l/m² 5,2 km/h (1 Bft) SO 143 ° 0 min 0 W/m² 13,2 °C 15,4 °C 8,0 km/h (2 Bft)
03.08.2025 21:39 22,3 °C 15,5 °C 62 % 87 % 1017,5 hPa 0,0 l/m² 2,5 km/h (1 Bft) SO 144 ° 0 min 0 W/m² 13,3 °C 15,5 °C 4,8 km/h (1 Bft)
03.08.2025 21:40 22,3 °C 15,4 °C 62 % 87 % 1017,5 hPa 0,0 l/m² 1,5 km/h (1 Bft) SO 144 ° 0 min 0 W/m² 13,2 °C 15,4 °C 4,8 km/h (1 Bft)
03.08.2025 21:41 22,3 °C 15,4 °C 62 % 87 % 1017,5 hPa 0,0 l/m² 3,3 km/h (1 Bft) SO 146 ° 0 min 0 W/m² 13,2 °C 15,4 °C 4,8 km/h (1 Bft)
03.08.2025 21:42 22,3 °C 15,4 °C 62 % 87 % 1017,5 hPa 0,0 l/m² 4,6 km/h (1 Bft) SO 146 ° 0 min 0 W/m² 13,2 °C 15,4 °C 6,4 km/h (2 Bft)
03.08.2025 21:43 22,3 °C 15,4 °C 62 % 87 % 1017,5 hPa 0,0 l/m² 4,4 km/h (1 Bft) S-SO 147 ° 0 min 0 W/m² 13,2 °C 15,4 °C 4,8 km/h (1 Bft)
03.08.2025 21:44 22,3 °C 15,4 °C 62 % 87 % 1017,6 hPa 0,0 l/m² 5,9 km/h (2 Bft) S-SO 159 ° 0 min 0 W/m² 13,2 °C 15,4 °C 8,0 km/h (2 Bft)
03.08.2025 21:45 22,4 °C 15,4 °C 62 % 87 % 1017,5 hPa 0,0 l/m² 4,8 km/h (1 Bft) S-SO 155 ° 0 min 0 W/m² 13,2 °C 15,4 °C 8,0 km/h (2 Bft)
03.08.2025 21:46 22,4 °C 15,4 °C 62 % 87 % 1017,5 hPa 0,0 l/m² 4,2 km/h (1 Bft) S-SO 157 ° 0 min 0 W/m² 13,2 °C 15,4 °C 8,0 km/h (2 Bft)
03.08.2025 21:47 22,3 °C 15,4 °C 62 % 87 % 1017,5 hPa 0,0 l/m² 3,0 km/h (1 Bft) S-SO 157 ° 0 min 0 W/m² 13,2 °C 15,4 °C 4,8 km/h (1 Bft)
03.08.2025 21:48 22,3 °C 15,4 °C 62 % 87 % 1017,5 hPa 0,0 l/m² 5,8 km/h (2 Bft) S 171 ° 0 min 0 W/m² 13,2 °C 15,4 °C 8,0 km/h (2 Bft)
03.08.2025 21:49 22,3 °C 15,4 °C 62 % 87 % 1017,5 hPa 0,0 l/m² 6,6 km/h (2 Bft) S-SO 161 ° 0 min 0 W/m² 13,2 °C 15,3 °C 11,3 km/h (2 Bft)
03.08.2025 21:50 22,4 °C 15,4 °C 62 % 87 % 1017,5 hPa 0,0 l/m² 6,5 km/h (2 Bft) S-SO 155 ° 0 min 0 W/m² 13,2 °C 15,4 °C 9,7 km/h (2 Bft)
03.08.2025 21:51 22,3 °C 15,4 °C 62 % 87 % 1017,4 hPa 0,0 l/m² 4,2 km/h (1 Bft) SO 145 ° 0 min 0 W/m² 13,2 °C 15,4 °C 6,4 km/h (2 Bft)
03.08.2025 21:52 22,3 °C 15,4 °C 62 % 87 % 1017,4 hPa 0,0 l/m² 5,0 km/h (1 Bft) S-SO 155 ° 0 min 0 W/m² 13,2 °C 15,4 °C 6,4 km/h (2 Bft)
03.08.2025 21:53 22,3 °C 15,4 °C 62 % 87 % 1017,5 hPa 0,0 l/m² 5,8 km/h (2 Bft) S-SO 156 ° 0 min 0 W/m² 13,2 °C 15,4 °C 9,7 km/h (2 Bft)
03.08.2025 21:54 22,3 °C 15,4 °C 62 % 87 % 1017,5 hPa 0,0 l/m² 4,2 km/h (1 Bft) S-SO 157 ° 0 min 0 W/m² 13,2 °C 15,4 °C 8,0 km/h (2 Bft)
03.08.2025 21:55 22,3 °C 15,4 °C 62 % 87 % 1017,4 hPa 0,0 l/m² 4,6 km/h (1 Bft) S-SO 156 ° 0 min 0 W/m² 13,2 °C 15,4 °C 8,0 km/h (2 Bft)
03.08.2025 21:56 22,3 °C 15,4 °C 62 % 87 % 1017,5 hPa 0,0 l/m² 4,5 km/h (1 Bft) S-SO 151 ° 0 min 0 W/m² 13,2 °C 15,4 °C 6,4 km/h (2 Bft)
03.08.2025 21:57 22,3 °C 15,4 °C 62 % 87 % 1017,4 hPa 0,0 l/m² 5,7 km/h (2 Bft) S 170 ° 0 min 0 W/m² 13,2 °C 15,4 °C 9,7 km/h (2 Bft)
03.08.2025 21:58 22,3 °C 15,4 °C 62 % 87 % 1017,5 hPa 0,0 l/m² 4,4 km/h (1 Bft) S-SO 166 ° 0 min 0 W/m² 13,2 °C 15,4 °C 8,0 km/h (2 Bft)
03.08.2025 21:59 22,3 °C 15,4 °C 62 % 87 % 1017,5 hPa 0,0 l/m² 3,2 km/h (1 Bft) S-SO 163 ° 0 min 0 W/m² 13,2 °C 15,4 °C 6,4 km/h (2 Bft)
03.08.2025 22:00 22,3 °C 15,4 °C 62 % 87 % 1017,5 hPa 0,0 l/m² 1,8 km/h (1 Bft) S-SO 163 ° 0 min 0 W/m² 13,2 °C 15,4 °C 3,2 km/h (1 Bft)
03.08.2025 22:01 22,3 °C 15,4 °C 62 % 87 % 1017,5 hPa 0,0 l/m² 2,6 km/h (1 Bft) S-SO 156 ° 0 min 0 W/m² 13,2 °C 15,4 °C 4,8 km/h (1 Bft)
03.08.2025 22:02 22,3 °C 15,4 °C 61 % 87 % 1017,6 hPa 0,0 l/m² 2,9 km/h (1 Bft) S-SO 156 ° 0 min 0 W/m² 13,2 °C 15,4 °C 4,8 km/h (1 Bft)
03.08.2025 22:03 22,3 °C 15,4 °C 61 % 87 % 1017,5 hPa 0,0 l/m² 2,1 km/h (1 Bft) S-SO 156 ° 0 min 0 W/m² 13,2 °C 15,4 °C 3,2 km/h (1 Bft)
03.08.2025 22:04 22,3 °C 15,3 °C 61 % 87 % 1017,5 hPa 0,0 l/m² 3,3 km/h (1 Bft) S-SO 156 ° 0 min 0 W/m² 13,1 °C 15,3 °C 8,0 km/h (2 Bft)
03.08.2025 22:05 22,3 °C 15,4 °C 61 % 87 % 1017,5 hPa 0,0 l/m² 1,6 km/h (1 Bft) S-SO 156 ° 0 min 0 W/m² 13,2 °C 15,4 °C 3,2 km/h (1 Bft)
03.08.2025 22:06 22,3 °C 15,4 °C 61 % 87 % 1017,5 hPa 0,0 l/m² 2,6 km/h (1 Bft) S 171 ° 0 min 0 W/m² 13,2 °C 15,4 °C 8,0 km/h (2 Bft)
03.08.2025 22:07 22,3 °C 15,3 °C 61 % 87 % 1017,5 hPa 0,0 l/m² 4,7 km/h (1 Bft) S 173 ° 0 min 0 W/m² 13,1 °C 15,3 °C 8,0 km/h (2 Bft)
03.08.2025 22:08 22,3 °C 15,3 °C 61 % 87 % 1017,5 hPa 0,0 l/m² 1,8 km/h (1 Bft) S 171 ° 0 min 0 W/m² 13,1 °C 15,3 °C 6,4 km/h (2 Bft)
03.08.2025 22:09 22,3 °C 15,3 °C 61 % 87 % 1017,5 hPa 0,0 l/m² 0,6 km/h (0 Bft) S 171 ° 0 min 0 W/m² 13,1 °C 15,3 °C 3,2 km/h (1 Bft)
03.08.2025 22:10 22,3 °C 15,4 °C 61 % 87 % 1017,5 hPa 0,0 l/m² 3,6 km/h (1 Bft) S 170 ° 0 min 0 W/m² 13,2 °C 15,4 °C 8,0 km/h (2 Bft)
03.08.2025 22:11 22,3 °C 15,3 °C 61 % 87 % 1017,5 hPa 0,0 l/m² 3,1 km/h (1 Bft) S 169 ° 0 min 0 W/m² 13,1 °C 15,3 °C 6,4 km/h (2 Bft)
03.08.2025 22:12 22,3 °C 15,3 °C 61 % 87 % 1017,5 hPa 0,0 l/m² 1,7 km/h (1 Bft) S 169 ° 0 min 0 W/m² 13,1 °C 15,3 °C 3,2 km/h (1 Bft)
03.08.2025 22:13 22,3 °C 15,3 °C 61 % 87 % 1017,5 hPa 0,0 l/m² 4,1 km/h (1 Bft) S 169 ° 0 min 0 W/m² 13,1 °C 15,3 °C 6,4 km/h (2 Bft)
03.08.2025 22:14 22,3 °C 15,3 °C 61 % 87 % 1017,5 hPa 0,0 l/m² 5,5 km/h (2 Bft) S-SO 162 ° 0 min 0 W/m² 13,1 °C 15,3 °C 8,0 km/h (2 Bft)
03.08.2025 22:15 22,3 °C 15,3 °C 61 % 87 % 1017,5 hPa 0,0 l/m² 5,2 km/h (1 Bft) S-SO 162 ° 0 min 0 W/m² 13,1 °C 15,3 °C 8,0 km/h (2 Bft)
03.08.2025 22:16 22,3 °C 15,4 °C 61 % 87 % 1017,5 hPa 0,0 l/m² 5,3 km/h (1 Bft) S-SO 156 ° 0 min 0 W/m² 13,2 °C 15,4 °C 8,0 km/h (2 Bft)
03.08.2025 22:17 22,3 °C 15,3 °C 61 % 87 % 1017,5 hPa 0,0 l/m² 4,7 km/h (1 Bft) S-SO 156 ° 0 min 0 W/m² 13,1 °C 15,3 °C 8,0 km/h (2 Bft)
03.08.2025 22:18 22,3 °C 15,4 °C 61 % 87 % 1017,5 hPa 0,0 l/m² 3,7 km/h (1 Bft) S-SO 155 ° 0 min 0 W/m² 13,2 °C 15,4 °C 4,8 km/h (1 Bft)
03.08.2025 22:19 22,3 °C 15,4 °C 61 % 87 % 1017,5 hPa 0,0 l/m² 4,2 km/h (1 Bft) S-SO 151 ° 0 min 0 W/m² 13,2 °C 15,4 °C 6,4 km/h (2 Bft)
03.08.2025 22:20 22,3 °C 15,3 °C 61 % 87 % 1017,5 hPa 0,0 l/m² 2,6 km/h (1 Bft) S-SO 151 ° 0 min 0 W/m² 13,1 °C 15,3 °C 4,8 km/h (1 Bft)
03.08.2025 22:21 22,3 °C 15,3 °C 61 % 87 % 1017,5 hPa 0,0 l/m² 4,9 km/h (1 Bft) S-SO 151 ° 0 min 0 W/m² 13,1 °C 15,3 °C 6,4 km/h (2 Bft)
03.08.2025 22:22 22,3 °C 15,3 °C 61 % 87 % 1017,6 hPa 0,0 l/m² 4,2 km/h (1 Bft) S-SO 150 ° 0 min 0 W/m² 13,1 °C 15,3 °C 6,4 km/h (2 Bft)
03.08.2025 22:23 22,3 °C 15,3 °C 61 % 87 % 1017,5 hPa 0,0 l/m² 5,6 km/h (2 Bft) S-SO 150 ° 0 min 0 W/m² 13,1 °C 15,3 °C 6,4 km/h (2 Bft)
03.08.2025 22:24 22,3 °C 15,3 °C 61 % 87 % 1017,5 hPa 0,0 l/m² 2,3 km/h (1 Bft) S-SO 150 ° 0 min 0 W/m² 13,1 °C 15,3 °C 3,2 km/h (1 Bft)
03.08.2025 22:25 22,3 °C 15,3 °C 61 % 87 % 1017,5 hPa 0,0 l/m² 2,5 km/h (1 Bft) S-SO 150 ° 0 min 0 W/m² 13,1 °C 15,3 °C 3,2 km/h (1 Bft)
03.08.2025 22:26 22,3 °C 15,3 °C 61 % 87 % 1017,6 hPa 0,0 l/m² 2,4 km/h (1 Bft) S-SO 150 ° 0 min 0 W/m² 13,1 °C 15,3 °C 4,8 km/h (1 Bft)
03.08.2025 22:27 22,3 °C 15,4 °C 61 % 87 % 1017,5 hPa 0,0 l/m² 4,2 km/h (1 Bft) S-SO 150 ° 0 min 0 W/m² 13,2 °C 15,4 °C 6,4 km/h (2 Bft)
03.08.2025 22:28 22,3 °C 15,3 °C 61 % 87 % 1017,5 hPa 0,0 l/m² 5,0 km/h (1 Bft) S-SO 148 ° 0 min 0 W/m² 13,1 °C 15,3 °C 6,4 km/h (2 Bft)
03.08.2025 22:29 22,3 °C 15,3 °C 61 % 87 % 1017,5 hPa 0,0 l/m² 3,2 km/h (1 Bft) S-SO 148 ° 0 min 0 W/m² 13,1 °C 15,3 °C 4,8 km/h (1 Bft)
03.08.2025 22:30 22,3 °C 15,3 °C 61 % 87 % 1017,6 hPa 0,0 l/m² 2,3 km/h (1 Bft) S-SO 148 ° 0 min 0 W/m² 13,1 °C 15,3 °C 3,2 km/h (1 Bft)
03.08.2025 22:31 22,3 °C 15,3 °C 61 % 87 % 1017,5 hPa 0,0 l/m² 2,1 km/h (1 Bft) S-SO 148 ° 0 min 0 W/m² 13,1 °C 15,3 °C 3,2 km/h (1 Bft)
03.08.2025 22:32 22,3 °C 15,3 °C 61 % 87 % 1017,6 hPa 0,0 l/m² 2,4 km/h (1 Bft) S-SO 148 ° 0 min 0 W/m² 13,1 °C 15,3 °C 3,2 km/h (1 Bft)
03.08.2025 22:33 22,3 °C 15,3 °C 61 % 87 % 1017,5 hPa 0,0 l/m² 1,7 km/h (1 Bft) S-SO 148 ° 0 min 0 W/m² 13,1 °C 15,3 °C 3,2 km/h (1 Bft)
03.08.2025 22:34 22,3 °C 15,3 °C 61 % 87 % 1017,6 hPa 0,0 l/m² 1,4 km/h (1 Bft) S-SO 148 ° 0 min 0 W/m² 13,1 °C 15,3 °C 3,2 km/h (1 Bft)
03.08.2025 22:35 22,2 °C 15,3 °C 61 % 87 % 1017,5 hPa 0,0 l/m² 3,1 km/h (1 Bft) S-SO 148 ° 0 min 0 W/m² 13,1 °C 15,3 °C 4,8 km/h (1 Bft)
03.08.2025 22:36 22,3 °C 15,3 °C 61 % 87 % 1017,6 hPa 0,0 l/m² 3,0 km/h (1 Bft) S-SO 148 ° 0 min 0 W/m² 13,1 °C 15,3 °C 4,8 km/h (1 Bft)
03.08.2025 22:37 22,2 °C 15,3 °C 61 % 87 % 1017,5 hPa 0,0 l/m² 4,1 km/h (1 Bft) S-SO 148 ° 0 min 0 W/m² 13,1 °C 15,3 °C 6,4 km/h (2 Bft)
03.08.2025 22:38 22,3 °C 15,3 °C 61 % 87 % 1017,4 hPa 0,0 l/m² 1,0 km/h (0 Bft) S-SO 148 ° 0 min 0 W/m² 13,1 °C 15,3 °C 3,2 km/h (1 Bft)
03.08.2025 22:39 22,2 °C 15,3 °C 61 % 87 % 1017,5 hPa 0,0 l/m² 2,5 km/h (1 Bft) S-SO 148 ° 0 min 0 W/m² 13,1 °C 15,3 °C 4,8 km/h (1 Bft)
03.08.2025 22:40 22,2 °C 15,3 °C 61 % 87 % 1017,5 hPa 0,0 l/m² 1,9 km/h (1 Bft) S-SO 148 ° 0 min 0 W/m² 13,1 °C 15,3 °C 3,2 km/h (1 Bft)
03.08.2025 22:41 22,2 °C 15,3 °C 61 % 87 % 1017,5 hPa 0,0 l/m² 3,1 km/h (1 Bft) S-SO 148 ° 0 min 0 W/m² 13,1 °C 15,3 °C 4,8 km/h (1 Bft)
03.08.2025 22:42 22,3 °C 15,3 °C 61 % 87 % 1017,5 hPa 0,0 l/m² 3,6 km/h (1 Bft) S-SO 147 ° 0 min 0 W/m² 13,1 °C 15,3 °C 4,8 km/h (1 Bft)
03.08.2025 22:43 22,2 °C 15,3 °C 61 % 87 % 1017,6 hPa 0,0 l/m² 1,5 km/h (1 Bft) S-SO 147 ° 0 min 0 W/m² 13,1 °C 15,3 °C 3,2 km/h (1 Bft)
03.08.2025 22:44 22,2 °C 15,3 °C 61 % 87 % 1017,6 hPa 0,0 l/m² 3,6 km/h (1 Bft) S-SO 147 ° 0 min 0 W/m² 13,1 °C 15,3 °C 6,4 km/h (2 Bft)
03.08.2025 22:45 22,3 °C 15,3 °C 61 % 87 % 1017,5 hPa 0,0 l/m² 1,8 km/h (1 Bft) S-SO 148 ° 0 min 0 W/m² 13,1 °C 15,3 °C 3,2 km/h (1 Bft)
03.08.2025 22:46 22,2 °C 15,3 °C 61 % 87 % 1017,5 hPa 0,0 l/m² 1,2 km/h (1 Bft) S-SO 148 ° 0 min 0 W/m² 13,1 °C 15,3 °C 3,2 km/h (1 Bft)
03.08.2025 22:47 22,2 °C 15,3 °C 61 % 87 % 1017,5 hPa 0,0 l/m² 2,3 km/h (1 Bft) S-SO 148 ° 0 min 0 W/m² 13,1 °C 15,3 °C 4,8 km/h (1 Bft)
03.08.2025 22:48 22,2 °C 15,3 °C 61 % 88 % 1017,5 hPa 0,0 l/m² 3,0 km/h (1 Bft) S-SO 147 ° 0 min 0 W/m² 13,3 °C 15,3 °C 4,8 km/h (1 Bft)
03.08.2025 22:49 22,2 °C 15,3 °C 61 % 88 % 1017,5 hPa 0,0 l/m² 3,6 km/h (1 Bft) S-SO 147 ° 0 min 0 W/m² 13,3 °C 15,3 °C 4,8 km/h (1 Bft)
03.08.2025 22:50 22,2 °C 15,3 °C 61 % 88 % 1017,5 hPa 0,0 l/m² 3,7 km/h (1 Bft) S-SO 147 ° 0 min 0 W/m² 13,3 °C 15,3 °C 4,8 km/h (1 Bft)
03.08.2025 22:51 22,2 °C 15,3 °C 61 % 88 % 1017,4 hPa 0,0 l/m² 4,1 km/h (1 Bft) S-SO 147 ° 0 min 0 W/m² 13,3 °C 15,3 °C 6,4 km/h (2 Bft)
03.08.2025 22:52 22,3 °C 15,3 °C 61 % 88 % 1017,4 hPa 0,0 l/m² 3,1 km/h (1 Bft) S-SO 147 ° 0 min 0 W/m² 13,3 °C 15,3 °C 6,4 km/h (2 Bft)
03.08.2025 22:53 22,2 °C 15,3 °C 61 % 88 % 1017,4 hPa 0,0 l/m² 3,8 km/h (1 Bft) S-SO 147 ° 0 min 0 W/m² 13,3 °C 15,3 °C 4,8 km/h (1 Bft)
03.08.2025 22:54 22,2 °C 15,3 °C 61 % 87 % 1017,5 hPa 0,0 l/m² 3,6 km/h (1 Bft) S-SO 147 ° 0 min 0 W/m² 13,1 °C 15,3 °C 6,4 km/h (2 Bft)
03.08.2025 22:55 22,2 °C 15,3 °C 61 % 88 % 1017,5 hPa 0,0 l/m² 7,1 km/h (2 Bft) SO 142 ° 0 min 0 W/m² 13,3 °C 14,9 °C 12,9 km/h (3 Bft)
03.08.2025 22:56 22,2 °C 15,3 °C 61 % 88 % 1017,4 hPa 0,0 l/m² 7,6 km/h (2 Bft) S-SO 150 ° 0 min 0 W/m² 13,3 °C 14,6 °C 9,7 km/h (2 Bft)
03.08.2025 22:57 22,2 °C 15,3 °C 61 % 87 % 1017,4 hPa 0,0 l/m² 4,8 km/h (1 Bft) S-SO 155 ° 0 min 0 W/m² 13,1 °C 15,3 °C 9,7 km/h (2 Bft)
03.08.2025 22:58 22,2 °C 15,3 °C 61 % 88 % 1017,4 hPa 0,0 l/m² 5,2 km/h (1 Bft) S-SO 155 ° 0 min 0 W/m² 13,3 °C 15,3 °C 8,0 km/h (2 Bft)
03.08.2025 22:59 22,2 °C 15,3 °C 61 % 88 % 1017,5 hPa 0,0 l/m² 5,8 km/h (2 Bft) S-SO 150 ° 0 min 0 W/m² 13,3 °C 15,3 °C 8,0 km/h (2 Bft)
03.08.2025 23:00 22,2 °C 15,3 °C 61 % 88 % 1017,4 hPa 0,0 l/m² 4,0 km/h (1 Bft) S-SO 150 ° 0 min 0 W/m² 13,3 °C 15,3 °C 6,4 km/h (2 Bft)
03.08.2025 23:01 22,2 °C 15,3 °C 61 % 88 % 1017,4 hPa 0,0 l/m² 5,2 km/h (1 Bft) S-SO 151 ° 0 min 0 W/m² 13,3 °C 15,3 °C 6,4 km/h (2 Bft)
03.08.2025 23:02 22,2 °C 15,3 °C 61 % 88 % 1017,4 hPa 0,0 l/m² 4,6 km/h (1 Bft) S-SO 150 ° 0 min 0 W/m² 13,3 °C 15,3 °C 6,4 km/h (2 Bft)
03.08.2025 23:03 22,2 °C 15,3 °C 61 % 88 % 1017,4 hPa 0,0 l/m² 5,5 km/h (2 Bft) S-SO 151 ° 0 min 0 W/m² 13,3 °C 15,3 °C 6,4 km/h (2 Bft)
03.08.2025 23:04 22,2 °C 15,3 °C 61 % 87 % 1017,3 hPa 0,0 l/m² 3,8 km/h (1 Bft) S-SO 151 ° 0 min 0 W/m² 13,1 °C 15,3 °C 4,8 km/h (1 Bft)
03.08.2025 23:05 22,2 °C 15,3 °C 61 % 88 % 1017,3 hPa 0,0 l/m² 5,7 km/h (2 Bft) S-SO 165 ° 0 min 0 W/m² 13,3 °C 15,3 °C 9,7 km/h (2 Bft)
03.08.2025 23:06 22,2 °C 15,3 °C 61 % 88 % 1017,4 hPa 0,0 l/m² 2,7 km/h (1 Bft) S-SO 163 ° 0 min 0 W/m² 13,3 °C 15,3 °C 6,4 km/h (2 Bft)
03.08.2025 23:07 22,2 °C 15,3 °C 61 % 87 % 1017,4 hPa 0,0 l/m² 7,1 km/h (2 Bft) S-SO 167 ° 0 min 0 W/m² 13,1 °C 14,9 °C 9,7 km/h (2 Bft)
03.08.2025 23:08 22,2 °C 15,3 °C 61 % 88 % 1017,3 hPa 0,0 l/m² 5,5 km/h (2 Bft) S-SO 164 ° 0 min 0 W/m² 13,3 °C 15,3 °C 8,0 km/h (2 Bft)
03.08.2025 23:09 22,2 °C 15,3 °C 61 % 88 % 1017,4 hPa 0,0 l/m² 6,9 km/h (2 Bft) S-SO 161 ° 0 min 0 W/m² 13,3 °C 15,0 °C 9,7 km/h (2 Bft)
03.08.2025 23:10 22,2 °C 15,3 °C 61 % 88 % 1017,4 hPa 0,0 l/m² 8,1 km/h (2 Bft) S-SO 165 ° 0 min 0 W/m² 13,3 °C 14,4 °C 9,7 km/h (2 Bft)
03.08.2025 23:11 22,2 °C 15,3 °C 61 % 87 % 1017,4 hPa 0,0 l/m² 4,1 km/h (1 Bft) S-SO 165 ° 0 min 0 W/m² 13,1 °C 15,3 °C 8,0 km/h (2 Bft)
03.08.2025 23:12 22,2 °C 15,3 °C 61 % 87 % 1017,4 hPa 0,0 l/m² 6,3 km/h (2 Bft) S-SO 166 ° 0 min 0 W/m² 13,1 °C 15,3 °C 9,7 km/h (2 Bft)
03.08.2025 23:13 22,2 °C 15,3 °C 61 % 87 % 1017,4 hPa 0,0 l/m² 8,7 km/h (2 Bft) S-SO 158 ° 0 min 0 W/m² 13,1 °C 14,1 °C 9,7 km/h (2 Bft)
03.08.2025 23:14 22,2 °C 15,3 °C 61 % 87 % 1017,3 hPa 0,0 l/m² 6,5 km/h (2 Bft) S-SO 167 ° 0 min 0 W/m² 13,1 °C 15,3 °C 9,7 km/h (2 Bft)
03.08.2025 23:15 22,2 °C 15,3 °C 61 % 87 % 1017,3 hPa 0,0 l/m² 6,0 km/h (2 Bft) S-SO 167 ° 0 min 0 W/m² 13,1 °C 15,3 °C 8,0 km/h (2 Bft)
03.08.2025 23:16 22,2 °C 15,3 °C 61 % 87 % 1017,3 hPa 0,0 l/m² 8,0 km/h (2 Bft) S-SO 157 ° 0 min 0 W/m² 13,1 °C 14,4 °C 9,7 km/h (2 Bft)
03.08.2025 23:22 22,2 °C 15,3 °C 61 % 87 % 1017,3 hPa 0,0 l/m² 3,7 km/h (1 Bft) S-SO 165 ° 0 min 0 W/m² 13,1 °C 15,3 °C 6,4 km/h (2 Bft)
03.08.2025 23:24 22,1 °C 15,3 °C 61 % 87 % 1017,4 hPa 0,0 l/m² 6,7 km/h (2 Bft) S 169 ° 0 min 0 W/m² 13,1 °C 15,1 °C 11,3 km/h (2 Bft)
03.08.2025 23:25 22,1 °C 15,3 °C 61 % 87 % 1017,4 hPa 0,0 l/m² 5,5 km/h (2 Bft) S 169 ° 0 min 0 W/m² 13,1 °C 15,3 °C 8,0 km/h (2 Bft)
03.08.2025 23:27 22,2 °C 15,3 °C 61 % 87 % 1017,4 hPa 0,0 l/m² 5,7 km/h (2 Bft) S 180 ° 0 min 0 W/m² 13,1 °C 15,3 °C 9,7 km/h (2 Bft)
03.08.2025 23:29 22,2 °C 15,3 °C 61 % 87 % 1017,4 hPa 0,0 l/m² 4,8 km/h (1 Bft) S 183 ° 0 min 0 W/m² 13,1 °C 15,3 °C 6,4 km/h (2 Bft)
03.08.2025 23:30 22,1 °C 15,3 °C 61 % 87 % 1017,3 hPa 0,0 l/m² 3,3 km/h (1 Bft) S 183 ° 0 min 0 W/m² 13,1 °C 15,3 °C 4,8 km/h (1 Bft)
03.08.2025 23:31 22,2 °C 15,3 °C 61 % 87 % 1017,3 hPa 0,0 l/m² 5,4 km/h (2 Bft) S 182 ° 0 min 0 W/m² 13,1 °C 15,3 °C 8,0 km/h (2 Bft)
03.08.2025 23:32 22,2 °C 15,3 °C 61 % 87 % 1017,3 hPa 0,0 l/m² 5,1 km/h (1 Bft) S 180 ° 0 min 0 W/m² 13,1 °C 15,3 °C 6,4 km/h (2 Bft)
03.08.2025 23:35 22,1 °C 15,3 °C 61 % 87 % 1017,3 hPa 0,0 l/m² 4,0 km/h (1 Bft) S 184 ° 0 min 0 W/m² 13,1 °C 15,3 °C 6,4 km/h (2 Bft)
03.08.2025 23:37 22,1 °C 15,3 °C 61 % 87 % 1017,3 hPa 0,0 l/m² 3,6 km/h (1 Bft) S 183 ° 0 min 0 W/m² 13,1 °C 15,3 °C 4,8 km/h (1 Bft)
03.08.2025 23:39 22,2 °C 15,3 °C 61 % 87 % 1017,3 hPa 0,0 l/m² 3,1 km/h (1 Bft) S 183 ° 0 min 0 W/m² 13,1 °C 15,3 °C 4,8 km/h (1 Bft)
03.08.2025 23:40 22,2 °C 15,3 °C 61 % 87 % 1017,2 hPa 0,0 l/m² 5,0 km/h (1 Bft) S 181 ° 0 min 0 W/m² 13,1 °C 15,3 °C 8,0 km/h (2 Bft)
03.08.2025 23:41 22,1 °C 15,3 °C 61 % 87 % 1017,3 hPa 0,0 l/m² 4,6 km/h (1 Bft) S 180 ° 0 min 0 W/m² 13,1 °C 15,3 °C 6,4 km/h (2 Bft)
03.08.2025 23:42 22,1 °C 15,3 °C 61 % 87 % 1017,3 hPa 0,0 l/m² 4,2 km/h (1 Bft) S 176 ° 0 min 0 W/m² 13,1 °C 15,3 °C 6,4 km/h (2 Bft)
03.08.2025 23:45 22,1 °C 15,3 °C 61 % 87 % 1017,3 hPa 0,0 l/m² 3,8 km/h (1 Bft) S 175 ° 0 min 0 W/m² 13,1 °C 15,3 °C 6,4 km/h (2 Bft)
03.08.2025 23:47 22,1 °C 15,3 °C 61 % 87 % 1017,3 hPa 0,0 l/m² 2,6 km/h (1 Bft) S 175 ° 0 min 0 W/m² 13,1 °C 15,3 °C 4,8 km/h (1 Bft)
03.08.2025 23:49 22,1 °C 15,3 °C 61 % 87 % 1017,4 hPa 0,0 l/m² 5,5 km/h (2 Bft) S 171 ° 0 min 0 W/m² 13,1 °C 15,3 °C 8,0 km/h (2 Bft)
03.08.2025 23:50 22,1 °C 15,3 °C 61 % 87 % 1017,3 hPa 0,0 l/m² 5,9 km/h (2 Bft) S 181 ° 0 min 0 W/m² 13,1 °C 15,3 °C 8,0 km/h (2 Bft)
03.08.2025 23:51 22,1 °C 15,3 °C 61 % 87 % 1017,3 hPa 0,0 l/m² 4,4 km/h (1 Bft) S 179 ° 0 min 0 W/m² 13,1 °C 15,3 °C 8,0 km/h (2 Bft)
03.08.2025 23:52 22,1 °C 15,3 °C 61 % 87 % 1017,3 hPa 0,0 l/m² 3,4 km/h (1 Bft) S 178 ° 0 min 0 W/m² 13,1 °C 15,3 °C 4,8 km/h (1 Bft)
03.08.2025 23:55 22,1 °C 15,2 °C 61 % 87 % 1017,2 hPa 0,0 l/m² 3,3 km/h (1 Bft) S 178 ° 0 min 0 W/m² 13,0 °C 15,2 °C 6,4 km/h (2 Bft)
03.08.2025 23:57 22,1 °C 15,2 °C 61 % 87 % 1017,3 hPa 0,0 l/m² 2,1 km/h (1 Bft) S 178 ° 0 min 0 W/m² 13,0 °C 15,2 °C 4,8 km/h (1 Bft)
03.08.2025 23:59 22,1 °C 15,2 °C 61 % 87 % 1017,3 hPa 0,0 l/m² 4,0 km/h (1 Bft) S 174 ° 0 min 0 W/m² 13,0 °C 15,2 °C 6,4 km/h (2 Bft)
_ Min-Zeit 23:59 07:01 17:29 13:45 00:07 - 07:03 - - - - 01:07 07:56 07:03
Minimum _ 22,1 °C 14,3 °C 58 % 55 % 1013,4 hPa - 0,0 km/h (0 Bft) - - - - 11,5 °C 11,9 °C 0,0 km/h (0 Bft)
_ Max-Zeit 00:03 13:38 20:26 23:10 22:44 17:43 13:31 - - 12:06 13:18 08:48 13:07 15:35
Maximum _ 22,5 °C 22,1 °C 63 % 88 % 1017,6 hPa 0,2 l/m² 26,3 km/h
W-SW (4 Bft)
- - 6 min 680 W/m² 14,4 °C 19,9 °C 35,4 km/h
SW (5 Bft)
Durchschnitt _ 22,3 °C 17,1 °C 60 % 79 % 1016,0 hPa #0,2 l/m² 8,6 km/h (2 Bft) SW - #12:13 h 133 W/m² 13,2 °C 15,8 °C 12,9 km/h (3 Bft)
© 2009 Mathias Hoßbach